[[{"header":{"parameterUnit":"m.s-1","parameterCategory":1,"la1":31.0,"la2":29.5877,"lo1":-88.7671,"lo2":-86.6584,"dy":0.0162,"dx":0.0185,"nx":115,"ny":88,"refTime":"2023-03-06T18:00:00:Z","depth":0,"parameterNumber":2,"parameterNumberName":"U-component_of_WINDS"},"data":[0.0,0.0,0.0,0.0,0.0,0.0,0.0,0.0,0.0,0.0,0.0,0.0,0.0,0.0,0.0,0.0,0.0,0.0,0.0,0.0,0.0,0.0,0.0,0.0,0.0,0.0,0.0,0.0,0.0,0.0,0.0,0.0,0.0,0.0,0.0,0.0,0.0,0.0,0.0,0.0,0.0,0.0,0.0,0.0,0.0,0.0,0.0,0.0,0.0,0.0,0.0,0.0,0.0,0.0,0.0,0.0,0.0,0.0,0.0,0.0,0.0,0.0,0.0,0.0,0.0,0.0,0.0,0.0,0.0,0.0,0.0,0.0,0.0,0.0,0.0,0.0,0.0,0.0,0.0,0.0,0.0,0.0,0.0,0.0,0.0,0.0,0.0,0.0,0.0,0.0,0.0,0.0,0.0,0.0,0.0,0.0,0.0,0.0,0.0,0.0,0.0,0.0,0.0,0.0,0.0,0.0,0.0,0.0,0.0,0.0,0.0,0.0,0.0,0.0,0.0,0.0,0.0,0.0,0.0,0.0,0.0,0.0,0.0,0.0,0.0,0.0,0.0,0.0,0.0,0.0,0.0,0.0,0.0,0.0,0.0,0.0,0.0,0.0,0.0,0.0,0.0,0.0,0.0,0.0,0.0,0.0,0.0,0.0,0.0,0.0,0.0,0.0,0.0,0.0,0.0,0.0,0.0,0.0,0.0,0.0,0.0,0.0,0.0,0.0,0.0,0.0,0.0,0.0,0.0,0.0,0.0,0.0,0.0,0.0,0.0,0.0,0.0,0.0,0.0,0.0,0.0,0.0,0.0,0.0,0.0,0.0,0.0,0.0,0.0,0.0,0.0,0.0,0.0,0.0,0.0,0.0,0.0,0.0,0.0,0.0,0.0,0.0,0.0,0.0,0.0,0.0,0.0,0.0,0.0,0.0,0.0,0.0,0.0,0.0,0.0,0.0,0.0,0.0,0.0,0.0,0.0,0.0,0.0,0.0,0.0,0.0,0.0,0.0,0.0,0.0,0.0,0.0,0.0,0.0,0.0,0.0,0.0,0.0,0.0,0.0,0.0,0.0,0.0,0.0,0.0,0.0,0.0,0.0,0.0,0.0,0.0,0.0,0.0,0.0,0.0,0.0,0.0,0.0,0.0,0.0,0.0,0.0,0.0,0.0,0.0,0.0,0.0,0.0,0.0,0.0,0.0,0.0,0.0,0.0,0.0,0.0,0.0,0.0,0.0,0.0,0.0,0.0,0.0,0.0,0.0,0.0,0.0,0.0,0.0,0.0,0.0,0.0,0.0,0.0,0.0,0.0,0.0,0.0,0.0,0.0,0.0,0.0,0.0,0.0,0.0,0.0,0.0,0.0,0.0,0.0,0.0,0.0,0.0,0.0,0.0,0.0,0.0,0.0,0.0,0.0,0.0,0.0,0.0,0.0,0.0,0.0,0.0,0.0,0.0,0.0,0.0,0.0,0.0,0.0,0.0,0.0,0.0,0.0,0.0,0.0,0.0,0.0,0.0,0.0,0.0,0.0,0.0,0.0,0.0,0.0,0.0,0.0,0.0,0.0,0.0,0.0,0.0,0.0,0.0,0.0,0.0,0.0,0.0,0.0,0.0,0.0,0.0,0.0,0.0,0.0,0.0,0.0,0.0,0.0,0.0,0.0,0.0,0.0,0.0,0.0,0.0,0.0,0.0,0.0,0.0,0.0,0.0,0.0,0.0,0.0,0.0,0.0,0.0,0.0,0.0,0.0,0.0,0.0,0.0,0.0,0.0,0.0,0.0,0.0,0.0,0.0,0.0,0.0,0.0,0.0,0.0,0.0,0.0,0.0,0.0,0.0,0.0,0.0,0.0,0.0,0.0,0.0,0.0,0.0,0.0,0.0,0.0,0.0,0.0,0.0,0.0,0.0,0.0,0.0,0.0,0.0,0.0,0.0,0.0,0.0,0.0,0.0,0.0,0.0,0.0,0.0,0.0,0.0,0.0,0.0,0.0,0.0,0.0,0.0,0.0,0.0,0.0,0.0,0.0,0.0,0.0,0.0,0.0,0.0,0.0,0.0,0.0,0.0,0.0,0.0,0.0,0.0,0.0,0.0,0.0,0.0,0.0,0.0,0.0,0.0,0.0,0.0,0.0,0.0,0.0,0.0,0.0,0.0,0.0,0.0,0.0,0.0,0.0,0.0,0.0,0.0,0.0,0.0,0.0,0.0,0.0,0.0,0.0,0.0,0.0,0.0,0.0,0.0,0.0,0.0,0.0,0.0,0.0,0.0,0.0,0.0,0.0,0.0,0.0,0.0,0.0,0.0,0.0,0.0,0.0,0.0,0.0,0.0,0.0,0.0,0.0,0.0,0.0,0.0,0.0,0.0,0.0,0.0,0.0,0.0,0.0,0.0,0.0,0.0,0.0,0.0,0.0,0.0,0.0,0.0,0.0,0.0,0.0,0.0,0.0,0.0,0.0,0.0,0.0,0.0,0.0,0.0,0.0,0.0,0.0,0.0,0.0,0.0,0.0,0.0,0.0,0.0,0.0,0.0,0.0,0.0,0.0,0.0,0.0,0.0,0.0,0.0,0.0,0.0,0.0,0.0,0.0,0.0,0.0,0.0,0.0,0.0,0.0,0.0,0.0,0.0,0.0,0.0,0.0,0.0,0.0,0.0,0.0,0.0,0.0,0.0,0.0,0.0,0.0,0.0,0.0,0.0,0.0,0.0,0.0,0.0,0.0,0.0,0.0,0.0,0.0,0.0,0.0,0.0,0.0,0.0,0.0,0.0,0.0,0.0,0.0,0.0,0.0,0.0,0.0,0.0,0.0,0.0,0.0,0.0,0.0,0.0,0.0,0.0,0.0,0.0,0.0,0.0,0.0,0.0,0.0,0.0,0.0,0.0,0.0,0.0,0.0,0.0,0.0,0.0,0.0,0.0,0.0,0.0,0.0,0.0,0.0,0.0,0.0,0.0,0.0,0.0,0.0,0.0,0.0,0.0,0.0,0.0,0.0,0.0,0.0,0.0,0.0,0.0,0.0,0.0,0.0,0.0,0.0,0.0,0.0,0.0,0.0,0.0,0.0,0.0,0.0,0.0,0.0,0.0,0.0,0.0,0.0,0.0,0.0,0.0,0.0,0.0,0.0,0.0,0.0,0.0,0.0,0.0,0.0,0.0,0.0,0.0,0.0,0.0,0.0,0.0,0.0,0.0,0.0,0.0,0.0,0.0,0.0,0.0,0.0,0.0,0.0,0.0,0.0,0.0,0.0,0.0,0.0,0.0,0.0,0.0,0.0,0.0,0.0,0.0,0.0,0.0,0.0,0.0,0.0,0.0,0.0,0.0,0.0,0.0,0.0,0.0,0.0,0.0,0.0,0.0,0.0,0.0,0.0,0.0,0.0,0.0,0.0,0.0,0.0,0.0,0.0,0.0,0.0,0.0,0.0,0.0,0.0,0.0,0.0,0.0,0.0,0.0,0.0,0.0,0.0,0.0,0.0,0.0,0.0,0.0,0.0,0.0,0.0,0.0,0.0,0.0,0.0,0.0,0.0,0.0,0.0,0.0,0.0,0.0,0.0,0.0,0.0,0.0,0.0,0.0,0.0,0.0,0.0,0.0,0.0,0.0,0.0,0.0,0.0,0.0,0.0,0.0,0.0,0.0,0.0,0.0,0.0,0.0,0.0,0.0,0.0,0.0,0.0,0.0,0.0,0.0,0.0,0.0,0.0,0.0,0.0,0.0,0.0,0.0,0.0,0.0,0.0,0.0,0.0,0.0,0.0,0.0,0.0,0.0,0.0,0.0,0.0,0.0,0.0,0.0,0.0,0.0,0.0,0.0,0.0,0.0,0.0,0.0,0.0,0.0,0.0,0.0,0.0,0.0,0.0,0.0,0.0,0.0,0.0,0.0,0.0,0.0,0.0,0.0,0.0,0.0,0.0,0.0,0.0,0.0,0.0,0.0,0.0,0.0,0.0,0.0,0.0,0.0,0.0,0.0,0.0,0.0,0.0,0.0,0.0,0.0,0.0,0.0,0.0,0.0,0.0,0.0,0.0,0.0,0.0,0.0,0.0,0.0,0.0,0.0,0.0,0.0,0.0,0.0,0.0,0.0,0.0,0.0,0.0,0.0,0.0,0.0,0.0,0.0,0.0,0.0,0.0,0.0,0.0,0.0,0.0,0.0,0.0,0.0,0.0,0.0,0.0,0.0,0.0,0.0,0.0,0.0,0.0,0.0,0.0,0.0,0.0,0.0,0.0,0.0,0.0,0.0,0.0,0.0,0.3132,0.0,0.0,0.0,0.0,0.0,0.0,0.0,0.0,0.0,0.0,0.0,0.0,0.0,0.0,0.0,0.0,0.0,0.0,0.0,0.0,0.0,0.0,0.0,0.0,0.0,0.0,0.0,0.0,0.0,0.0,0.0,0.0,0.0,0.0,0.0,0.0,0.0,0.0,0.0,0.0,0.0,0.0,0.0,0.0,0.0,0.0,0.0,0.0,0.0,0.0,0.0,0.0,0.0,0.0,0.0,0.0,0.0,0.0,0.0,0.0,0.0,0.0,0.0,0.0,0.0,0.0,0.0,0.0,0.0,0.0,0.0,0.0,0.0,0.0,0.0,0.0,0.0,0.0,0.0,0.0,0.0,0.0,0.0,0.0,0.0,0.0,0.0,0.0,0.0,0.0,0.0,0.0,0.0,0.0,0.0,0.0,0.0,0.0,0.0,0.0,0.0,0.0,0.0,0.0,0.0,0.0,0.0,0.0,0.0,0.0,0.4739,0.4193,0.3747,0.332,0.2934,0.0,0.0,0.0,0.0,0.0,0.0,0.0,0.0,0.0,0.0,0.0,0.0,0.0,0.0,0.0,0.0,0.0,0.0,0.0,0.0,0.0,0.0,0.0,0.0,0.0,0.0,0.0,0.0,0.0,0.0,0.0,0.0,0.0,0.0,0.0,0.0,0.0,0.0,0.0,0.0,0.0,0.0,0.0,0.0,0.0,0.0,0.0,0.0,0.0,0.0,0.0,0.0,0.0,0.0,0.0,0.0,0.0,0.0,0.0,0.0,0.0,0.0,0.0,0.0,0.0,0.0,0.0,0.0,0.0,0.0,0.0,0.0,0.0,0.0,0.0,0.0,0.0,0.0,0.0,0.0,0.0,0.0,0.0,0.0,0.0,0.0,0.0,0.0,0.0,0.0,0.0,0.0,0.0,0.0,0.0,0.0,0.0,0.0,0.0,0.0,0.0,0.0,0.0,0.0,0.0,0.0,0.0,0.0,0.0,0.0,0.0,0.0,0.386,0.3295,0.27,0.0,0.0,0.0,0.0,0.0,0.0,0.0,0.0,0.0,0.0,0.0,0.0,0.0,0.0,0.0,0.0,0.0,0.0,0.0,0.0,0.0,0.0,0.0,0.0,0.0,0.0,0.0,0.0,0.0,0.0,0.0,0.0,0.0,0.0,0.0,0.0,0.0,0.0,0.0,0.0,0.0,0.0,0.0,0.0,0.0,0.0,0.0,0.0,0.0,0.0,0.0,0.0,0.0,0.0,0.0,0.0,0.0,0.0,0.0,0.0,0.0,0.0,0.0,0.0,0.0,0.0,0.0,0.0,0.0,0.0,0.0,0.0,0.0,0.0,0.0,0.0,0.0,0.0,0.0,0.0,0.0,0.0,0.0,0.0,0.0,0.0,0.0,0.0,0.0,0.0,0.0,0.0,0.0,0.0,0.0,0.0,0.0,0.0,0.0,0.0,0.0,0.0,0.0,0.0,0.0,0.0,0.0,0.0,0.0,0.0,0.5007,0.4463,0.3916,0.0,0.2409,0.0,0.0,0.0,0.0,0.0,0.0,0.0,0.0,0.0,0.0,0.0,0.0,0.0,0.0,0.0,0.0,0.0,0.0,0.0,0.0,0.0,0.0,0.0,0.0,0.0,0.0,0.0,0.0,0.0,0.0,0.0,0.0,0.0,0.0,0.0,0.0,0.0,0.0,0.0,0.0,0.0,0.0,0.0,0.0,0.0,0.0,0.0,0.0,0.0,0.0,0.0,0.0,0.0,0.0,0.0,0.0,0.0,0.0,0.0,0.0,0.0,0.0,0.0,0.0,0.0,0.0,0.0,0.0,0.0,0.0,0.0,0.0,0.0,0.0,0.0,0.0,0.0,0.0,0.0,0.0,0.0,0.0,0.0,0.0,0.0,0.0,0.0,0.0,0.0,0.0,0.0,0.0,0.0,0.0,0.0,0.0,0.0,0.0,0.0,0.0,0.0,0.0,0.0,0.0,0.0,0.0,0.0,0.0,0.0,0.0,0.4956,0.4519,0.3577,0.2819,0.0,0.0,0.0,0.0,0.0,0.0,0.0,0.0,0.0,0.0,0.0,0.0,0.0,0.0,0.0,0.0,0.0,0.0,0.0,0.0,0.0,0.0,0.0,0.0,0.0,0.0,0.0,0.0,0.0,0.0,0.0,0.0,0.0,0.0,0.0,0.0,0.0,0.0,0.0,0.0,0.0,0.0,0.0,0.0,0.0,0.0,0.0,0.0,0.0,0.0,0.0,0.0,0.0,0.0,0.0,0.0,0.0,0.0,0.0,0.0,0.0,0.0,0.0,0.0,0.0,0.0,0.0,0.0,0.0,0.0,0.0,0.0,0.0,0.0,0.0,0.0,0.0,0.0,0.0,0.0,0.0,0.0,0.0,0.0,0.0,0.0,0.0,0.0,0.0,0.0,0.0,0.0,0.0,0.0,0.0,0.0,0.0,0.0,0.0,0.0,0.0,0.0,0.0,0.0,0.0,0.0,0.0,0.0,0.0,0.0,0.5344,0.4791,0.4184,0.3244,0.2575,0.2184,0.0,0.0,0.0,0.0,0.0,0.0,0.0,0.0,0.0,0.0,0.0,0.0,0.0,0.0,0.0,0.0,0.0,0.0,0.0,0.0,0.0,0.0,0.0,0.0,0.0,0.0,0.0,0.0,0.0,0.0,0.0,0.0,0.0,0.0,0.0,0.0,0.0,0.0,0.0,0.0,0.0,0.0,0.0,0.0,0.0,0.0,0.0,0.0,0.0,0.0,0.0,0.0,0.0,0.0,0.0,0.0,0.0,0.0,0.0,0.0,0.0,0.0,0.0,0.0,0.0,0.0,0.0,0.0,0.0,0.0,0.0,0.0,0.0,0.0,0.0,0.0,0.0,0.0,0.0,0.0,0.0,0.0,0.0,0.0,0.0,0.0,0.0,0.0,0.0,0.0,0.0,0.0,0.0,0.0,0.0,0.0,0.0,0.0,0.0,0.0,0.0,0.0,0.0,0.0,0.0,0.0,0.0,0.0,0.5622,0.5179,0.446,0.3469,0.3077,0.2683,0.0,0.0,0.0,0.0,0.0,0.0,0.0,0.0,0.0,0.0,0.0,0.0,0.0,0.0,0.0,0.0,0.0,0.0,0.0,0.0,0.0,0.0,0.0,0.0,0.0,0.0,0.0,0.0,0.0,0.0,0.0,0.0,0.0,0.0,0.0,0.0,0.0,0.0,0.0,0.0,0.0,0.0,0.0,0.0,0.0,0.0,0.0,0.0,0.0,0.0,0.0,0.0,0.0,0.0,0.0,0.0,0.0,0.0,0.0,0.0,0.0,0.0,0.0,0.0,0.0,0.0,0.0,0.0,0.0,0.0,0.0,0.0,0.0,0.0,0.0,0.0,0.0,0.0,0.0,0.0,0.0,0.0,0.0,0.0,0.0,0.0,0.0,0.0,0.0,0.0,0.0,0.0,0.0,0.0,0.0,0.0,0.0,0.0,0.0,0.0,0.0,0.0,0.0,0.0,0.0,0.0,0.0,0.0,0.0,0.5567,0.4791,0.3962,0.3244,0.2854,0.2519,0.0,0.0,0.0,0.0,0.0,0.0,0.0,0.0,0.0,0.0,0.0,0.0,0.0,0.0,0.0,0.0,0.0,0.0,0.0,0.0,0.0,0.0,0.0,0.0,0.0,0.0,0.0,0.0,0.0,0.0,0.0,0.0,0.0,0.0,0.0,0.0,0.0,0.0,0.0,0.0,0.0,0.0,0.0,0.0,0.0,0.0,0.0,0.0,0.0,0.0,0.0,0.0,0.0,0.0,0.0,0.0,0.0,0.0,0.0,0.0,0.0,0.0,0.0,0.0,0.0,0.0,0.0,0.0,0.0,0.0,0.0,0.0,0.0,0.0,0.0,0.0,0.0,0.0,0.0,0.0,0.0,0.0,0.0,0.0,0.0,0.0,0.0,0.0,0.0,0.0,0.0,0.0,0.0,0.0,0.0,0.0,0.0,0.0,0.0,0.0,0.0,0.0,0.0,0.0,0.0,0.0,0.0,0.0,0.0,0.5128,0.0,0.3633,0.3132,0.2745,0.2465,0.0,0.0,0.0,0.0,0.0,0.0,0.0,0.0,0.0,0.0,0.0,0.0,0.0,0.0,0.0,0.0,0.0,0.0,0.0,0.0,0.0,0.0,0.0,0.0,0.0,0.0,0.0,0.0,0.0,0.0,0.0,0.0,0.0,0.0,0.0,0.0,0.0,0.0,0.0,0.0,0.0,0.0,0.0,0.0,0.0,0.0,0.0,0.0,0.0,0.0,0.0,0.0,0.0,0.0,0.0,0.0,0.0,0.0,0.0,0.0,0.0,0.0,0.0,0.0,0.0,0.0,0.0,0.0,0.0,0.0,0.0,0.0,0.0,0.0,0.0,0.0,0.0,0.0,0.0,0.0,0.0,0.0,0.0,0.0,0.0,0.0,0.0,0.0,0.0,0.0,0.0,0.0,0.0,0.0,0.0,0.0,0.0,0.0,0.0,0.0,0.0,0.0,0.0,0.0,0.0,0.0,0.0,0.0,0.5285,0.4245,0.3805,0.3469,0.3077,0.2856,0.2521,0.0,0.0,0.0,0.0,0.0,0.0,0.0,0.0,0.0,0.0,0.0,0.0,0.0,0.0,0.0,0.0,0.0,0.0,0.0,0.0,0.0,0.0,0.0,0.0,0.0,0.0,0.0,0.0,0.0,0.0,0.0,0.0,0.0,0.0,0.0,0.0,0.0,0.0,0.0,0.0,0.0,0.0,0.0,0.0,0.0,0.0,0.0,0.0,0.0,0.0,0.0,0.0,0.0,0.0,0.0,0.0,0.0,0.0,0.0,0.0,0.0,0.0,0.0,0.0,0.0,0.0,0.0,0.0,0.0,0.0,0.0,0.0,0.0,0.0,0.0,0.0,0.0,0.0,0.0,0.0,0.0,0.0,0.0,0.0,0.0,0.0,0.0,0.0,0.0,0.0,0.0,0.0,0.0,0.0,0.0,0.0,0.0,0.0,0.0,0.0,0.0,0.0,0.0,0.0,0.0,0.0,0.0,0.0,0.0,0.4193,0.3694,0.3357,0.3077,0.2631,0.2296,0.0,0.0,0.0,0.0,0.0,0.0,0.0,0.0,0.0,0.0,0.0,0.0,0.0,0.0,0.0,0.0,0.0,0.0,0.0,0.0,0.0,0.0,0.0,0.0,0.0,0.0,0.0,0.0,0.0,0.0,0.0,0.0,0.0,0.0,0.0,0.0,0.0,0.0,0.0,0.0,0.0,0.0,0.0,0.0,0.0,0.0,0.0,0.0,0.0,0.0,0.0,0.0,0.0,0.0,0.0,0.0,0.0,0.0,0.0,0.0,0.0,0.0,0.0,0.0,0.0,0.0,0.0,0.0,0.0,0.0,0.0,0.0,0.0,0.0,0.0,0.0,0.0,0.0,0.0,0.0,0.0,0.0,0.0,0.0,0.0,0.0,0.0,0.0,0.0,0.0,0.0,0.0,0.0,0.0,0.0,0.0,0.0,0.0,0.0,0.0,0.0,0.0,0.0,0.0,0.0,0.0,0.0,0.0,0.0,0.4135,0.358,0.3246,0.3132,0.2517,0.2184,0.2184,0.0,0.0,0.0,0.0,0.0,0.0,0.0,0.0,0.0,0.0,0.0,0.0,0.0,0.0,0.0,0.0,0.0,0.0,0.0,0.0,0.0,0.0,0.0,0.0,0.0,0.0,0.0,0.0,0.0,0.0,0.0,0.0,0.0,0.0,0.0,0.0,0.0,0.0,0.0,0.0,0.0,0.0,0.0,0.0,0.0,0.0,0.0,0.0,0.0,0.0,0.0,0.0,0.0,0.0,0.0,0.0,0.0,0.0,0.0,0.0,0.0,0.0,0.0,0.0,0.0,0.0,0.0,0.0,0.0,0.0,0.0,0.0,0.0,0.0,0.0,0.0,0.0,0.0,0.0,0.0,0.0,0.0,0.0,0.0,0.0,0.0,0.0,0.0,0.0,0.0,0.0,0.0,0.0,0.0,0.0,0.0,0.0,0.0,0.0,0.0,0.0,0.0,0.0,0.0,0.0,0.0,0.0,0.0,0.4021,0.3408,0.3132,0.3077,0.2519,0.2184,0.0,0.0,0.0,0.0,0.0,0.0,0.0,0.0,0.0,0.0,0.0,0.0,0.0,0.0,0.0,0.0,0.0,0.0,0.0,0.0,0.0,0.0,0.0,0.0,0.0,0.0,0.0,0.0,0.0,0.0,0.0,0.0,0.0,0.0,0.0,0.0,0.0,0.0,0.0,0.0,0.0,0.0,0.0,0.0,0.0,0.0,0.0,0.0,0.0,0.0,0.0,0.0,0.0,0.0,0.0,0.0,0.0,0.0,0.0,0.0,0.0,0.0,0.0,0.0,0.0,0.0,0.0,0.0,0.0,0.0,0.0,0.0,0.0,0.0,0.0,0.0,0.0,0.0,0.0,0.0,0.0,0.0,0.0,0.0,0.0,0.0,0.0,0.0,0.0,0.0,0.0,0.0,0.0,0.0,0.0,0.0,0.0,0.0,0.0,0.0,0.0,0.0,0.0,0.0,0.0,0.0,0.0,0.0,0.0,0.4021,0.3635,0.3357,0.3077,0.2631,0.2352,0.0,0.0,0.0,0.0,0.0,0.0,0.0,0.0,0.0,0.0,0.0,0.0,0.0,0.0,0.0,0.0,0.0,0.0,0.0,0.0,0.0,0.0,0.0,0.0,0.0,0.0,0.0,0.0,0.0,0.0,0.0,0.0,0.0,0.0,0.0,0.0,0.0,0.0,0.0,0.0,0.0,0.0,0.0,0.0,0.0,0.0,0.0,0.0,0.0,0.0,0.0,0.0,0.0,0.0,0.0,0.0,0.0,0.0,0.0,0.0,0.0,0.0,0.0,0.0,0.0,0.0,0.0,0.0,0.0,0.0,0.0,0.0,0.0,0.0,0.0,0.0,0.0,0.0,0.0,0.0,0.0,0.0,0.0,0.0,0.0,0.0,0.0,0.0,0.0,0.0,0.0,0.0,0.0,0.0,0.0,0.0,0.0,0.0,0.0,0.0,0.0,0.0,0.0,0.0,0.0,0.0,0.0,0.0,0.4577,0.4187,0.3971,0.3691,0.3302,0.2856,0.2521,0.0,0.0,0.0,0.0,0.0,0.0,0.0,0.0,0.0,0.0,0.0,0.0,0.0,0.0,0.0,0.0,0.0,0.0,0.0,0.0,0.0,0.0,0.0,0.0,0.0,0.0,0.0,0.0,0.0,0.0,0.0,0.0,0.0,0.0,0.0,0.0,0.0,0.0,0.0,0.0,0.0,0.0,0.0,0.0,0.0,0.0,0.0,0.0,0.0,0.0,0.0,0.0,0.0,0.0,0.0,0.0,0.0,0.0,0.0,0.0,0.0,0.0,0.0,0.0,0.0,0.0,0.0,0.0,0.0,0.0,0.0,0.0,0.0,0.0,0.0,0.0,0.0,0.0,0.0,0.0,0.0,0.0,0.0,0.0,0.0,0.0,0.0,0.0,0.0,0.0,0.0,0.0,0.0,0.0,0.0,0.0,0.0,0.0,0.0,0.0,0.0,0.0,0.0,0.0,0.0,0.0,0.0,0.0,0.4791,0.4519,0.4356,0.4027,0.3638,0.3081,0.2691,0.0,0.0,0.0,0.0,0.0,0.0,0.0,0.0,0.0,0.0,0.0,0.0,0.0,0.0,0.0,0.0,0.0,0.0,0.0,0.0,0.0,0.0,0.0,0.0,0.0,0.0,0.0,0.0,0.0,0.0,0.0,0.0,0.0,0.0,0.0,0.0,0.0,0.0,0.0,0.0,0.0,0.0,0.0,0.0,0.0,0.0,0.0,0.0,0.0,0.0,0.0,0.0,0.0,0.0,0.0,0.0,0.0,0.0,0.0,0.0,0.0,0.0,0.0,0.0,0.0,0.0,0.0,0.0,0.0,0.0,0.0,0.0,0.0,0.0,0.0,0.0,0.0,0.0,0.0,0.0,0.0,0.0,0.0,0.0,0.0,0.0,0.0,0.0,0.0,0.0,0.0,0.0,0.0,0.0,0.0,0.0,0.0,0.0,0.0,0.0,0.0,0.0,0.0,0.0,0.0,0.0,0.0,0.0,0.4908,0.4688,0.4519,0.4301,0.3913,0.3355,0.291,0.0,0.0,0.0,0.0,0.0,0.0,0.0,0.0,0.0,0.0,0.0,0.0,0.0,0.0,0.0,0.0,0.0,0.0,0.0,0.0,0.0,0.0,0.0,0.0,0.0,0.0,0.0,0.0,0.0,0.0,0.0,0.0,0.0,0.0,0.0,0.0,0.0,0.0,0.0,0.0,0.0,0.0,0.0,0.0,0.0,0.0,0.0,0.0,0.9322,0.0,0.0,0.0,0.0,0.0,0.0,0.0,0.0,0.0,0.0,0.0,0.0,0.0,0.0,0.0,0.0,0.0,0.0,0.0,0.0,0.0,0.0,0.0,0.0,0.0,0.0,0.0,0.0,0.0,0.0,0.0,0.0,0.0,0.0,0.0,0.0,0.0,0.0,0.0,0.0,0.0,0.0,0.0,0.0,0.0,0.0,0.0,0.0,0.0,0.0,0.0,0.0,0.0,0.0,0.0,0.0,0.0,0.0,0.0,0.5073,0.4908,0.4849,0.4629,0.4242,0.3855,0.3413,0.0,0.0,0.0,0.0,0.0,0.0,0.0,0.0,0.0,0.0,0.0,0.0,0.0,0.0,0.0,0.0,0.0,0.0,0.0,0.0,0.0,0.0,0.0,0.0,0.0,0.0,0.0,0.0,0.0,0.0,0.0,0.0,0.0,0.0,0.0,0.0,0.0,0.0,0.0,0.0,0.0,0.0,0.0,0.0,0.0,0.0,0.0,0.0,0.0,0.0,0.0,0.0,0.0,0.0,0.0,0.0,0.0,0.0,0.0,0.0,0.0,0.0,0.0,0.0,0.0,0.0,0.0,0.0,0.0,0.0,0.0,0.0,0.0,0.0,0.0,0.0,0.0,0.0,0.0,0.0,0.0,0.0,0.0,0.0,0.0,0.0,0.0,0.0,0.0,0.0,0.0,0.0,0.0,0.0,0.0,0.0,0.0,0.0,0.0,0.0,0.0,0.0,0.0,0.0,0.0,0.0,0.0,0.5462,0.5293,0.5179,0.5128,0.4959,0.4574,0.4411,0.4082,0.3638,0.0,0.0,0.0,0.0,0.0,0.0,0.0,0.0,0.0,0.0,0.0,0.0,0.0,0.0,0.0,0.0,0.0,0.0,0.0,0.0,0.0,0.0,0.0,0.0,0.0,0.0,0.0,0.0,0.0,0.0,0.0,0.0,0.0,0.0,0.0,0.0,0.0,0.0,0.842,0.86,0.0,0.0,0.0,0.0,0.0,0.0,0.0,0.0,0.9819,0.0,0.0,0.0,0.0,0.0,0.0,0.0,0.0,0.0,0.0,0.0,0.0,0.0,0.0,0.0,0.0,0.0,0.0,0.0,0.0,0.0,0.0,0.0,0.0,0.0,0.0,0.0,0.0,0.0,0.0,0.0,0.0,0.0,0.0,0.0,0.0,0.0,0.0,0.0,0.0,0.0,0.0,0.0,0.0,0.0,0.0,0.0,0.0,0.0,0.0,0.0,0.0,0.0,0.0,0.0,0.0,0.5791,0.5626,0.5513,0.5513,0.5238,0.5073,0.5018,0.4743,0.4577,0.4473,0.0,0.0,0.0,0.0,0.0,0.0,0.0,0.0,0.0,0.0,0.0,0.0,0.0,0.0,0.0,0.0,0.0,0.0,0.0,0.0,0.0,0.0,0.0,0.0,0.0,0.0,0.0,0.0,0.0,0.0,0.0,0.0,0.0,0.0,0.0,0.0,0.0,0.0,0.0,0.868,0.877,0.0,0.0,0.0,0.0,0.0,0.0,0.0,0.0,1.0038,0.0,0.0,0.0,0.0,0.0,0.0,0.0,0.0,0.0,0.0,0.0,0.0,0.0,0.0,0.0,0.0,0.0,0.0,0.0,0.0,0.0,0.0,0.0,0.0,0.0,0.0,0.0,0.0,0.0,0.0,0.0,0.0,0.0,0.0,0.0,0.0,0.0,0.0,0.0,0.0,0.0,0.0,0.0,0.0,0.0,0.0,0.0,0.0,0.0,0.0,0.0,0.0,0.0,0.0,0.0,0.59,0.5736,0.5732,0.5681,0.5458,0.5293,0.5187,0.5018,0.4908,0.0,0.0,0.0,0.0,0.0,0.0,0.0,0.0,0.0,0.0,0.0,0.0,0.0,0.0,0.0,0.0,0.0,0.0,0.0,0.0,0.0,0.0,0.0,0.0,0.0,0.0,0.0,0.0,0.0,0.0,0.0,0.0,0.0,0.0,0.0,0.0,0.0,0.0,0.0,0.0,0.8798,0.8907,0.9011,0.0,0.0,0.0,0.0,0.0,0.0,0.9889,1.0038,0.0,0.0,0.0,0.0,0.0,0.0,0.0,0.0,0.0,0.0,0.0,0.0,0.0,0.0,0.0,0.0,0.0,0.0,0.0,0.0,0.0,0.0,0.0,0.0,0.0,0.0,0.0,0.0,0.0,0.0,0.0,0.0,0.0,0.0,0.0,0.0,0.0,0.0,0.0,0.0,0.0,0.0,0.0,0.0,0.0,0.0,0.0,0.0,0.0,0.0,0.0,0.0,0.0,0.0,0.0,0.6114,0.595,0.585,0.5845,0.5732,0.5567,0.5407,0.5293,0.5234,0.0,0.0,0.0,0.0,0.0,0.0,0.0,0.0,0.0,0.0,0.0,0.0,0.0,0.0,0.0,0.0,0.0,0.0,0.0,0.0,0.0,0.0,0.0,0.0,0.0,0.0,0.0,0.0,0.0,0.0,0.0,0.0,0.0,0.0,0.0,0.0,0.0,0.0,0.0,0.0,0.0,0.9058,0.9138,0.9285,0.0,0.0,0.0,0.0,0.9989,1.01,0.0,0.0,0.0,0.0,0.0,0.0,0.0,0.0,0.0,0.0,0.0,0.0,0.0,0.0,0.0,0.0,0.0,0.0,0.0,0.0,0.0,0.0,0.0,0.0,0.0,0.0,0.0,0.0,0.0,0.0,0.0,0.0,0.0,0.0,0.0,0.0,0.0,0.0,0.0,0.0,0.0,0.0,0.0,0.0,0.0,0.0,0.0,0.0,0.0,0.0,0.0,0.0,0.0,0.0,0.0,0.0,0.6327,0.6109,0.6005,0.6005,0.5832,0.5778,0.5736,0.5727,0.5727,0.0,0.0,0.0,0.0,0.0,0.0,0.0,0.0,0.0,0.0,0.0,0.0,0.0,0.0,0.0,0.0,0.0,0.0,0.0,0.0,0.0,0.0,0.0,0.0,0.0,0.0,0.0,0.0,0.0,0.0,0.0,0.0,0.0,0.0,0.0,0.0,0.0,0.0,0.0,0.0,0.0,0.9157,0.9442,0.9513,0.9682,0.0,0.0,0.9989,1.0201,1.0239,0.0,0.0,0.0,0.0,0.0,0.0,0.0,0.0,0.0,0.0,0.0,0.0,0.0,0.0,0.0,0.0,0.0,0.0,0.0,0.0,0.0,0.0,0.0,0.0,0.0,0.0,0.0,0.0,0.0,0.0,0.0,0.0,0.0,0.0,0.0,0.0,0.0,0.0,0.0,0.0,0.0,0.0,0.0,0.0,0.0,0.0,0.0,0.0,0.0,0.0,0.0,0.0,0.0,0.0,0.0,0.649,0.6381,0.6223,0.6114,0.6119,0.6,0.5896,0.59,0.5841,0.5841,0.0,0.0,0.0,0.0,0.0,0.0,0.0,0.0,0.0,0.0,0.0,0.0,0.0,0.0,0.0,0.0,0.0,0.0,0.0,0.0,0.0,0.0,0.0,0.0,0.0,0.0,0.0,0.0,0.0,0.0,0.0,0.0,0.0,0.0,0.0,0.0,0.0,0.0,0.0,0.0,0.0,0.0,0.962,0.9748,0.0,0.0,0.0,1.0295,1.0414,0.0,0.0,0.0,0.0,0.0,0.0,0.0,0.0,0.0,0.0,0.0,0.0,0.0,0.0,0.0,0.0,0.0,0.0,0.0,0.0,0.0,0.0,0.0,0.0,0.0,0.0,0.0,0.0,0.0,0.0,0.0,0.0,0.0,0.0,0.0,0.0,0.0,0.0,0.0,0.0,0.0,0.0,0.0,0.0,0.0,0.0,0.0,0.0,0.0,0.0,0.0,0.0,0.0,0.0,0.0,0.0,0.0,0.6549,0.6391,0.6282,0.6228,0.6168,0.6059,0.6059,0.6005,0.0,0.0,0.0,0.0,0.0,0.0,0.0,0.0,0.0,0.0,0.0,0.0,0.0,0.0,0.0,0.0,0.0,0.0,0.0,0.0,0.0,0.0,0.0,0.0,0.0,0.0,0.0,0.8382,0.0,0.0,0.0,0.0,0.0,0.0,0.0,0.0,0.0,0.0,0.0,0.0,0.0,0.0,0.9583,0.9715,0.9899,1.0088,0.0,0.0,1.0423,1.0622,1.0655,1.0669,0.0,0.0,0.0,0.0,0.0,0.0,0.0,0.0,0.0,0.0,0.0,0.0,0.0,0.0,0.0,0.0,0.0,0.0,0.0,0.0,0.0,0.0,0.0,0.0,0.0,0.0,0.0,0.0,0.0,0.0,0.0,0.0,0.0,0.0,0.0,0.0,0.0,0.0,0.0,0.0,0.0,0.0,0.0,0.0,0.0,0.0,0.0,0.0,0.0,0.0,0.0,0.0,0.0,0.0,0.0,0.6879,0.6761,0.6544,0.6381,0.6381,0.6332,0.6173,0.6277,0.6381,0.0,0.0,0.0,0.0,0.0,0.0,0.0,0.0,0.0,0.0,0.0,0.0,0.0,0.0,0.0,0.0,0.0,0.0,0.0,0.0,0.0,0.0,0.0,0.0,0.0,0.0,0.0,0.0,0.0,0.0,0.0,0.0,0.0,0.0,0.0,0.0,0.0,0.0,0.0,0.0,0.0,0.9715,0.9904,1.0112,1.0258,0.0,0.0,1.0627,1.0839,1.0872,1.0938,1.1123,0.0,0.0,0.0,0.0,0.0,0.0,0.0,0.0,0.0,0.0,0.0,0.0,0.0,0.0,0.0,0.0,0.0,0.0,0.0,0.0,0.0,0.0,0.0,0.0,0.0,0.0,0.0,0.0,0.0,0.0,0.0,0.0,0.0,0.0,0.0,0.0,0.0,0.0,0.0,0.0,0.0,0.0,0.0,0.0,0.0,0.0,0.0,0.0,0.0,0.0,0.0,0.0,0.0,0.6982,0.6879,0.6766,0.6647,0.6598,0.6598,0.6544,0.6495,0.6539,0.6598,0.0,0.0,0.0,0.0,0.0,0.0,0.0,0.0,0.0,0.0,0.0,0.0,0.0,0.0,0.0,0.0,0.0,0.0,0.0,0.0,0.0,0.0,0.0,0.0,0.0,0.0,0.0,0.0,0.8396,0.8478,0.8327,0.0,0.0,0.0,0.0,0.0,0.0,0.0,0.0,0.0,0.0,0.9908,1.0116,1.0225,0.0,0.0,1.0726,1.0844,1.1047,1.1085,1.1104,1.1184,1.1194,0.0,0.0,0.0,0.0,0.0,0.0,0.0,0.0,0.0,0.0,0.0,0.0,0.0,0.0,0.0,0.0,0.0,0.0,0.0,0.0,0.0,0.0,0.0,0.0,0.0,0.0,0.0,0.0,0.0,0.0,0.0,0.0,0.0,0.0,0.0,0.0,0.0,0.0,0.0,0.0,0.0,0.0,0.0,0.0,0.0,0.0,0.0,0.0,0.0,0.0,0.0,0.0,0.7192,0.7095,0.6928,0.6869,0.6815,0.6756,0.6761,0.6707,0.6761,0.6766,0.0,0.0,0.0,0.0,0.0,0.0,0.0,0.0,0.0,0.0,0.0,0.0,0.0,0.0,0.0,0.0,0.0,0.0,0.0,0.0,0.0,0.0,0.0,0.0,0.0,0.0,0.0,0.0,0.8624,0.8697,0.862,0.0,0.0,0.0,0.0,0.0,0.0,0.0,0.0,0.0,0.0,1.0027,1.0239,1.0324,1.049,1.0844,1.0948,1.1033,1.117,1.1194,1.1194,1.1194,0.0,0.0,0.0,0.0,0.0,0.0,0.0,0.0,0.0,0.0,0.0,0.0,0.0,0.0,0.0,0.0,0.0,0.0,0.0,0.0,0.0,0.0,0.0,0.0,0.0,0.0,0.0,0.0,0.0,0.0,0.6829,0.0,0.0,0.0,0.0,0.0,0.0,0.0,0.0,0.0,0.0,0.0,0.0,0.0,0.0,0.0,0.0,0.0,0.0,0.0,0.0,0.0,0.0,0.7467,0.7461,0.7365,0.7203,0.7085,0.6982,0.6825,0.6707,0.6825,0.6879,0.6879,0.0,0.0,0.0,0.0,0.0,0.0,0.0,0.0,0.0,0.0,0.0,0.0,0.0,0.0,0.0,0.0,0.0,0.0,0.0,0.0,0.0,0.0,0.0,0.0,0.0,0.0,0.9006,0.8846,0.8773,0.0,0.0,0.0,0.0,0.0,0.0,0.0,0.0,0.0,0.0,0.9823,1.0119,1.0253,1.0442,1.065,1.0868,1.1061,1.1189,1.1194,1.1194,1.1194,0.0,0.0,0.0,0.0,0.0,0.0,0.0,0.0,0.0,0.0,0.0,0.0,0.0,0.0,0.0,0.0,0.0,0.0,0.0,0.0,0.0,0.0,0.0,0.0,0.0,0.0,0.0,0.7565,0.7391,0.0,0.0,0.0,0.0,0.0,0.0,0.0,0.0,0.0,0.0,0.0,0.8995,0.9001,0.0,0.0,0.0,0.0,0.0,0.0,0.0,0.0,0.0,0.0,0.0,0.0,0.7842,0.7622,0.7568,0.7461,0.7252,0.7209,0.7149,0.6972,0.7031,0.709,0.7149,0.0,0.0,0.0,0.0,0.0,0.0,0.0,0.0,0.0,0.0,0.0,0.0,0.0,0.0,0.0,0.0,0.0,0.0,0.0,0.0,0.0,0.0,0.0,0.0,0.0,0.9446,0.0,0.0,0.0,0.0,0.0,0.0,0.0,0.0,0.0,0.0,0.0,0.9748,1.0027,1.0121,1.0291,1.0641,1.0745,1.0858,0.0,0.0,0.0,0.0,0.0,0.0,0.0,0.0,0.0,0.0,0.0,0.0,0.0,0.0,1.5034,1.5933,1.6708,1.733,1.764,0.0,0.0,0.0,0.0,0.0,0.0,0.0,0.0,0.0,0.0,0.0,0.0,0.0,0.0,0.0,0.0,0.8556,0.0,0.0,0.0,0.0,0.0,0.0,0.0,0.0,0.9263,0.9204,0.9204,0.9204,0.9159,0.0,0.885,0.8646,0.0,0.0,0.0,0.0,0.0,0.0,0.0,0.0,0.8209,0.8043,0.7943,0.7735,0.7526,0.7478,0.7365,0.7246,0.7246,0.7246,0.7365,0.7467,0.7715,0.0,0.0,0.0,0.0,0.0,0.0,0.0,0.0,0.0,0.0,0.0,0.0,0.0,0.0,0.0,0.0,0.0,0.0,0.0,0.0,0.0,0.0,0.0,0.9681,0.0,0.0,0.0,0.0,0.0,0.0,0.0,0.0,0.0,0.9649,0.9771,0.9965,1.0239,1.0334,1.0504,1.0849,0.0,0.0,0.0,0.0,0.0,0.0,0.0,1.1302,1.1307,1.1482,1.1749,1.223,1.2766,1.3304,1.3909,0.0,0.0,1.5948,1.6714,1.7441,1.786,1.8275,1.8503,1.8621,1.8811,1.8957,0.0,0.0,0.0,0.0,0.0,0.0,0.0,0.0,0.9761,0.9865,0.0,0.9864,0.0,0.0,0.0,0.0,0.0,0.9569,0.0,0.0,0.9361,0.9263,0.9263,0.9256,0.9211,0.9211,0.8962,0.8857,0.8811,0.8434,0.0,0.0,0.0,0.0,0.0,0.0,0.8626,0.8573,0.8374,0.8115,0.7901,0.7687,0.7521,0.7521,0.7521,0.7521,0.7521,0.7521,0.7635,0.7886,0.8143,0.0,0.0,0.0,0.0,0.0,0.0,0.0,0.0,0.0,0.0,0.0,0.0,0.0,0.0,0.0,0.0,0.0,0.0,0.0,0.0,0.9933,0.0,0.0,0.0,0.0,0.0,0.0,0.0,0.0,0.0,0.0,0.9686,1.0012,1.0282,1.0301,0.0,0.0,0.0,0.0,1.0976,1.1165,1.1194,1.1198,1.1208,1.1383,1.1515,1.1524,0.0,0.0,1.2836,1.3193,1.3694,1.4787,1.5244,1.5523,1.5565,1.6491,1.7365,1.7925,1.8513,1.8928,1.9206,1.9301,1.933,1.3116,0.0,0.0,0.0,0.0,1.1427,1.1444,1.1423,1.1305,1.1166,1.1113,1.1241,0.0,0.0,0.0,0.0,0.0,0.0,1.0257,1.0102,1.0095,1.0102,0.9999,0.9999,0.9895,0.974,0.9584,0.9375,0.9113,0.8949,0.8745,0.8374,0.0,0.0,0.0,0.0,0.8949,0.8896,0.8699,0.854,0.8268,0.7949,0.7741,0.7639,0.7628,0.7676,0.7676,0.7735,0.7913,0.8167,0.8317,0.0,0.0,0.0,0.0,0.0,0.0,0.0,0.0,0.0,0.0,0.0,0.0,0.0,0.0,0.0,0.0,0.0,0.0,0.0,1.0169,1.0191,1.0256,0.0,0.0,0.0,0.0,0.0,0.0,0.0,0.0,0.0,1.0357,1.0459,1.0562,0.0,0.0,1.0877,1.108,1.1109,1.1132,1.1189,0.0,0.0,0.0,1.1477,1.1567,1.1709,1.1907,1.2221,1.2856,1.3111,1.3614,1.4609,1.531,1.5964,1.6652,1.7298,1.7811,1.8289,1.8891,1.9499,1.9608,1.9791,1.9959,1.7872,1.6383,1.4862,1.4031,1.3702,1.3563,1.3398,1.3233,1.2968,1.2827,1.2672,1.2731,1.2488,1.212,1.1938,0.0,0.0,0.0,1.0913,1.0726,1.0718,1.0667,1.0522,1.0514,1.0462,1.0352,1.0154,0.9895,0.9681,0.9569,0.9354,0.9047,0.0,0.0,0.9173,0.9382,0.9375,0.933,0.9166,0.9001,0.8738,0.8368,0.8156,0.8062,0.7996,0.799,0.799,0.8002,0.8081,0.8239,0.8387,0.8534,0.0,0.0,0.0,0.0,0.0,0.0,0.0,0.0,0.0,0.0,0.0,0.9712,0.0,0.0,0.0,0.0,0.9703,0.9932,1.0406,1.0433,0.0,0.0,0.0,0.0,0.0,0.0,0.0,1.1112,1.1332,1.1333,1.1146,1.1161,1.1071,1.0958,1.0962,1.1061,1.1179,0.0,1.1194,1.1194,1.1269,1.1368,1.1501,1.1657,1.1831,1.203,1.2167,1.2397,1.296,1.3207,1.3723,1.4686,1.5418,1.627,1.7309,1.7958,1.8479,1.8793,1.937,1.9938,1.9952,2.0106,2.0237,2.1828,2.1857,1.8446,1.6651,1.6048,1.566,1.5411,1.527,1.4821,1.4612,1.4664,1.4272,1.392,1.3457,1.2803,0.0,1.2017,1.1859,1.161,1.1368,1.1267,1.1175,1.1023,1.1023,1.1023,1.0972,1.0659,1.0498,1.0446,1.0226,1.0123,1.0123,0.9614,0.9524,0.9844,0.9851,0.9903,0.9851,0.9725,0.951,0.9263,0.8837,0.8633,0.8626,0.8474,0.8427,0.8421,0.8268,0.8215,0.8228,0.8312,0.8468,0.8727,0.0,0.0,0.0,0.0,0.0,0.0,0.0,0.0,0.0,0.0,0.0,0.0,0.0,0.0,0.0,0.9854,0.0,1.0557,1.0578,0.0,0.0,0.0,1.1036,1.1042,1.1445,1.1725,1.1725,0.0,0.0,1.2005,0.0,1.1772,1.1015,1.1075,1.1194,1.1194,1.1194,1.1194,1.1194,1.1359,1.1496,1.1562,1.1888,1.22,1.237,1.2441,1.2649,1.3202,1.3423,1.3946,1.5142,1.5742,1.638,1.7753,1.8464,1.9064,1.9374,1.9828,2.0274,2.0274,2.0325,2.0377,2.2867,2.3276,2.2421,2.1032,1.9389,1.8774,1.8223,1.7671,1.6943,1.6472,1.6157,1.566,1.5039,1.4376,1.3909,1.3521,1.3198,1.2957,1.2628,1.2276,1.2276,1.2089,1.1909,1.1909,1.1859,1.1828,1.1619,1.1418,1.1217,1.1065,1.1057,1.1108,1.0913,1.0616,1.0308,1.0411,1.0462,1.0462,1.03,0.9984,0.951,0.9204,0.9001,0.8896,0.8804,0.8639,0.858,0.8521,0.8474,0.8381,0.8477,0.8689,0.8903,0.9041,0.0,0.0,0.0,0.0,0.0,0.0,0.0,0.0,0.0,0.9922,0.9922,0.0,0.9647,0.0,0.9697,0.9917,1.0299,1.0486,0.0,0.0,1.1305,1.1526,1.1532,1.1785,1.1968,1.1962,1.2178,1.2256,1.2031,1.2182,1.2098,1.1516,1.1458,1.1389,1.1194,1.1194,1.1194,1.1198,1.125,1.1383,1.1713,1.2096,1.238,1.2432,1.2663,1.2881,1.3212,1.3743,1.425,1.524,1.6077,1.6948,1.7864,1.8861,1.9689,2.0053,2.0388,2.0611,2.0611,2.0794,2.0969,2.2627,2.3566,2.3925,2.3398,2.2263,2.1275,2.0434,1.9688,1.8884,1.8242,1.769,1.6822,1.6108,1.5431,1.5073,1.471,1.4307,1.405,1.3768,1.3369,1.3331,1.3208,1.3016,1.2967,1.2871,1.2832,1.2598,1.2403,1.2246,1.1999,1.1891,1.1999,1.1868,1.1728,1.141,1.1175,1.1074,1.1065,1.0761,1.0506,1.019,0.9784,0.9472,0.9368,0.9159,0.8956,0.8791,0.8738,0.8633,0.8533,0.8635,0.8802,0.8955,0.9168,0.9369,0.0,0.0,0.0,0.0,0.0,0.0,0.0,0.0,0.0,0.0,0.0,0.9757,0.9771,0.9814,0.9981,1.0534,1.0813,1.1094,1.1319,1.1715,1.2035,1.2035,1.2334,1.2575,1.2581,1.2797,1.2857,1.2666,1.2678,1.257,1.2175,1.2078,1.1785,1.1292,1.1194,1.1194,1.1194,1.1279,1.1482,1.1898,1.2259,1.2558,1.2639,1.2876,1.3207,1.3635,1.3954,1.457,1.5563,1.6393,1.7251,1.8183,1.9147,1.9835,2.019,2.0521,2.0772,2.0911,2.1086,2.1211,2.1558,2.3028,2.3896,2.435,2.442,2.3215,2.2238,2.1444,2.0681,1.9888,1.906,1.7968,1.7165,1.6621,1.628,1.5903,1.5443,1.5197,1.4915,1.4562,1.4468,1.434,1.4201,1.4097,1.4003,1.3956,1.3589,1.3409,1.3351,1.2957,1.2812,1.2812,1.2706,1.2715,1.2822,1.2116,1.1669,1.1628,1.1226,1.1023,1.1023,1.0411,1.0043,0.9925,0.9673,0.9368,0.9113,0.8962,0.8798,0.8639,0.8738,0.8915,0.902,0.9282,0.9556,0.0,1.0182,0.0,0.0,0.0,0.0,0.0,0.0,0.0,0.0,1.015,1.0043,1.009,1.0025,1.0284,1.0942,1.1227,1.1447,1.1747,1.2139,1.2459,1.2556,1.3048,1.3297,1.3391,1.3498,1.3539,1.3528,1.334,1.305,1.2861,1.2662,1.2273,1.1585,1.1389,1.1292,1.1296,1.1477,1.1716,1.203,1.2375,1.2703,1.2891,1.3146,1.3604,1.4056,1.4385,1.4775,1.594,1.6748,1.761,1.8653,1.9262,1.9859,2.0077,2.042,2.0728,2.102,2.1159,2.1211,1.9955,2.1687,2.297,2.3882,2.4503,2.4453,2.3919,2.3017,2.2156,2.1092,1.989,1.925,1.8664,1.8076,1.7679,1.73,1.687,1.6446,1.6145,1.5903,1.5684,1.5475,1.532,1.5276,1.5141,1.488,1.4663,1.4468,1.4226,1.3909,1.3779,1.3873,1.3563,1.3478,1.3573,0.0,0.0,0.0,1.1778,1.1528,1.1519,1.1015,1.0667,1.0506,1.0308,0.0,0.951,0.9361,0.9166,0.8962,0.8976,0.0,0.0,0.0,0.0,0.0,0.0,0.0,0.0,0.0,0.0,0.0,1.0857,1.0723,1.0573,1.0372,1.0343,1.056,1.0408,1.0502,1.0992,1.1227,1.16,1.1968,1.2477,1.2907,1.3281,1.3584,1.3837,1.4034,1.398,1.3811,1.3811,1.3624,1.3346,1.3147,1.2953,1.2759,1.2273,1.1975,1.1883,1.1893,1.1964,1.2133,1.2233,1.2397,1.268,1.2971,1.336,1.3853,1.4223,1.503,1.5565,1.6083,1.6813,1.7689,1.8088,1.8807,1.9535,1.985,2.0113,2.042,2.075,2.102,2.1211,1.831,0.0,2.185,2.3095,0.0,2.4579,2.4629,2.4292,2.3447,2.2328,2.1075,2.0575,2.0042,1.9489,1.9023,1.8589,1.8168,1.7706,1.7354,1.719,1.6886,1.6646,1.6532,1.6391,1.6188,1.5952,1.57,1.5499,1.5264,1.488,1.4709,1.4766,1.4351,1.4176,1.4186,1.3705,1.319,1.248,1.2224,1.2026,1.1868,1.1519,1.1175,1.0922,0.0,0.0,0.0,0.0,0.0,0.0,0.0,0.0,0.0,0.0,0.0,1.0227,1.0254,1.0502,1.0882,1.0891,1.1059,1.1225,1.1356,1.1238,1.0826,1.0678,1.0661,1.0787,1.0725,1.0815,1.1302,1.1699,1.2005,1.2412,1.3102,1.3631,1.3921,1.4398,1.4669,1.4682,1.4675,1.458,1.449,1.4304,1.4022,1.3721,1.3619,1.3335,1.2953,1.2467,1.2175,1.2083,1.2061,1.2198,1.2309,1.2496,1.2756,1.3174,1.364,1.4179,1.4718,1.5488,1.6211,1.663,1.7477,1.8115,1.845,1.8893,1.9317,1.955,1.9777,2.0033,2.0245,2.0633,2.0969,1.6688,1.884,2.0649,2.2141,2.3414,2.4231,2.4818,2.5155,0.0,0.0,0.0,2.1904,2.1351,2.0783,2.0309,1.9847,1.9381,1.8896,1.8584,1.8366,1.8052,1.7854,1.7733,1.7531,1.7286,1.7034,1.6727,1.6471,1.633,1.5864,1.5623,1.549,1.5119,1.4858,1.4616,1.4197,1.3631,1.2968,1.2725,1.248,1.2224,1.1977,1.1628,1.1267,1.0981,1.0581,1.006,0.9903,0.9749,0.9632,0.9937,1.0044,0.9992,1.0089,1.0301,1.0617,1.0534,1.0633,1.1218,1.1254,1.1423,1.1724,1.1957,1.1821,1.1176,1.1089,1.1097,1.1148,1.1074,1.1271,1.1805,1.2186,1.2603,1.2947,1.3796,1.4388,1.458,1.5057,1.5445,1.5363,1.5445,1.5439,1.5261,1.4975,1.4783,1.4484,1.4292,1.401,1.3727,1.3147,1.2565,1.237,1.2396,1.2351,1.2496,1.2746,1.3036,1.3469,1.3979,1.4654,1.5401,1.6101,1.6778,1.7477,1.8115,1.8541,1.8869,1.9085,1.9272,1.9272,1.9484,1.9674,1.9725,2.0142,2.0545,1.5203,1.7396,1.9316,2.1046,2.2558,2.364,2.4551,2.5234,2.4678,2.4097,2.3515,2.3079,2.2521,2.1961,2.152,2.1036,2.0522,2.0066,1.9733,0.0,1.92,1.8962,1.8812,1.8626,1.8422,1.8094,1.776,1.7422,1.7146,1.6782,1.6539,1.6293,1.5976,1.549,1.4915,1.4605,1.4255,1.3821,1.32,1.2871,1.2783,1.2431,1.2085,1.1778,1.1427,1.1174,1.1014,1.0792,1.0561,1.0457,1.066,1.0615,1.0369,1.0463,1.0692,1.0953,1.088,1.1128,1.1816,1.1861,1.2024,1.2349,1.2449,1.2218,1.1677,1.1424,1.1348,1.1583,1.1442,1.1615,1.2202,1.2587,1.297,1.3628,1.4076,1.4586,1.5445,1.573,1.592,1.6305,1.6197,1.6096,1.6008,1.5629,1.535,1.5255,1.5064,1.479,1.4502,1.3829,1.3346,1.3346,1.3249,1.3266,1.3322,1.3402,1.3509,1.3823,1.4301,1.4897,1.5669,1.642,1.7184,1.7857,1.8401,1.8743,1.8966,1.9078,1.9279,1.9279,1.9352,1.9374,1.9389,1.9681,1.9989,1.3998,1.625,1.8196,2.0044,2.1786,2.3489,2.4606,2.5212,2.5069,2.4753,2.4324,2.3969,2.3508,2.2994,2.259,2.215,2.1657,2.1193,2.0799,2.0503,2.0181,1.9939,1.9707,1.9558,1.9332,1.893,1.8664,1.833,1.8001,1.768,1.7394,1.7144,1.6625,1.6064,1.54,1.5372,1.5182,1.4814,1.3841,1.3238,1.3055,1.2764,1.2575,1.254,1.2142,1.1913,1.1923,1.1595,1.1368,1.1128,1.1234,1.1218,1.1088,1.0982,1.1196,1.1642,1.1491,1.1683,1.2418,1.2601,1.2878,1.3317,1.3292,1.3163,1.2772,1.2186,1.1919,1.2018,1.1977,1.2173,1.2734,1.2986,1.3414,1.4088,1.458,1.5153,1.592,1.6393,1.6676,1.6958,1.7052,1.6958,1.6857,1.6487,1.6204,1.6103,1.5737,1.5458,1.5356,1.4968,1.4496,1.4106,1.3919,1.3919,1.3919,1.3919,1.4069,1.4279,1.4802,1.5369,1.6047,1.6774,1.753,1.8114,1.8611,1.889,1.9013,1.9175,1.9279,1.9272,1.9272,1.9272,1.9301,1.9508,1.9864,1.2922,1.5222,1.721,1.9276,2.1454,2.3409,2.4568,2.5084,2.5278,2.5224,2.4951,2.4683,2.4313,2.3915,2.3533,2.3106,2.2659,2.2201,2.1811,2.1486,2.1149,2.0846,2.0567,2.0413,2.0139,1.9773,1.9464,1.9199,1.8884,1.8535,1.8185,1.7814,1.7242,1.6688,1.6303,1.624,1.6138,1.5836,1.4827,1.4056,1.3667,1.3441,1.3371,1.3336,1.301,1.2842,1.2844,1.2518,1.2233,1.2047,1.196,1.1904,1.1849,1.1622,1.1774,1.2349,1.2173,1.2381,1.3128,1.3407,1.3762,1.4241,1.423,1.4123,1.3895,1.3341,1.2835,1.2683,1.2586,1.2789,1.3318,1.3528,1.3919,1.449,1.5153,1.5724,1.6379,1.6951,1.7333,1.7426,1.7714,1.7714,1.7527,1.7254,1.7059,1.677,1.6393,1.6109,1.6116,1.6116,1.5737,1.5064,1.4682,1.449,1.4496,1.4496,1.4592,1.4783,1.5236,1.5791,1.6404,1.7078,1.7704,1.8196,1.8477,1.8752,1.8986,1.9038,1.9016,1.8994,1.9045,1.9177,1.9264,1.9487,1.9814,1.1932,1.412,1.6233,1.8989,2.1919,2.3243,2.4124,2.4745,2.5161,2.5386,2.5371,2.515,2.4878,2.4596,2.4238,2.3874,2.3454,2.3058,2.2678,2.2361,2.2051,2.1718,2.1385,2.115,2.0829,2.0514,2.0193,1.9949,1.9666,1.9391,1.893,1.8341,1.7854,1.7657,1.7643,1.7177,1.7022,1.7146,1.6523,1.5853,1.5049,1.4748,1.4508,1.4274,1.3869,1.3744,1.3922,1.3525,1.3299,1.3296,1.3045,1.2826,1.2674,1.2367,1.2538,1.3114,1.3042,1.3264,1.4117,1.4369,1.4556,1.4733,1.4843,1.4847,1.4684,1.4559,1.413,1.3638,1.3223,1.3361,1.4028,1.4202,1.4484,1.5153,1.5629,1.6109,1.6951,1.7239,1.752,1.7986,1.8087,1.8079,1.7994,1.7815,1.7535,1.7333,1.7145,1.7052,1.6878,1.6878,1.6784,1.6298,1.5818,1.535,1.5172,1.4987,1.5172,1.535,1.556,1.6081,1.6753,1.7147,1.7588,1.8065,1.8251,1.8379,1.8423,1.8394,1.8438,1.8562,1.8701,1.8913,1.9273,1.9546,1.9821,1.132,1.3455,1.5421,1.8186,2.1246,2.2551,2.3531,2.4364,2.4803,2.5136,2.5362,2.5312,2.5192,2.5043,2.4791,2.4489,2.4118,2.3694,2.3343,2.3003,2.2695,2.2351,2.2034,2.1803,2.1521,2.1181,2.091,2.0648,2.0296,1.9899,1.9507,1.9147,1.9034,1.8851,1.8609,1.8662,1.863,1.8436,1.8208,1.7786,1.7089,1.5879,1.5279,1.5349,1.4884,1.4763,1.4926,1.458,1.4245,1.4094,1.3821,1.358,1.3415,1.3285,1.3418,1.404,1.4443,1.4735,1.4974,1.5204,1.5433,1.5651,1.5501,1.5518,1.573,1.5367,1.5137,1.5019,1.4295,1.4031,1.4665,1.4772,1.5057,1.5717,1.6197,1.6763,1.7426,1.7815,1.8187,1.8458,1.855,1.8542,1.8458,1.828,1.8102,1.7807,1.78,1.7707,1.7628,1.7628,1.7527,1.7246,1.6958,1.6581,1.6109,1.6021,1.6021,1.6109,1.6298,1.6774,1.6933,1.7253,1.7545,1.7962,1.8006,1.8101,1.8313,1.8299,1.8306,1.8321,1.8357,1.8599,1.8921,1.9396,1.9763,1.0847,1.2934,1.5201,1.7866,2.0544,2.1804,2.2888,2.3839,2.4401,2.4828,2.5148,2.5315,2.5365,2.5336,2.5181,2.4939,2.4643,2.4275,2.395,2.362,2.3305,2.2972,2.2617,2.2429,2.2153,2.182,2.1552,2.126,2.0894,2.0499,2.0235,2.0197,2.0205,2.0096,1.9936,2.0188,2.0072,1.9752,1.9597,1.9331,1.8672,1.7288,1.6477,1.6472,1.5946,1.5767,1.5921,1.5488,1.5128,1.4883,1.4597,1.4369,1.413,1.4168,1.4506,1.5055,1.5669,1.6053,1.5921,1.5982,1.6166,1.6427,1.6186,1.6238,1.6472,1.6221,1.6145,1.6431,1.5676,1.5205,1.5436,1.5478,1.5812,1.6553,1.6951,1.7426,1.7908,1.8288,1.8574,1.8735,1.8735,1.8827,1.8735,1.8651,1.8465,1.8365,1.8272,1.828,1.8187,1.8187,1.8094,1.79,1.7815,1.7527,1.6958,1.6683,1.6777,1.6777,1.6871,1.6979,1.7073,1.7246,1.734,1.7662,1.7669,1.7713,1.7845,1.7962,1.8101,1.8145,1.8182,1.8277,1.8699,1.9152,1.9605,1.0444,1.2657,1.5973,1.8236,1.984,2.1108,2.2209,2.3173,2.3895,2.442,2.4822,2.5158,2.5356,2.5476,2.5398,2.5282,2.5037,2.4769,2.4495,2.4229,2.3903,2.3544,2.3165,2.2985,2.2677,2.2303,2.2124,2.1807,2.137,2.1262,2.1309,2.1537,2.1182,2.1353,2.1821,2.1468,2.113,2.1027,2.0607,2.0156,1.9747,1.9113,1.8324,1.7544,1.7079,1.6856,1.6694,1.6161,1.5874,1.5816,1.541,1.5069,1.4989,1.5149,1.5603,1.6156,1.6583,1.683,1.683,1.683,1.6857,1.6842,1.6839,1.7005,1.7269,1.7149,1.7192,1.7529,1.7215,1.6906,1.675,1.6442,1.6629,1.7453,1.7606,1.7878,1.8381,1.8566,1.8566,1.8735,1.8827,1.8827,1.8827,1.8827,1.8735,1.8735,1.8735,1.8643,1.8473,1.8481,1.8381,1.8187,1.8087,1.79,1.7426,1.7246,1.7153,1.7246,1.7246,1.716,1.7246,1.7333,1.7355,1.7362,1.7507,1.7522,1.7391,1.7465,1.7611,1.7713,1.7816,1.8074,1.8565,1.8905,1.9391,1.0948,1.3601,1.5842,1.7611,1.895,2.0231,2.1394,2.241,2.3231,2.3876,2.4423,2.481,2.513,2.5369,2.5449,2.54,2.5275,2.5051,2.4835,2.4595,2.4318,2.3984,2.3638,2.341,2.3146,2.2875,2.2677,2.2337,2.2036,2.233,2.2442,2.2375,2.2695,2.2917,2.2864,2.2714,2.2419,2.2021,2.1527,2.1055,2.0597,2.0194,1.9683,1.8951,1.805,1.7523,1.7379,1.6807,1.6467,1.6467,1.5999,1.57,1.5654,1.6023,1.6456,1.6958,1.7273,1.7442,1.7442,1.7323,1.7254,1.7263,1.7158,1.7284,1.7542,1.771,1.7867,1.8022,1.831,1.836,1.8184,1.7541,1.7295,1.7962,1.8229,1.8422,1.8864,1.912,1.922,1.9304,1.9204,1.9012,1.9004,1.892,1.8827,1.8827,1.8827,1.8735,1.8743,1.8743,1.8651,1.855,1.855,1.845,1.8357,1.79,1.7714,1.78,1.7807,1.7714,1.7807,1.7707,1.7815,1.7729,1.7707,1.7707,1.7643,1.7463,1.7544,1.7653,1.7749,1.7992,1.852,1.8766,1.9244,1.1661,1.41,1.5608,1.6972,1.8254,1.9465,2.0574,2.162,2.2522,2.3267,2.3875,2.4393,2.4784,2.513,2.5305,2.5422,2.5414,2.5247,2.5101,2.4917,2.4674,2.4403,2.4099,2.3824,2.3584,2.3312,2.3028,2.2677,2.2466,2.3051,2.3293,2.316,2.3918,2.4196,2.3951,2.386,2.3478,2.2965,2.2434,2.1969,2.1479,2.1091,2.0709,2.0144,1.9202,1.8429,1.8096,1.7479,1.7145,1.7054,1.6831,1.6753,1.6896,1.7133,1.7486,1.7905,1.8024,1.8046,1.8056,1.793,1.7803,1.7803,1.7676,1.7691,1.8029,1.825,1.8499,1.89,1.9053,1.9325,1.938,1.8688,1.8247,1.8764,1.8831,1.8987,1.9405,1.9479,1.9579,1.9579,1.9387,1.9296,1.9296,1.9196,1.9104,1.9012,1.902,1.902,1.892,1.8912,1.8912,1.8835,1.8735,1.8735,1.8643,1.8365,1.8187,1.8187,1.8079,1.8087,1.8179,1.8179,1.8179,1.8087,1.8087,1.7994,1.79,1.7707,1.7714,1.7815,1.786,1.8082,1.8479,1.8714,1.912,1.2492,1.405,1.5299,1.6476,1.7639,1.8792,1.9813,2.0767,2.1773,2.2565,2.3244,2.3875,2.4391,2.4796,2.5071,2.5279,2.5434,2.5388,2.5324,2.5197,2.4979,2.4743,2.447,2.4229,2.3941,2.3649,2.323,2.2919,2.2859,2.3504,2.3973,2.4258,2.4729,2.5089,2.5335,2.4776,2.4338,2.3752,2.329,2.283,2.2328,2.186,2.1444,2.0979,2.0421,1.9759,1.894,1.8259,1.7877,1.7801,1.7876,1.8284,1.8573,1.849,1.8557,1.8909,1.8931,1.8808,1.8808,1.8617,1.8472,1.8472,1.8405,1.8438,1.8765,1.8934,1.929,1.9881,1.9987,2.0031,2.0333,1.9929,1.9661,1.9913,1.9528,1.9538,1.9777,1.9754,1.9587,1.9679,1.9587,1.9587,1.9587,1.9487,1.9487,1.9487,1.9487,1.9396,1.9196,1.9196,1.9104,1.892,1.8827,1.892,1.8827,1.8735,1.8658,1.8566,1.8365,1.8265,1.8272,1.8272,1.8365,1.8272,1.828,1.8187,1.8087,1.7994,1.7994,1.8094,1.8102,1.8202,1.8458,1.8738,1.8957,1.2374,1.3647,1.4709,1.5776,1.6828,1.7972,1.8993,1.9897,2.0926,2.1831,2.2591,2.3289,2.3895,2.4425,2.4777,2.506,2.529,2.5395,2.5439,2.5376,2.5186,2.4989,2.4766,2.4567,2.4229,2.3858,2.3508,2.3525,2.3967,2.4776,2.534,2.5518,2.5897,2.5977,2.5795,2.5384,2.4902,2.4379,2.3879,2.3391,2.295,2.2649,2.2296,2.1841,2.1492,2.1179,2.0901,1.9474,1.8802,1.8966,1.8782,1.8854,1.9324,1.9198,1.9297,1.9705,1.966,1.9528,1.9462,1.9253,1.9121,1.9198,1.9121,1.9116,1.937,1.9766,2.0184,2.0719,2.0886,2.1195,2.1435,2.1175,2.0731,2.0228,2.0032,2.0008,2.0315,2.0399,2.0283,2.0119,1.9936,1.9853,1.9754,1.9762,1.9679,1.9671,1.9679,1.9579,1.9487,1.9479,1.9387,1.9104,1.9104,1.9012,1.9012,1.8928,1.8928,1.8751,1.8651,1.8458,1.8458,1.8458,1.8458,1.8458,1.8373,1.8381,1.8373,1.828,1.8272,1.828,1.8388,1.8473,1.8651,1.8822,1.8949,1.2374,1.3505,1.4433,1.5344,1.6269,1.734,1.8313,1.9207,2.0169,2.11,2.1945,2.2642,2.3334,2.3932,2.4377,2.4737,2.5058,2.5255,2.5402,2.5458,2.5393,2.5213,2.5019,2.4733,2.4405,2.4039,2.3732,2.3912,2.4504,2.535,2.5893,2.613,2.661,2.6641,2.626,2.5868,2.5427,2.502,2.4583,2.4131,2.3736,2.3435,2.3054,2.2646,2.2489,2.2367,2.2214,2.1095,2.0416,2.0213,1.9828,1.9897,2.0336,2.0239,2.0184,2.0406,2.0377,2.0248,2.0248,1.9977,1.9846,1.9911,1.9846,1.9846,2.0042,2.0445,2.0884,2.1472,2.1659,2.2042,2.2477,2.2176,2.1712,2.1076,2.0618,2.0512,2.0643,2.0713,2.0676,2.0486,2.0464,2.0283,2.0201,2.0119,1.9945,1.9945,1.9853,1.9762,1.9762,1.9662,1.9571,1.9479,1.9387,1.9296,1.9112,1.9112,1.9112,1.902,1.8928,1.8735,1.8735,1.8643,1.8735,1.8643,1.8643,1.855,1.855,1.855,1.8458,1.8566,1.8574,1.8658,1.8735,1.8735,1.8939,1.257,1.3457,1.4329,1.5164,1.6032,1.6883,1.7747,1.8636,1.957,2.0454,2.1271,2.2046,2.2735,2.337,2.3892,2.4344,2.4742,2.4988,2.5232,2.5391,2.5445,2.5385,2.5226,2.4845,2.4508,2.4229,2.4051,2.427,2.4873,2.5506,2.5858,2.651,2.6947,2.6989,2.6674,2.6315,2.598,2.5684,2.5307,2.4902,2.4567,2.4158,2.3694,2.329,2.3409,2.3373,2.3119,2.3008,2.2495,2.1568,2.1114,2.1185,2.1522,2.1463,2.125,2.1221,2.1094,2.1031,2.0955,2.0816,2.07,2.0775,2.0688,2.07,2.0786,2.0982,2.1422,2.2151,2.224,2.2529,2.3218,2.3139,2.2713,2.2305,2.148,2.0926,2.0743,2.082,2.0853,2.0944,2.0962,2.0916,2.0744,2.0753,2.0572,2.0391,2.0292,2.0209,2.0019,1.9928,1.9845,1.9762,1.9662,1.9487,1.9387,1.9304,1.9304,1.9304,1.9204,1.902,1.892,1.8827,1.8827,1.8827,1.8727,1.8727,1.8727,1.8643,1.8643,1.8743,1.8743,1.8827,1.8827,1.8827,1.8851,1.255,1.3314,1.4129,1.4915,1.568,1.6527,1.7284,1.8094,1.9029,1.9869,2.0701,2.1472,2.219,2.2888,2.337,2.3873,2.4346,2.4714,2.4977,2.5216,2.5418,2.5408,2.5277,2.4974,2.4708,2.4549,2.4764,2.5257,2.5801,2.6312,2.6926,2.7511,2.7442,2.7355,2.7036,2.6757,2.6436,2.6137,2.5795,2.5406,2.5059,2.4759,2.4338,2.3955,2.4164,2.4329,2.4324,2.451,2.3955,2.2559,2.2374,2.236,2.2384,2.2161,2.2037,2.1925,2.1862,2.1874,2.1788,2.1639,2.1651,2.1737,2.1651,2.1651,2.1737,2.1675,2.2004,2.2514,2.2689,2.2995,2.3546,2.3754,2.3559,2.3045,2.2159,2.1538,2.148,2.1447,2.1423,2.1379,2.1432,2.14,2.1257,2.1203,2.1024,2.0744,2.0564,2.0564,2.0292,2.0201,2.0201,1.9928,1.9845,1.9754,1.9671,1.9579,1.9579,1.9579,1.9487,1.9387,1.9104,1.892,1.8827,1.8827,1.8827,1.8827,1.8827,1.8735,1.8827,1.8827,1.8827,1.8827,1.8827,1.8827,1.8827,1.2657,1.3362,1.4129,1.488,1.5591,1.6324,1.7018,1.7747,1.8563,1.9398,2.0196,2.0894,2.1639,2.2334,2.2845,2.3348,2.3873,2.431,2.4662,2.5009,2.5356,2.5429,2.5298,2.5107,2.493,2.4806,2.5278,2.5795,2.6355,2.6982,2.7554,2.7995,2.795,2.7719,2.7444,2.7178,2.6906,2.6607,2.6297,2.5977,2.5594,2.5307,2.5155,2.4958,2.519,2.5422,2.5675,2.5661,2.5025,2.3936,2.3495,2.3318,2.3017,2.2909,2.2726,2.2616,2.2604,2.2592,2.2543,2.2457,2.2457,2.2543,2.2396,2.2408,2.242,2.2309,2.2464,2.3007,2.3227,2.355,2.3943,2.4247,2.4154,2.3773,2.3091,2.2444,2.208,2.1922,2.1845,2.1824,2.1892,2.2001,2.1581,2.1701,2.1544,2.1212,2.1024,2.0835,2.0645,2.0645,2.0555,2.0374,2.0292,2.0209,2.0119,2.0027,1.9936,1.9936,1.9762,1.9662,1.9379,1.9096,1.892,1.8827,1.8827,1.8827,1.8827,1.8827,1.8827,1.8827,1.8827,1.8827,1.8827,1.8827,1.8827,1.2852,1.3467,1.4244,1.4983,1.5635,1.625,1.6837,1.7557,1.8266,1.8983,1.9737,2.0348,2.107,2.1728,2.2279,2.2838,2.3352,2.3833,2.436,2.4809,2.5239,2.5444,2.5407,2.5282,2.5228,2.5264,2.563,2.6247,2.6921,2.746,2.7919,2.8322,2.8309,2.8101,2.7858,2.7607,2.7382,2.7132,2.6841,2.6522,2.6175,2.5901,2.5815,2.6005,2.6318,2.6641,2.6737,2.6587,2.5918,2.5034,2.4536,2.4073,2.3747,2.3569,2.339,2.3258,2.321,2.315,2.3138,2.3138,2.3138,2.3078,2.303,2.2982,2.2909,2.28,2.2899,2.3376,2.3839,2.4147,2.4614,2.4673,2.4659,2.449,2.3982,2.3359,2.2825,2.236,2.2239,2.2219,2.2575,2.2467,2.2188,2.2072,2.218,2.145,2.1435,2.1374,2.1186,2.1096,2.1096,2.1006,2.0925,2.0753,2.0663,2.0564,2.0473,2.0382,2.0119,1.9845,1.9563,1.9279,1.9012,1.892,1.8827,1.8827,1.8827,1.8827,1.8827,1.8827,1.8827,1.8827,1.8827,1.8827,1.8827,1.2852,1.3467,1.428,1.4983,1.5623,1.6107,1.6752,1.7447,1.8016,1.8683,1.931,1.9945,2.0548,2.1134,2.1711,2.2262,2.2838,2.3414,2.4045,2.4873,2.5195,2.5391,2.5449,2.5429,2.5646,2.6037,2.6664,2.7259,2.7829,2.8352,2.8764,2.8808,2.8651,2.8422,2.8264,2.8083,2.7858,2.7612,2.7352,2.7068,2.6792,2.6464,2.6447,2.6805,2.7221,2.7566,2.7652,2.7363,2.6901,2.6322,2.5577,2.4865,2.4408,2.4279,2.4118,2.3897,2.3806,2.3713,2.37,2.3569,2.3509,2.3509,2.345,2.339,2.3271,2.309,2.3231,2.3616,2.4057,2.4602,2.5391,2.5451,2.5253,2.504,2.4743,2.4345,2.4005,2.3482,2.3016,2.2893,2.3078,2.3053,2.2416,2.27,2.2502,2.1881,2.1817,2.1952,2.1802,2.1606,2.1633,2.1713,2.1553,2.1383,2.1203,2.1105,2.0925,2.0835,2.0564,2.03,2.0019,1.9646,1.9379,1.9104,1.892,1.892,1.902,1.8928,1.8928,1.8835,1.8827,1.8827,1.892,1.8827,1.8928,1.2628,1.3457,1.4373,1.5074,1.5635,1.6139,1.6723,1.7269,1.7855,1.8397,1.8936,1.953,2.012,2.0697,2.1228,2.1757,2.2432,2.3234,2.3971,2.462,2.4988,2.5248,2.5593,2.5878,2.6286,2.6699,2.7599,2.8188,2.8548,2.9008,2.9297,2.9185,2.903,2.8868,2.8676,2.8569,2.8362,2.8073,2.78,2.7657,2.7676,2.7386,2.7481,2.7941,2.8356,2.8589,2.8432,2.8061,2.768,2.724,2.6616,2.5811,2.5189,2.4964,2.4738,2.4478,2.4376,2.4229,2.4099,2.3969,2.391,2.3806,2.3747,2.37,2.3582,2.339,2.3475,2.3866,2.4339,2.493,2.5889,2.584,2.5688,2.5535,2.5312,2.5099,2.4873,2.4271,2.3599,2.346,2.3556,2.3303,2.3116,2.3175,2.2867,2.2281,2.2464,2.2601,2.2379,2.2214,2.2394,2.2432,2.2264,2.2097,2.183,2.1642,2.1365,2.1284,2.1105,2.0934,2.0843,2.0292,1.9828,1.9563,1.9288,1.9204,1.9304,1.9212,1.9112,1.9012,1.9004,1.9004,1.9012,1.9012,1.9204,1.2444,1.3467,1.4466,1.5119,1.5635,1.6207,1.665,1.7044,1.7639,1.8161,1.8577,1.9147,1.9732,2.0243,2.0797,2.1401,2.2203,2.3047,2.3835,2.4348,2.4745,2.5052,2.5506,2.6334,2.7005,2.7096,2.8192,2.881,2.9117,2.9439,2.9607,2.9493,2.9375,2.923,2.9075,2.8938,2.8755,2.8533,2.8228,2.8291,2.8732,2.865,2.9022,2.9436,2.9531,2.9416,2.912,2.8748,2.8383,2.7959,2.761,2.693,2.6244,2.5632,2.5356,2.5005,2.4948,2.4721,2.4492,2.4363,2.4319,2.4171,2.4067,2.3949,2.3891,2.3765,2.3905,2.4392,2.4936,2.5494,2.6146,2.6119,2.605,2.591,2.5758,2.5688,2.5548,2.4909,2.438,2.3915,2.3962,2.371,2.3513,2.337,2.3064,2.2778,2.298,2.3116,2.2909,2.2906,2.3093,2.3202,2.3047,2.2706,2.2441,2.2353,2.2078,2.19,2.1731,2.1642,2.1472,2.1105,2.0555,2.0027,1.9754,1.9671,1.9579,1.9487,1.9387,1.9288,1.9288,1.9296,1.9288,1.9288,1.9387,1.2638,1.3467,1.4291,1.4983,1.5558,1.6057,1.6534,1.6947,1.7393,1.7855,1.8293,1.8784,1.9273,1.9717,2.0345,2.1197,2.213,2.2919,2.3498,2.4044,2.4489,2.4828,2.5398,2.6856,2.768,2.8125,2.8864,2.9458,2.9819,3.0009,2.9912,2.9803,2.9644,2.9494,2.9416,2.9275,2.9104,2.8962,2.8804,2.8969,2.9482,3.0128,3.0489,3.0755,3.0566,3.0149,2.9705,2.9319,2.8967,2.859,2.8189,2.7795,2.7291,2.6654,2.6068,2.5715,2.5481,2.5203,2.4935,2.4765,2.4664,2.4563,2.4447,2.4345,2.4171,2.4086,2.44,2.5115,2.5803,2.6375,2.6427,2.6396,2.6327,2.6201,2.6131,2.605,2.5898,2.5688,2.5253,2.4754,2.4499,2.4152,2.3985,2.3775,2.3547,2.3307,2.3398,2.3512,2.3495,2.3565,2.3832,2.3886,2.3917,2.3484,2.3047,2.3047,2.2872,2.2775,2.2599,2.2344,2.2176,2.182,2.1284,2.0925,2.0382,2.0027,1.9936,1.9853,1.9762,1.9745,1.9662,1.9579,1.9662,1.9754,1.9662,1.2501,1.3372,1.424,1.4891,1.5447,1.5949,1.6386,1.6735,1.7269,1.7639,1.8055,1.8514,1.8959,1.9427,2.0015,2.0975,2.196,2.2643,2.3194,2.3746,2.4208,2.4628,2.5172,2.6992,2.7829,2.8465,2.9305,3.0055,3.0414,3.0294,3.0157,3.0052,2.9912,2.9799,2.9716,2.9608,2.9474,2.9351,2.951,2.9892,3.0501,3.1404,3.1807,3.156,3.1261,3.0828,3.0377,3.0011,2.9617,2.9227,2.8904,2.859,2.8155,2.7645,2.6901,2.6336,2.6014,2.5632,2.5314,2.5147,2.5048,2.4835,2.4791,2.462,2.454,2.4688,2.504,2.5819,2.6503,2.693,2.6807,2.6739,2.6671,2.6671,2.6602,2.6533,2.6452,2.6383,2.6082,2.5639,2.536,2.4968,2.4368,2.4152,2.4033,2.3893,2.3886,2.3902,2.3919,2.4136,2.4434,2.4619,2.4608,2.4423,2.3993,2.3907,2.3831,2.3734,2.3474,2.3212,2.296,2.2687,2.2432,2.2167,2.1544,2.0826,2.0654,2.0663,2.0391,2.0209,2.0209,2.0209,2.0218,2.0218,2.0218,1.2264,1.3218,1.4073,1.4729,1.5267,1.5828,1.6212,1.6565,1.7102,1.7475,1.7707,1.824,1.8731,1.9244,1.9965,2.0845,2.1882,2.2422,2.2947,2.3482,2.3986,2.4414,2.5205,2.6491,2.7718,2.8286,2.9437,3.0481,3.0581,3.049,3.0383,3.0271,3.0184,3.0095,2.9981,2.9886,2.9786,2.9889,3.0239,3.0887,3.1696,3.2401,3.2651,3.2214,3.1789,3.1397,3.0988,3.0601,3.0182,2.9793,2.9483,2.9227,2.8858,2.8479,2.7864,2.7056,2.6654,2.6176,2.5797,2.5577,2.5536,2.5272,2.5118,2.5005,2.5037,2.5333,2.5831,2.6491,2.7091,2.7335,2.7134,2.7079,2.7079,2.7066,2.7079,2.7079,2.6998,2.693,2.685,2.6496,2.6233,2.5734,2.5241,2.4838,2.469,2.4338,2.4328,2.4363,2.4481,2.4591,2.4864,2.5256,2.5348,2.5368,2.5105,2.485,2.485,2.4765,2.4509,2.4251,2.3993,2.3734,2.3474,2.3212,2.2696,2.2078,2.182,2.1374,2.1105,2.0925,2.0925,2.0925,2.0843,2.0934,2.0934,1.2058,1.2909,1.3631,1.428,1.496,1.5424,1.5913,1.6448,1.6833,1.7212,1.7544,1.8055,1.8528,1.9147,2.007,2.0958,2.1658,2.222,2.273,2.3265,2.3783,2.4228,2.4689,2.5876,2.7104,2.7903,2.905,2.9941,3.0391,3.0502,3.054,3.0462,3.0398,3.0343,3.0222,3.0109,3.0026,3.0089,3.0618,3.1534,3.2569,3.3195,3.3171,3.2809,3.2384,3.2003,3.1528,3.1162,3.0723,3.0309,3.0054,2.9766,2.9409,2.8997,2.8654,2.8125,2.7545,2.6855,2.6336,2.6176,2.6082,2.5825,2.5729,2.5591,2.577,2.614,2.6681,2.7053,2.7628,2.7749,2.7603,2.7469,2.7469,2.7469,2.7536,2.7536,2.7469,2.7603,2.7456,2.7456,2.7175,2.6633,2.6082,2.5746,2.5336,2.504,2.4825,2.4888,2.4957,2.5176,2.554,2.5927,2.6094,2.6046,2.6113,2.5863,2.5779,2.5706,2.5454,2.52,2.4935,2.4765,2.4594,2.4251,2.3647,2.3222,2.2862,2.2334,2.1811,2.1633,2.1731,2.1642,2.1553,2.1642,2.1642,1.1651,1.2735,1.342,1.4082,1.4731,1.5266,1.5756,1.6207,1.6705,1.7086,1.7406,1.7895,1.8514,1.9295,2.0154,2.0861,2.1524,2.2039,2.2563,2.3109,2.3606,2.4023,2.4605,2.5598,2.6642,2.7364,2.8533,2.9479,2.9999,3.0476,3.0689,3.0618,3.0565,3.0492,3.0411,3.0321,3.0267,3.0524,3.1293,3.2487,3.3493,3.3858,3.3725,3.3306,3.2934,3.2535,3.2162,3.1748,3.1317,3.0908,3.0642,3.0284,2.9957,2.9633,2.9348,2.8951,2.8463,2.778,2.7019,2.6878,2.663,2.6418,2.6329,2.6394,2.6694,2.7051,2.763,2.8252,2.8461,2.8417,2.8183,2.8131,2.8131,2.8131,2.8131,2.8131,2.8118,2.8118,2.8118,2.8131,2.8066,2.7577,2.7162,2.6824,2.6414,2.6025,2.5676,2.5527,2.5589,2.5668,2.6141,2.6718,2.6736,2.6714,2.6803,2.6775,2.6682,2.6528,2.6196,2.603,2.5863,2.5695,2.5527,2.5274,2.4775,2.4337,2.3897,2.3299,2.2599,2.252,2.253,2.252,2.252,2.252,2.252,1.1242,1.2461,1.318,1.3847,1.4512,1.5119,1.5623,1.6032,1.6565,1.696,1.7323,1.7882,1.8693,1.9442,2.0085,2.0714,2.137,2.1866,2.2392,2.2917,2.3427,2.3862,2.4394,2.5271,2.5969,2.6461,2.8066,2.9039,2.9671,3.0233,3.0757,3.0711,3.0639,3.0603,3.0546,3.0501,3.0507,3.0893,3.1613,3.2779,3.3921,3.4008,3.3931,3.3739,3.3458,3.3111,3.2766,3.2318,3.1877,3.149,3.1162,3.0804,3.0452,3.0172,2.9897,2.9544,2.9136,2.8654,2.7978,2.7595,2.7321,2.7063,2.6861,2.7021,2.7709,2.794,2.8203,2.8892,2.9226,2.9107,2.8972,2.8844,2.8844,2.8844,2.8844,2.8844,2.8844,2.883,2.883,2.8844,2.883,2.8766,2.8352,2.7947,2.7497,2.7053,2.6658,2.6314,2.6235,2.6235,2.6615,2.7115,2.7377,2.7423,2.749,2.7542,2.7452,2.7383,2.7058,2.6846,2.6764,2.661,2.6373,2.6041,2.579,2.5443,2.4999,2.4241,2.3484,2.3474,2.3474,2.3474,2.3474,2.3474,2.3474,1.0889,1.2017,1.2735,1.3589,1.4419,1.4766,1.5355,1.5988,1.6392,1.682,1.7365,1.8121,1.8846,1.9479,2.0035,2.063,2.134,2.1794,2.2281,2.2764,2.3248,2.3696,2.4153,2.4662,2.5314,2.6237,2.7449,2.8429,2.9357,3.008,3.0583,3.0771,3.0708,3.07,3.0672,3.0622,3.0936,3.1279,3.1732,3.2378,3.3365,3.3695,3.3773,3.4088,3.388,3.3524,3.3243,3.2781,3.2369,3.1967,3.1657,3.1334,3.0958,3.0675,3.0368,3.007,2.9677,2.9303,2.8951,2.8334,2.7925,2.769,2.7563,2.7528,2.8096,2.8557,2.8871,2.9183,2.9594,2.9737,2.9608,2.954,2.954,2.954,2.9526,2.954,2.954,2.9526,2.9526,2.954,2.954,2.9463,2.9387,2.898,2.8403,2.7908,2.7377,2.6973,2.6828,2.6861,2.6997,2.7381,2.7866,2.8059,2.8179,2.8106,2.7993,2.7925,2.785,2.7716,2.773,2.7499,2.7196,2.6951,2.6622,2.6362,2.6102,2.5348,2.4754,2.4498,2.4413,2.4423,2.4423,2.4423,2.4423,1.0838,1.1819,1.2579,1.3399,1.4176,1.4674,1.5277,1.5869,1.6306,1.6947,1.7666,1.8293,1.8874,1.9472,1.998,2.0597,2.1261,2.1764,2.2243,2.273,2.3188,2.3606,2.3961,2.4321,2.4829,2.5555,2.6489,2.7508,2.8476,2.9538,3.0263,3.0536,3.0718,3.0768,3.0735,3.0742,3.1099,3.1536,3.1753,3.2256,3.2972,3.3549,3.3734,3.3782,3.4213,3.3949,3.3662,3.3262,3.2844,3.2453,3.2144,3.1785,3.1428,3.114,3.0861,3.0576,3.0182,2.9984,2.9694,2.8997,2.8365,2.8137,2.7985,2.7981,2.8449,2.8657,2.9083,2.9448,2.9871,2.9999,3.0237,3.0219,3.0219,3.0205,3.0219,3.0158,3.0158,3.0158,3.0158,3.0097,3.0158,3.0205,3.0129,3.0007,2.9373,2.8753,2.8222,2.7709,2.7548,2.7437,2.7559,2.769,2.8083,2.8344,2.8472,2.84,2.8346,2.8455,2.8472,2.839,2.824,2.8223,2.7914,2.7684,2.7348,2.7001,2.6594,2.6318,2.5863,2.5432,2.5274,2.5369,2.5369,2.5369,2.5274,1.0787,1.1769,1.2482,1.3246,1.4025,1.4628,1.5232,1.5836,1.6306,1.7018,1.7922,1.8307,1.8851,1.9398,1.9925,2.053,2.115,2.1688,2.2169,2.2651,2.3084,2.3491,2.3837,2.4154,2.4497,2.4934,2.5823,2.6895,2.7942,2.8883,2.983,3.0501,3.0767,3.0781,3.0777,3.0793,3.1041,3.1387,3.1562,3.1854,3.2543,3.3154,3.3658,3.3714,3.4216,3.433,3.403,3.3689,3.3291,3.2908,3.257,3.2214,3.1894,3.16,3.1334,3.1004,3.0723,3.0493,3.0156,2.956,2.8889,2.8716,2.8462,2.8498,2.8671,2.8788,2.9267,2.9748,3.0021,3.0321,3.0719,3.0762,3.0717,3.0642,3.0642,3.0657,3.0642,3.0642,3.0642,3.0702,3.0702,3.0702,3.0642,3.0447,3.0007,2.9373,2.8867,2.8481,2.8327,2.8146,2.8107,2.8183,2.8291,2.8464,2.864,2.863,2.8718,2.8746,2.8761,2.865,2.8585,2.8586,2.83,2.7711,2.7442,2.7384,2.6964,2.6439,2.6251,2.6102,2.6041,2.5968,2.6052,2.5957,2.5957,1.0787,1.1719,1.253,1.3294,1.4071,1.4674,1.522,1.5836,1.6349,1.7073,1.7882,1.8321,1.8865,1.9413,1.9904,2.0462,2.1071,2.1645,2.2147,2.2561,2.3028,2.3394,2.371,2.4001,2.4321,2.4794,2.5546,2.6511,2.7708,2.8541,2.9566,3.0451,3.075,3.0786,3.0798,3.0791,3.0789,3.0761,3.0821,3.1277,3.1796,3.2512,3.3091,3.3691,3.4244,3.4369,3.4325,3.4074,3.3671,3.3302,3.2988,3.2654,3.2318,3.2038,3.1748,3.1504,3.1157,3.0942,3.0723,2.9924,2.9515,2.9259,2.8967,2.8857,2.8839,2.9095,2.9485,3.0023,3.0343,3.0735,3.101,3.119,3.1132,3.1132,3.1132,3.1073,3.1058,3.1058,3.1073,3.1073,3.1073,3.1073,3.1014,3.0836,3.0433,2.9993,2.956,2.9247,2.9008,2.878,2.8655,2.8568,2.8585,2.8598,2.8768,2.8983,2.906,2.908,2.8957,2.8856,2.8727,2.8659,2.8213,2.7643,2.7566,2.7569,2.7071,2.6464,2.6447,2.6506,2.6565,2.6561,2.655,2.655,2.6467,1.0947,1.1918,1.2638,1.3399,1.4165,1.4674,1.5232,1.5881,1.6607,1.7323,1.7868,1.8321,1.8827,1.9413,1.9904,2.0429,2.1023,2.1598,2.2101,2.2525,2.2952,2.3324,2.3642,2.3917,2.4192,2.4517,2.5136,2.6129,2.7568,2.8157,2.9217,3.0195,3.0716,3.0791,3.08,3.079,3.0788,3.0793,3.0803,3.0892,3.1095,3.1786,3.2543,3.324,3.3862,3.432,3.4515,3.4269,3.403,3.3643,3.335,3.3037,3.2687,3.2438,3.2161,3.1912,3.16,3.1355,3.1123,3.0601,3.0199,2.9853,2.947,2.9273,2.9261,2.9579,2.9943,3.0274,3.0708,3.1177,3.1645,3.1625,3.1554,3.1539,3.1482,3.1409,3.1351,3.1351,3.1366,3.1366,3.1366,3.1292,3.1234,3.119,3.0807,3.0553,3.019,2.9808,2.9574,2.931,2.9085,2.8958,2.8903,2.8855,2.8876,2.8973,2.9105,2.913,2.9056,2.9061,2.8904,2.8705,2.851,2.8053,2.7923,2.7705,2.7115,2.6581,2.67,2.6779,2.6714,2.6826,2.6974,2.6891,2.6891,1.1108,1.2026,1.2832,1.36,1.4269,1.4823,1.5468,1.6132,1.6905,1.7447,1.7909,1.8321,1.8827,1.9413,1.9925,2.0447,2.1039,2.1628,2.2101,2.2525,2.2927,2.3295,2.3594,2.3852,2.4114,2.4357,2.4692,2.5525,2.692,2.7503,2.8788,3.0132,3.0665,3.0754,3.0788,3.08,3.0793,3.0791,3.0782,3.0759,3.0962,3.1426,3.2066,3.2653,3.3331,3.4061,3.4301,3.4379,3.4316,3.3954,3.3634,3.3321,3.3068,3.2834,3.2573,3.2283,3.1966,3.1748,3.147,3.1257,3.0885,3.0617,3.0087,2.9782,2.9681,2.9733,3.0211,3.0642,3.1058,3.1551,3.1992,3.1962,3.194,3.1883,3.1769,3.164,3.164,3.1655,3.1655,3.1655,3.1597,3.1524,3.1439,3.1351,3.1234,3.0999,3.0821,3.0447,3.0129,2.9822,2.956,2.9435,2.931,2.9232,2.9068,2.8957,2.9059,2.9157,2.9107,2.9067,2.8797,2.8581,2.8516,2.8381,2.7959,2.7485,2.7038,2.6797,2.6641,2.6659,2.6656,2.6839,2.7174,2.7185,2.7151,1.1318,1.2215,1.318,1.3894,1.4466,1.5074,1.5881,1.6718,1.7073,1.7502,1.7922,1.8361,1.8851,1.945,1.998,2.0465,2.1023,2.1598,2.2073,2.2497,2.2868,2.3223,2.3549,2.3792,2.4056,2.4284,2.4608,2.5158,2.6185,2.7471,2.8906,3.0134,3.0603,3.0709,3.0743,3.0784,3.0781,3.0792,3.0785,3.075,3.0885,3.1321,3.17,3.2235,3.291,3.3563,3.3937,3.4205,3.4333,3.4189,3.3928,3.3634,3.3379,3.319,3.2912,3.2639,3.2301,3.2091,3.1948,3.1711,3.1579,3.1257,3.0699,3.0384,3.0185,3.0073,3.051,3.0941,3.1423,3.183,3.223,3.2219,3.2191,3.2079,3.1981,3.1981,3.1996,3.194,3.194,3.1898,3.1826,3.1757,3.1762,3.1704,3.1524,3.1351,3.1176,3.0999,3.0628,3.0447,3.0129,2.9884,2.9699,2.954,2.9415,2.9212,2.9154,2.9288,2.9077,2.8964,2.8725,2.8556,2.8492,2.8277,2.7665,2.7178,2.6764,2.6537,2.6408,2.638,2.6498,2.6757,2.7125,2.7198,2.7163,1.1569,1.2323,1.3238,1.3952,1.4593,1.5635,1.6417,1.6876,1.7227,1.7652,1.8109,1.8528,1.8988,1.9479,1.9965,2.0499,2.1023,2.1584,2.2061,2.2453,2.2825,2.3193,2.3481,2.3768,2.3976,2.4191,2.4521,2.4989,2.6204,2.7556,2.9051,3.0326,3.0565,3.0644,3.0714,3.0767,3.0772,3.08,3.0784,3.079,3.0764,3.1034,3.1347,3.1854,3.2189,3.2881,3.3688,3.392,3.4147,3.4401,3.4184,3.3954,3.3743,3.3541,3.3309,3.2975,3.2672,3.2438,3.237,3.2161,3.1984,3.1875,3.1411,3.1004,3.0775,3.0744,3.0969,3.142,3.1821,3.2203,3.2635,3.2718,3.2617,3.2468,3.2358,3.2262,3.2262,3.2221,3.2165,3.2109,3.2038,3.2118,3.214,3.192,3.1712,3.1655,3.1539,3.1351,3.1117,3.0881,3.0568,3.0251,3.0083,2.9913,2.9775,2.9574,2.9463,2.938,2.9162,2.9035,2.8963,2.8797,2.8549,2.8262,2.7868,2.7188,2.6559,2.64,2.6399,2.6359,2.648,2.6716,2.7007,2.6971,2.7115,1.1819,1.255,1.342,1.4212,1.5096,1.6032,1.665,1.7031,1.7352,1.7788,1.8228,1.8592,1.9049,1.9515,2.0015,2.0481,2.0975,2.1493,2.1974,2.2354,2.2799,2.3126,2.3435,2.3703,2.3917,2.4134,2.4376,2.4737,2.5941,2.7476,2.8995,3.0325,3.0511,3.0602,3.0665,3.073,3.0768,3.0779,3.0797,3.0791,3.0774,3.0722,3.1045,3.1331,3.1504,3.2429,3.3389,3.3563,3.4111,3.4579,3.4458,3.4269,3.4049,3.3788,3.3587,3.325,3.2993,3.2834,3.277,3.259,3.2422,3.2249,3.202,3.1711,3.1325,3.1122,3.1517,3.1965,3.2271,3.2642,3.2946,3.3224,3.3065,3.2888,3.2742,3.2594,3.2539,3.2428,3.2373,3.2302,3.2323,3.2405,3.2292,3.2072,3.1883,3.1826,3.1712,3.1612,3.1424,3.1176,3.0866,3.0507,3.0401,3.0233,3.0083,2.9884,2.9699,2.9526,2.9401,2.9275,2.9162,2.9035,2.878,2.8457,2.8066,2.7523,2.6905,2.6577,2.6546,2.6433,2.6273,2.6298,2.6566,2.6718,2.6917,1.2049,1.2919,1.3732,1.4766,1.5836,1.6306,1.6778,1.7212,1.7447,1.7774,1.8228,1.863,1.9087,1.9551,2.005,2.0496,2.0958,2.1464,2.1899,2.2237,2.2694,2.307,2.3389,2.3664,2.3896,2.4095,2.4395,2.4778,2.5426,2.6896,2.8668,3.0196,3.0417,3.0511,3.0599,3.0685,3.073,3.0796,3.08,3.079,3.0774,3.073,3.0691,3.0784,3.1294,3.2016,3.2787,3.3483,3.416,3.4567,3.4732,3.452,3.4245,3.3998,3.378,3.3587,3.3327,3.3208,3.3086,3.2965,3.2787,3.2623,3.2404,3.2197,3.1873,3.1397,3.1641,3.2343,3.2718,3.3127,3.3482,3.3684,3.3626,3.3419,3.3224,3.3118,3.3027,3.2966,3.2882,3.2811,3.2796,3.2881,3.2869,3.2665,3.2262,3.2094,3.194,3.1841,3.1727,3.1467,3.1176,3.0807,3.0582,3.0462,3.028,3.0068,2.987,2.9747,2.9574,2.9463,2.9352,2.9226,2.8972,2.8638,2.8314,2.7987,2.7523,2.7121,2.6726,2.6389,2.619,2.5922,2.607,2.633,2.6605,1.2353,1.3054,1.4305,1.5334,1.61,1.6504,1.6931,1.735,1.7679,1.8029,1.8478,1.8836,1.9236,1.9675,2.012,2.053,2.0926,2.1402,2.1823,2.2226,2.2642,2.3045,2.3365,2.3664,2.3878,2.4075,2.4432,2.5057,2.6249,2.7289,2.8341,3.0021,3.0367,3.0449,3.0539,3.0637,3.0709,3.0782,3.0784,3.08,3.0777,3.074,3.0711,3.0711,3.1042,3.1736,3.2442,3.3023,3.3926,3.4691,3.4832,3.4691,3.4404,3.4221,3.4074,3.3895,3.3698,3.3559,3.3415,3.3304,3.3122,3.2979,3.277,3.2588,3.2266,3.1657,3.1749,3.253,3.3151,3.3551,3.3924,3.4105,3.4184,3.3949,3.3694,3.3658,3.3555,3.3509,3.3423,3.3392,3.3307,3.3294,3.3318,3.3115,3.2671,3.2398,3.2191,3.2094,3.194,3.1769,3.1582,3.1219,3.0866,3.0702,3.0522,3.0326,3.0115,2.9931,2.9761,2.9651,2.954,2.9352,2.9162,2.8894,2.856,2.8249,2.7855,2.7523,2.7121,2.6633,2.6245,2.6021,2.5739,2.5889,2.6199,1.2647,1.3399,1.472,1.5635,1.6262,1.6633,1.7057,1.7461,1.7882,1.8268,1.8659,1.8988,1.9362,1.9762,2.0185,2.0545,2.0893,2.1355,2.1735,2.2141,2.2624,2.3003,2.3348,2.3646,2.3855,2.4056,2.4377,2.5224,2.6906,2.745,2.8249,2.9875,3.0279,3.0402,3.0482,3.0602,3.0685,3.0764,3.0778,3.0795,3.0793,3.0758,3.0714,3.0704,3.0881,3.1584,3.2408,3.3012,3.3848,3.469,3.5034,3.487,3.4647,3.4517,3.4363,3.4197,3.4023,3.3868,3.3753,3.3605,3.3433,3.3268,3.3055,3.2848,3.2784,3.2249,3.2147,3.2877,3.3303,3.3722,3.4147,3.4374,3.4528,3.4399,3.4201,3.405,3.3949,3.3793,3.3822,3.3838,3.3738,3.365,3.3604,3.3498,3.3102,3.2796,3.2594,3.2398,3.2262,3.2094,3.1868,3.164,3.1278,3.0999,3.0836,3.0642,3.0372,3.019,3.0007,2.9884,2.9713,2.954,2.9289,2.9085,2.883,2.8522,2.8197,2.7855,2.7456,2.6985,2.6564,2.6245,2.5943,2.5664,2.5888,1.3025,1.3931,1.5096,1.5888,1.6398,1.6791,1.7212,1.7598,1.8016,1.8464,1.886,1.9101,1.9435,1.9797,2.0185,2.0527,2.0893,2.1371,2.1705,2.2124,2.2624,2.3003,2.3348,2.3642,2.3876,2.4057,2.4321,2.5522,2.7024,2.7366,2.813,2.9707,3.0213,3.0343,3.0469,3.0549,3.0622,3.0716,3.0759,3.0796,3.08,3.0786,3.0763,3.0703,3.078,3.1465,3.2386,3.3199,3.3846,3.4529,3.5114,3.502,3.4869,3.4749,3.4604,3.4454,3.4316,3.4173,3.4049,3.3887,3.3753,3.3587,3.3309,3.3147,3.3068,3.2944,3.2844,3.2941,3.3382,3.3894,3.4317,3.4784,3.4918,3.4851,3.4691,3.448,3.4349,3.4201,3.4183,3.4216,3.4149,3.4016,3.3915,3.3797,3.3539,3.3293,3.3027,3.278,3.2547,3.2453,3.2216,3.2007,3.1724,3.1452,3.119,3.094,3.0732,3.0507,3.0326,3.0083,2.9898,2.9789,2.9602,2.9401,2.9149,2.8844,2.8522,2.8183,2.7789,2.7403,2.6985,2.6564,2.622,2.5943,2.5746,1.3815,1.5028,1.568,1.6262,1.6778,1.7141,1.7529,1.7908,1.8279,1.8693,1.9109,1.9457,1.9726,1.999,2.0323,2.0646,2.1055,2.1433,2.1823,2.2209,2.2651,2.3028,2.3365,2.3685,2.3919,2.4115,2.4432,2.5412,2.6803,2.7242,2.8129,2.9842,3.0142,3.0279,3.0433,3.0501,3.0582,3.0665,3.075,3.0798,3.0792,3.0799,3.0785,3.076,3.0749,3.1282,3.1951,3.2715,3.3496,3.4249,3.4925,3.5047,3.5038,3.4946,3.4811,3.471,3.4583,3.4454,3.4316,3.4148,3.4023,3.3921,3.3662,3.3455,3.3339,3.3196,3.3084,3.2945,3.3439,3.4081,3.4599,3.5292,3.5559,3.5299,3.5055,3.493,3.4787,3.4643,3.4611,3.4578,3.4513,3.4399,3.425,3.4151,3.405,3.3745,3.3591,3.3351,3.2996,3.2819,3.2641,3.2437,3.2231,3.1838,3.1495,3.1278,3.1087,3.0866,3.0582,3.0401,3.0219,3.005,2.9927,2.9727,2.9526,2.9275,2.8881,2.8495,2.8118,2.7736,2.7403,2.7053,2.6564,2.622,2.6082]},{"header":{"parameterUnit":"m.s-1","parameterCategory":1,"la1":31.0,"la2":29.5877,"lo1":-88.7671,"lo2":-86.6584,"dy":0.0162,"dx":0.0185,"nx":115,"ny":88,"refTime":"2023-03-06T18:00:00:Z","depth":0,"parameterNumber":3,"parameterNumberName":"V-component_of_WINDS"},"data":[0.0,0.0,0.0,0.0,0.0,0.0,0.0,0.0,0.0,0.0,0.0,0.0,0.0,0.0,0.0,0.0,0.0,0.0,0.0,0.0,0.0,0.0,0.0,0.0,0.0,0.0,0.0,0.0,0.0,0.0,0.0,0.0,0.0,0.0,0.0,0.0,0.0,0.0,0.0,0.0,0.0,0.0,0.0,0.0,0.0,0.0,0.0,0.0,0.0,0.0,0.0,0.0,0.0,0.0,0.0,0.0,0.0,0.0,0.0,0.0,0.0,0.0,0.0,0.0,0.0,0.0,0.0,0.0,0.0,0.0,0.0,0.0,0.0,0.0,0.0,0.0,0.0,0.0,0.0,0.0,0.0,0.0,0.0,0.0,0.0,0.0,0.0,0.0,0.0,0.0,0.0,0.0,0.0,0.0,0.0,0.0,0.0,0.0,0.0,0.0,0.0,0.0,0.0,0.0,0.0,0.0,0.0,0.0,0.0,0.0,0.0,0.0,0.0,0.0,0.0,0.0,0.0,0.0,0.0,0.0,0.0,0.0,0.0,0.0,0.0,0.0,0.0,0.0,0.0,0.0,0.0,0.0,0.0,0.0,0.0,0.0,0.0,0.0,0.0,0.0,0.0,0.0,0.0,0.0,0.0,0.0,0.0,0.0,0.0,0.0,0.0,0.0,0.0,0.0,0.0,0.0,0.0,0.0,0.0,0.0,0.0,0.0,0.0,0.0,0.0,0.0,0.0,0.0,0.0,0.0,0.0,0.0,0.0,0.0,0.0,0.0,0.0,0.0,0.0,0.0,0.0,0.0,0.0,0.0,0.0,0.0,0.0,0.0,0.0,0.0,0.0,0.0,0.0,0.0,0.0,0.0,0.0,0.0,0.0,0.0,0.0,0.0,0.0,0.0,0.0,0.0,0.0,0.0,0.0,0.0,0.0,0.0,0.0,0.0,0.0,0.0,0.0,0.0,0.0,0.0,0.0,0.0,0.0,0.0,0.0,0.0,0.0,0.0,0.0,0.0,0.0,0.0,0.0,0.0,0.0,0.0,0.0,0.0,0.0,0.0,0.0,0.0,0.0,0.0,0.0,0.0,0.0,0.0,0.0,0.0,0.0,0.0,0.0,0.0,0.0,0.0,0.0,0.0,0.0,0.0,0.0,0.0,0.0,0.0,0.0,0.0,0.0,0.0,0.0,0.0,0.0,0.0,0.0,0.0,0.0,0.0,0.0,0.0,0.0,0.0,0.0,0.0,0.0,0.0,0.0,0.0,0.0,0.0,0.0,0.0,0.0,0.0,0.0,0.0,0.0,0.0,0.0,0.0,0.0,0.0,0.0,0.0,0.0,0.0,0.0,0.0,0.0,0.0,0.0,0.0,0.0,0.0,0.0,0.0,0.0,0.0,0.0,0.0,0.0,0.0,0.0,0.0,0.0,0.0,0.0,0.0,0.0,0.0,0.0,0.0,0.0,0.0,0.0,0.0,0.0,0.0,0.0,0.0,0.0,0.0,0.0,0.0,0.0,0.0,0.0,0.0,0.0,0.0,0.0,0.0,0.0,0.0,0.0,0.0,0.0,0.0,0.0,0.0,0.0,0.0,0.0,0.0,0.0,0.0,0.0,0.0,0.0,0.0,0.0,0.0,0.0,0.0,0.0,0.0,0.0,0.0,0.0,0.0,0.0,0.0,0.0,0.0,0.0,0.0,0.0,0.0,0.0,0.0,0.0,0.0,0.0,0.0,0.0,0.0,0.0,0.0,0.0,0.0,0.0,0.0,0.0,0.0,0.0,0.0,0.0,0.0,0.0,0.0,0.0,0.0,0.0,0.0,0.0,0.0,0.0,0.0,0.0,0.0,0.0,0.0,0.0,0.0,0.0,0.0,0.0,0.0,0.0,0.0,0.0,0.0,0.0,0.0,0.0,0.0,0.0,0.0,0.0,0.0,0.0,0.0,0.0,0.0,0.0,0.0,0.0,0.0,0.0,0.0,0.0,0.0,0.0,0.0,0.0,0.0,0.0,0.0,0.0,0.0,0.0,0.0,0.0,0.0,0.0,0.0,0.0,0.0,0.0,0.0,0.0,0.0,0.0,0.0,0.0,0.0,0.0,0.0,0.0,0.0,0.0,0.0,0.0,0.0,0.0,0.0,0.0,0.0,0.0,0.0,0.0,0.0,0.0,0.0,0.0,0.0,0.0,0.0,0.0,0.0,0.0,0.0,0.0,0.0,0.0,0.0,0.0,0.0,0.0,0.0,0.0,0.0,0.0,0.0,0.0,0.0,0.0,0.0,0.0,0.0,0.0,0.0,0.0,0.0,0.0,0.0,0.0,0.0,0.0,0.0,0.0,0.0,0.0,0.0,0.0,0.0,0.0,0.0,0.0,0.0,0.0,0.0,0.0,0.0,0.0,0.0,0.0,0.0,0.0,0.0,0.0,0.0,0.0,0.0,0.0,0.0,0.0,0.0,0.0,0.0,0.0,0.0,0.0,0.0,0.0,0.0,0.0,0.0,0.0,0.0,0.0,0.0,0.0,0.0,0.0,0.0,0.0,0.0,0.0,0.0,0.0,0.0,0.0,0.0,0.0,0.0,0.0,0.0,0.0,0.0,0.0,0.0,0.0,0.0,0.0,0.0,0.0,0.0,0.0,0.0,0.0,0.0,0.0,0.0,0.0,0.0,0.0,0.0,0.0,0.0,0.0,0.0,0.0,0.0,0.0,0.0,0.0,0.0,0.0,0.0,0.0,0.0,0.0,0.0,0.0,0.0,0.0,0.0,0.0,0.0,0.0,0.0,0.0,0.0,0.0,0.0,0.0,0.0,0.0,0.0,0.0,0.0,0.0,0.0,0.0,0.0,0.0,0.0,0.0,0.0,0.0,0.0,0.0,0.0,0.0,0.0,0.0,0.0,0.0,0.0,0.0,0.0,0.0,0.0,0.0,0.0,0.0,0.0,0.0,0.0,0.0,0.0,0.0,0.0,0.0,0.0,0.0,0.0,0.0,0.0,0.0,0.0,0.0,0.0,0.0,0.0,0.0,0.0,0.0,0.0,0.0,0.0,0.0,0.0,0.0,0.0,0.0,0.0,0.0,0.0,0.0,0.0,0.0,0.0,0.0,0.0,0.0,0.0,0.0,0.0,0.0,0.0,0.0,0.0,0.0,0.0,0.0,0.0,0.0,0.0,0.0,0.0,0.0,0.0,0.0,0.0,0.0,0.0,0.0,0.0,0.0,0.0,0.0,0.0,0.0,0.0,0.0,0.0,0.0,0.0,0.0,0.0,0.0,0.0,0.0,0.0,0.0,0.0,0.0,0.0,0.0,0.0,0.0,0.0,0.0,0.0,0.0,0.0,0.0,0.0,0.0,0.0,0.0,0.0,0.0,0.0,0.0,0.0,0.0,0.0,0.0,0.0,0.0,0.0,0.0,0.0,0.0,0.0,0.0,0.0,0.0,0.0,0.0,0.0,0.0,0.0,0.0,0.0,0.0,0.0,0.0,0.0,0.0,0.0,0.0,0.0,0.0,0.0,0.0,0.0,0.0,0.0,0.0,0.0,0.0,0.0,0.0,0.0,0.0,0.0,0.0,0.0,0.0,0.0,0.0,0.0,0.0,0.0,0.0,0.0,0.0,0.0,0.0,0.0,0.0,0.0,0.0,0.0,0.0,0.0,0.0,0.0,0.0,0.0,0.0,0.0,0.0,0.0,0.0,0.0,0.0,0.0,0.0,0.0,0.0,0.0,0.0,0.0,0.0,0.0,0.0,0.0,0.0,0.0,0.0,0.0,0.0,0.0,0.0,0.0,0.0,0.0,0.0,0.0,0.0,0.0,0.0,0.0,0.0,0.0,0.0,0.0,0.0,0.0,0.0,0.0,0.0,0.0,0.0,0.0,0.0,0.0,0.0,0.0,0.0,0.0,0.0,0.0,0.0,0.0,0.0,0.0,0.0,0.0,0.0,0.0,0.0,0.0,0.0,0.0,0.0,0.0,0.0,0.0,0.0,0.0,0.0,0.0,0.0,0.0,0.0,0.0,0.0,0.0,0.0,0.0,0.0,0.0,0.0,0.0,0.0,0.0,0.0,0.0,0.0,0.0,0.0,0.0,0.0,0.0,0.0,0.0,0.0,0.0,0.0,0.0,0.0,0.0,0.0,0.0,0.0,0.0,0.0,0.0,0.0,0.0,0.0,0.0,0.0,0.0,0.0,0.0,0.0,0.0,0.0,0.0,0.0,0.0,0.0,0.0,0.0,0.0,0.0,0.0,0.0,0.0,0.0,0.0,2.8029,0.0,0.0,0.0,0.0,0.0,0.0,0.0,0.0,0.0,0.0,0.0,0.0,0.0,0.0,0.0,0.0,0.0,0.0,0.0,0.0,0.0,0.0,0.0,0.0,0.0,0.0,0.0,0.0,0.0,0.0,0.0,0.0,0.0,0.0,0.0,0.0,0.0,0.0,0.0,0.0,0.0,0.0,0.0,0.0,0.0,0.0,0.0,0.0,0.0,0.0,0.0,0.0,0.0,0.0,0.0,0.0,0.0,0.0,0.0,0.0,0.0,0.0,0.0,0.0,0.0,0.0,0.0,0.0,0.0,0.0,0.0,0.0,0.0,0.0,0.0,0.0,0.0,0.0,0.0,0.0,0.0,0.0,0.0,0.0,0.0,0.0,0.0,0.0,0.0,0.0,0.0,0.0,0.0,0.0,0.0,0.0,0.0,0.0,0.0,0.0,0.0,0.0,0.0,0.0,0.0,0.0,0.0,0.0,0.0,0.0,2.5262,2.5398,2.5448,2.6098,2.7343,0.0,0.0,0.0,0.0,0.0,0.0,0.0,0.0,0.0,0.0,0.0,0.0,0.0,0.0,0.0,0.0,0.0,0.0,0.0,0.0,0.0,0.0,0.0,0.0,0.0,0.0,0.0,0.0,0.0,0.0,0.0,0.0,0.0,0.0,0.0,0.0,0.0,0.0,0.0,0.0,0.0,0.0,0.0,0.0,0.0,0.0,0.0,0.0,0.0,0.0,0.0,0.0,0.0,0.0,0.0,0.0,0.0,0.0,0.0,0.0,0.0,0.0,0.0,0.0,0.0,0.0,0.0,0.0,0.0,0.0,0.0,0.0,0.0,0.0,0.0,0.0,0.0,0.0,0.0,0.0,0.0,0.0,0.0,0.0,0.0,0.0,0.0,0.0,0.0,0.0,0.0,0.0,0.0,0.0,0.0,0.0,0.0,0.0,0.0,0.0,0.0,0.0,0.0,0.0,0.0,0.0,0.0,0.0,0.0,0.0,0.0,0.0,2.5451,2.5904,2.6817,0.0,0.0,0.0,0.0,0.0,0.0,0.0,0.0,0.0,0.0,0.0,0.0,0.0,0.0,0.0,0.0,0.0,0.0,0.0,0.0,0.0,0.0,0.0,0.0,0.0,0.0,0.0,0.0,0.0,0.0,0.0,0.0,0.0,0.0,0.0,0.0,0.0,0.0,0.0,0.0,0.0,0.0,0.0,0.0,0.0,0.0,0.0,0.0,0.0,0.0,0.0,0.0,0.0,0.0,0.0,0.0,0.0,0.0,0.0,0.0,0.0,0.0,0.0,0.0,0.0,0.0,0.0,0.0,0.0,0.0,0.0,0.0,0.0,0.0,0.0,0.0,0.0,0.0,0.0,0.0,0.0,0.0,0.0,0.0,0.0,0.0,0.0,0.0,0.0,0.0,0.0,0.0,0.0,0.0,0.0,0.0,0.0,0.0,0.0,0.0,0.0,0.0,0.0,0.0,0.0,0.0,0.0,0.0,0.0,0.0,2.5171,2.5313,2.5443,0.0,2.6865,0.0,0.0,0.0,0.0,0.0,0.0,0.0,0.0,0.0,0.0,0.0,0.0,0.0,0.0,0.0,0.0,0.0,0.0,0.0,0.0,0.0,0.0,0.0,0.0,0.0,0.0,0.0,0.0,0.0,0.0,0.0,0.0,0.0,0.0,0.0,0.0,0.0,0.0,0.0,0.0,0.0,0.0,0.0,0.0,0.0,0.0,0.0,0.0,0.0,0.0,0.0,0.0,0.0,0.0,0.0,0.0,0.0,0.0,0.0,0.0,0.0,0.0,0.0,0.0,0.0,0.0,0.0,0.0,0.0,0.0,0.0,0.0,0.0,0.0,0.0,0.0,0.0,0.0,0.0,0.0,0.0,0.0,0.0,0.0,0.0,0.0,0.0,0.0,0.0,0.0,0.0,0.0,0.0,0.0,0.0,0.0,0.0,0.0,0.0,0.0,0.0,0.0,0.0,0.0,0.0,0.0,0.0,0.0,0.0,0.0,2.5201,2.5303,2.5453,2.5744,0.0,0.0,0.0,0.0,0.0,0.0,0.0,0.0,0.0,0.0,0.0,0.0,0.0,0.0,0.0,0.0,0.0,0.0,0.0,0.0,0.0,0.0,0.0,0.0,0.0,0.0,0.0,0.0,0.0,0.0,0.0,0.0,0.0,0.0,0.0,0.0,0.0,0.0,0.0,0.0,0.0,0.0,0.0,0.0,0.0,0.0,0.0,0.0,0.0,0.0,0.0,0.0,0.0,0.0,0.0,0.0,0.0,0.0,0.0,0.0,0.0,0.0,0.0,0.0,0.0,0.0,0.0,0.0,0.0,0.0,0.0,0.0,0.0,0.0,0.0,0.0,0.0,0.0,0.0,0.0,0.0,0.0,0.0,0.0,0.0,0.0,0.0,0.0,0.0,0.0,0.0,0.0,0.0,0.0,0.0,0.0,0.0,0.0,0.0,0.0,0.0,0.0,0.0,0.0,0.0,0.0,0.0,0.0,0.0,0.0,2.5141,2.5233,2.534,2.5498,2.5574,2.561,0.0,0.0,0.0,0.0,0.0,0.0,0.0,0.0,0.0,0.0,0.0,0.0,0.0,0.0,0.0,0.0,0.0,0.0,0.0,0.0,0.0,0.0,0.0,0.0,0.0,0.0,0.0,0.0,0.0,0.0,0.0,0.0,0.0,0.0,0.0,0.0,0.0,0.0,0.0,0.0,0.0,0.0,0.0,0.0,0.0,0.0,0.0,0.0,0.0,0.0,0.0,0.0,0.0,0.0,0.0,0.0,0.0,0.0,0.0,0.0,0.0,0.0,0.0,0.0,0.0,0.0,0.0,0.0,0.0,0.0,0.0,0.0,0.0,0.0,0.0,0.0,0.0,0.0,0.0,0.0,0.0,0.0,0.0,0.0,0.0,0.0,0.0,0.0,0.0,0.0,0.0,0.0,0.0,0.0,0.0,0.0,0.0,0.0,0.0,0.0,0.0,0.0,0.0,0.0,0.0,0.0,0.0,0.0,2.5101,2.5176,2.5293,2.5488,2.5518,2.5523,0.0,0.0,0.0,0.0,0.0,0.0,0.0,0.0,0.0,0.0,0.0,0.0,0.0,0.0,0.0,0.0,0.0,0.0,0.0,0.0,0.0,0.0,0.0,0.0,0.0,0.0,0.0,0.0,0.0,0.0,0.0,0.0,0.0,0.0,0.0,0.0,0.0,0.0,0.0,0.0,0.0,0.0,0.0,0.0,0.0,0.0,0.0,0.0,0.0,0.0,0.0,0.0,0.0,0.0,0.0,0.0,0.0,0.0,0.0,0.0,0.0,0.0,0.0,0.0,0.0,0.0,0.0,0.0,0.0,0.0,0.0,0.0,0.0,0.0,0.0,0.0,0.0,0.0,0.0,0.0,0.0,0.0,0.0,0.0,0.0,0.0,0.0,0.0,0.0,0.0,0.0,0.0,0.0,0.0,0.0,0.0,0.0,0.0,0.0,0.0,0.0,0.0,0.0,0.0,0.0,0.0,0.0,0.0,0.0,2.5113,2.5233,2.5376,2.5498,2.5544,2.5579,0.0,0.0,0.0,0.0,0.0,0.0,0.0,0.0,0.0,0.0,0.0,0.0,0.0,0.0,0.0,0.0,0.0,0.0,0.0,0.0,0.0,0.0,0.0,0.0,0.0,0.0,0.0,0.0,0.0,0.0,0.0,0.0,0.0,0.0,0.0,0.0,0.0,0.0,0.0,0.0,0.0,0.0,0.0,0.0,0.0,0.0,0.0,0.0,0.0,0.0,0.0,0.0,0.0,0.0,0.0,0.0,0.0,0.0,0.0,0.0,0.0,0.0,0.0,0.0,0.0,0.0,0.0,0.0,0.0,0.0,0.0,0.0,0.0,0.0,0.0,0.0,0.0,0.0,0.0,0.0,0.0,0.0,0.0,0.0,0.0,0.0,0.0,0.0,0.0,0.0,0.0,0.0,0.0,0.0,0.0,0.0,0.0,0.0,0.0,0.0,0.0,0.0,0.0,0.0,0.0,0.0,0.0,0.0,0.0,2.5206,0.0,2.5445,2.5511,2.5576,2.5604,0.0,0.0,0.0,0.0,0.0,0.0,0.0,0.0,0.0,0.0,0.0,0.0,0.0,0.0,0.0,0.0,0.0,0.0,0.0,0.0,0.0,0.0,0.0,0.0,0.0,0.0,0.0,0.0,0.0,0.0,0.0,0.0,0.0,0.0,0.0,0.0,0.0,0.0,0.0,0.0,0.0,0.0,0.0,0.0,0.0,0.0,0.0,0.0,0.0,0.0,0.0,0.0,0.0,0.0,0.0,0.0,0.0,0.0,0.0,0.0,0.0,0.0,0.0,0.0,0.0,0.0,0.0,0.0,0.0,0.0,0.0,0.0,0.0,0.0,0.0,0.0,0.0,0.0,0.0,0.0,0.0,0.0,0.0,0.0,0.0,0.0,0.0,0.0,0.0,0.0,0.0,0.0,0.0,0.0,0.0,0.0,0.0,0.0,0.0,0.0,0.0,0.0,0.0,0.0,0.0,0.0,0.0,0.0,2.5134,2.537,2.5459,2.5488,2.5518,2.5564,2.5599,0.0,0.0,0.0,0.0,0.0,0.0,0.0,0.0,0.0,0.0,0.0,0.0,0.0,0.0,0.0,0.0,0.0,0.0,0.0,0.0,0.0,0.0,0.0,0.0,0.0,0.0,0.0,0.0,0.0,0.0,0.0,0.0,0.0,0.0,0.0,0.0,0.0,0.0,0.0,0.0,0.0,0.0,0.0,0.0,0.0,0.0,0.0,0.0,0.0,0.0,0.0,0.0,0.0,0.0,0.0,0.0,0.0,0.0,0.0,0.0,0.0,0.0,0.0,0.0,0.0,0.0,0.0,0.0,0.0,0.0,0.0,0.0,0.0,0.0,0.0,0.0,0.0,0.0,0.0,0.0,0.0,0.0,0.0,0.0,0.0,0.0,0.0,0.0,0.0,0.0,0.0,0.0,0.0,0.0,0.0,0.0,0.0,0.0,0.0,0.0,0.0,0.0,0.0,0.0,0.0,0.0,0.0,0.0,0.0,2.5398,2.5476,2.5503,2.5518,2.5568,2.56,0.0,0.0,0.0,0.0,0.0,0.0,0.0,0.0,0.0,0.0,0.0,0.0,0.0,0.0,0.0,0.0,0.0,0.0,0.0,0.0,0.0,0.0,0.0,0.0,0.0,0.0,0.0,0.0,0.0,0.0,0.0,0.0,0.0,0.0,0.0,0.0,0.0,0.0,0.0,0.0,0.0,0.0,0.0,0.0,0.0,0.0,0.0,0.0,0.0,0.0,0.0,0.0,0.0,0.0,0.0,0.0,0.0,0.0,0.0,0.0,0.0,0.0,0.0,0.0,0.0,0.0,0.0,0.0,0.0,0.0,0.0,0.0,0.0,0.0,0.0,0.0,0.0,0.0,0.0,0.0,0.0,0.0,0.0,0.0,0.0,0.0,0.0,0.0,0.0,0.0,0.0,0.0,0.0,0.0,0.0,0.0,0.0,0.0,0.0,0.0,0.0,0.0,0.0,0.0,0.0,0.0,0.0,0.0,0.0,2.5388,2.5472,2.5517,2.5511,2.556,2.561,2.561,0.0,0.0,0.0,0.0,0.0,0.0,0.0,0.0,0.0,0.0,0.0,0.0,0.0,0.0,0.0,0.0,0.0,0.0,0.0,0.0,0.0,0.0,0.0,0.0,0.0,0.0,0.0,0.0,0.0,0.0,0.0,0.0,0.0,0.0,0.0,0.0,0.0,0.0,0.0,0.0,0.0,0.0,0.0,0.0,0.0,0.0,0.0,0.0,0.0,0.0,0.0,0.0,0.0,0.0,0.0,0.0,0.0,0.0,0.0,0.0,0.0,0.0,0.0,0.0,0.0,0.0,0.0,0.0,0.0,0.0,0.0,0.0,0.0,0.0,0.0,0.0,0.0,0.0,0.0,0.0,0.0,0.0,0.0,0.0,0.0,0.0,0.0,0.0,0.0,0.0,0.0,0.0,0.0,0.0,0.0,0.0,0.0,0.0,0.0,0.0,0.0,0.0,0.0,0.0,0.0,0.0,0.0,0.0,2.5387,2.5456,2.5511,2.5518,2.5579,2.561,0.0,0.0,0.0,0.0,0.0,0.0,0.0,0.0,0.0,0.0,0.0,0.0,0.0,0.0,0.0,0.0,0.0,0.0,0.0,0.0,0.0,0.0,0.0,0.0,0.0,0.0,0.0,0.0,0.0,0.0,0.0,0.0,0.0,0.0,0.0,0.0,0.0,0.0,0.0,0.0,0.0,0.0,0.0,0.0,0.0,0.0,0.0,0.0,0.0,0.0,0.0,0.0,0.0,0.0,0.0,0.0,0.0,0.0,0.0,0.0,0.0,0.0,0.0,0.0,0.0,0.0,0.0,0.0,0.0,0.0,0.0,0.0,0.0,0.0,0.0,0.0,0.0,0.0,0.0,0.0,0.0,0.0,0.0,0.0,0.0,0.0,0.0,0.0,0.0,0.0,0.0,0.0,0.0,0.0,0.0,0.0,0.0,0.0,0.0,0.0,0.0,0.0,0.0,0.0,0.0,0.0,0.0,0.0,0.0,2.5387,2.5464,2.5503,2.5518,2.5568,2.5595,0.0,0.0,0.0,0.0,0.0,0.0,0.0,0.0,0.0,0.0,0.0,0.0,0.0,0.0,0.0,0.0,0.0,0.0,0.0,0.0,0.0,0.0,0.0,0.0,0.0,0.0,0.0,0.0,0.0,0.0,0.0,0.0,0.0,0.0,0.0,0.0,0.0,0.0,0.0,0.0,0.0,0.0,0.0,0.0,0.0,0.0,0.0,0.0,0.0,0.0,0.0,0.0,0.0,0.0,0.0,0.0,0.0,0.0,0.0,0.0,0.0,0.0,0.0,0.0,0.0,0.0,0.0,0.0,0.0,0.0,0.0,0.0,0.0,0.0,0.0,0.0,0.0,0.0,0.0,0.0,0.0,0.0,0.0,0.0,0.0,0.0,0.0,0.0,0.0,0.0,0.0,0.0,0.0,0.0,0.0,0.0,0.0,0.0,0.0,0.0,0.0,0.0,0.0,0.0,0.0,0.0,0.0,0.0,2.5312,2.536,2.5434,2.5456,2.551,2.5564,2.5599,0.0,0.0,0.0,0.0,0.0,0.0,0.0,0.0,0.0,0.0,0.0,0.0,0.0,0.0,0.0,0.0,0.0,0.0,0.0,0.0,0.0,0.0,0.0,0.0,0.0,0.0,0.0,0.0,0.0,0.0,0.0,0.0,0.0,0.0,0.0,0.0,0.0,0.0,0.0,0.0,0.0,0.0,0.0,0.0,0.0,0.0,0.0,0.0,0.0,0.0,0.0,0.0,0.0,0.0,0.0,0.0,0.0,0.0,0.0,0.0,0.0,0.0,0.0,0.0,0.0,0.0,0.0,0.0,0.0,0.0,0.0,0.0,0.0,0.0,0.0,0.0,0.0,0.0,0.0,0.0,0.0,0.0,0.0,0.0,0.0,0.0,0.0,0.0,0.0,0.0,0.0,0.0,0.0,0.0,0.0,0.0,0.0,0.0,0.0,0.0,0.0,0.0,0.0,0.0,0.0,0.0,0.0,0.0,2.5233,2.5303,2.5351,2.5425,2.5484,2.5557,2.5601,0.0,0.0,0.0,0.0,0.0,0.0,0.0,0.0,0.0,0.0,0.0,0.0,0.0,0.0,0.0,0.0,0.0,0.0,0.0,0.0,0.0,0.0,0.0,0.0,0.0,0.0,0.0,0.0,0.0,0.0,0.0,0.0,0.0,0.0,0.0,0.0,0.0,0.0,0.0,0.0,0.0,0.0,0.0,0.0,0.0,0.0,0.0,0.0,0.0,0.0,0.0,0.0,0.0,0.0,0.0,0.0,0.0,0.0,0.0,0.0,0.0,0.0,0.0,0.0,0.0,0.0,0.0,0.0,0.0,0.0,0.0,0.0,0.0,0.0,0.0,0.0,0.0,0.0,0.0,0.0,0.0,0.0,0.0,0.0,0.0,0.0,0.0,0.0,0.0,0.0,0.0,0.0,0.0,0.0,0.0,0.0,0.0,0.0,0.0,0.0,0.0,0.0,0.0,0.0,0.0,0.0,0.0,0.0,2.525,2.5292,2.5303,2.5361,2.5423,2.5483,2.5538,0.0,0.0,0.0,0.0,0.0,0.0,0.0,0.0,0.0,0.0,0.0,0.0,0.0,0.0,0.0,0.0,0.0,0.0,0.0,0.0,0.0,0.0,0.0,0.0,0.0,0.0,0.0,0.0,0.0,0.0,0.0,0.0,0.0,0.0,0.0,0.0,0.0,0.0,0.0,0.0,0.0,0.0,0.0,0.0,0.0,0.0,0.0,0.0,3.739,0.0,0.0,0.0,0.0,0.0,0.0,0.0,0.0,0.0,0.0,0.0,0.0,0.0,0.0,0.0,0.0,0.0,0.0,0.0,0.0,0.0,0.0,0.0,0.0,0.0,0.0,0.0,0.0,0.0,0.0,0.0,0.0,0.0,0.0,0.0,0.0,0.0,0.0,0.0,0.0,0.0,0.0,0.0,0.0,0.0,0.0,0.0,0.0,0.0,0.0,0.0,0.0,0.0,0.0,0.0,0.0,0.0,0.0,0.0,2.5217,2.525,2.5241,2.5283,2.5351,2.5412,2.5495,0.0,0.0,0.0,0.0,0.0,0.0,0.0,0.0,0.0,0.0,0.0,0.0,0.0,0.0,0.0,0.0,0.0,0.0,0.0,0.0,0.0,0.0,0.0,0.0,0.0,0.0,0.0,0.0,0.0,0.0,0.0,0.0,0.0,0.0,0.0,0.0,0.0,0.0,0.0,0.0,0.0,0.0,0.0,0.0,0.0,0.0,0.0,0.0,0.0,0.0,0.0,0.0,0.0,0.0,0.0,0.0,0.0,0.0,0.0,0.0,0.0,0.0,0.0,0.0,0.0,0.0,0.0,0.0,0.0,0.0,0.0,0.0,0.0,0.0,0.0,0.0,0.0,0.0,0.0,0.0,0.0,0.0,0.0,0.0,0.0,0.0,0.0,0.0,0.0,0.0,0.0,0.0,0.0,0.0,0.0,0.0,0.0,0.0,0.0,0.0,0.0,0.0,0.0,0.0,0.0,0.0,0.0,2.5156,2.5172,2.5176,2.5206,2.522,2.5293,2.5341,2.5416,2.5484,0.0,0.0,0.0,0.0,0.0,0.0,0.0,0.0,0.0,0.0,0.0,0.0,0.0,0.0,0.0,0.0,0.0,0.0,0.0,0.0,0.0,0.0,0.0,0.0,0.0,0.0,0.0,0.0,0.0,0.0,0.0,0.0,0.0,0.0,0.0,0.0,0.0,0.0,3.3771,3.4491,0.0,0.0,0.0,0.0,0.0,0.0,0.0,0.0,3.938,0.0,0.0,0.0,0.0,0.0,0.0,0.0,0.0,0.0,0.0,0.0,0.0,0.0,0.0,0.0,0.0,0.0,0.0,0.0,0.0,0.0,0.0,0.0,0.0,0.0,0.0,0.0,0.0,0.0,0.0,0.0,0.0,0.0,0.0,0.0,0.0,0.0,0.0,0.0,0.0,0.0,0.0,0.0,0.0,0.0,0.0,0.0,0.0,0.0,0.0,0.0,0.0,0.0,0.0,0.0,0.0,2.5082,2.512,2.5125,2.5125,2.5184,2.5217,2.5228,2.5282,2.5312,2.537,0.0,0.0,0.0,0.0,0.0,0.0,0.0,0.0,0.0,0.0,0.0,0.0,0.0,0.0,0.0,0.0,0.0,0.0,0.0,0.0,0.0,0.0,0.0,0.0,0.0,0.0,0.0,0.0,0.0,0.0,0.0,0.0,0.0,0.0,0.0,0.0,0.0,0.0,0.0,3.4813,3.5173,0.0,0.0,0.0,0.0,0.0,0.0,0.0,0.0,3.9889,0.0,0.0,0.0,0.0,0.0,0.0,0.0,0.0,0.0,0.0,0.0,0.0,0.0,0.0,0.0,0.0,0.0,0.0,0.0,0.0,0.0,0.0,0.0,0.0,0.0,0.0,0.0,0.0,0.0,0.0,0.0,0.0,0.0,0.0,0.0,0.0,0.0,0.0,0.0,0.0,0.0,0.0,0.0,0.0,0.0,0.0,0.0,0.0,0.0,0.0,0.0,0.0,0.0,0.0,0.0,2.5057,2.5095,2.5076,2.5107,2.5137,2.5172,2.5214,2.5228,2.525,0.0,0.0,0.0,0.0,0.0,0.0,0.0,0.0,0.0,0.0,0.0,0.0,0.0,0.0,0.0,0.0,0.0,0.0,0.0,0.0,0.0,0.0,0.0,0.0,0.0,0.0,0.0,0.0,0.0,0.0,0.0,0.0,0.0,0.0,0.0,0.0,0.0,0.0,0.0,0.0,3.5287,3.5723,3.614,0.0,0.0,0.0,0.0,0.0,0.0,3.9665,3.9889,0.0,0.0,0.0,0.0,0.0,0.0,0.0,0.0,0.0,0.0,0.0,0.0,0.0,0.0,0.0,0.0,0.0,0.0,0.0,0.0,0.0,0.0,0.0,0.0,0.0,0.0,0.0,0.0,0.0,0.0,0.0,0.0,0.0,0.0,0.0,0.0,0.0,0.0,0.0,0.0,0.0,0.0,0.0,0.0,0.0,0.0,0.0,0.0,0.0,0.0,0.0,0.0,0.0,0.0,0.0,2.4985,2.5025,2.5089,2.507,2.5076,2.5113,2.5168,2.5172,2.5164,0.0,0.0,0.0,0.0,0.0,0.0,0.0,0.0,0.0,0.0,0.0,0.0,0.0,0.0,0.0,0.0,0.0,0.0,0.0,0.0,0.0,0.0,0.0,0.0,0.0,0.0,0.0,0.0,0.0,0.0,0.0,0.0,0.0,0.0,0.0,0.0,0.0,0.0,0.0,0.0,0.0,3.6329,3.6651,3.7239,0.0,0.0,0.0,0.0,4.0063,4.0135,0.0,0.0,0.0,0.0,0.0,0.0,0.0,0.0,0.0,0.0,0.0,0.0,0.0,0.0,0.0,0.0,0.0,0.0,0.0,0.0,0.0,0.0,0.0,0.0,0.0,0.0,0.0,0.0,0.0,0.0,0.0,0.0,0.0,0.0,0.0,0.0,0.0,0.0,0.0,0.0,0.0,0.0,0.0,0.0,0.0,0.0,0.0,0.0,0.0,0.0,0.0,0.0,0.0,0.0,0.0,0.0,2.4912,2.4966,2.5012,2.5012,2.5013,2.5025,2.5095,2.5057,2.5057,0.0,0.0,0.0,0.0,0.0,0.0,0.0,0.0,0.0,0.0,0.0,0.0,0.0,0.0,0.0,0.0,0.0,0.0,0.0,0.0,0.0,0.0,0.0,0.0,0.0,0.0,0.0,0.0,0.0,0.0,0.0,0.0,0.0,0.0,0.0,0.0,0.0,0.0,0.0,0.0,0.0,3.6727,3.8226,3.851,3.8831,0.0,0.0,4.0063,4.0915,4.1067,0.0,0.0,0.0,0.0,0.0,0.0,0.0,0.0,0.0,0.0,0.0,0.0,0.0,0.0,0.0,0.0,0.0,0.0,0.0,0.0,0.0,0.0,0.0,0.0,0.0,0.0,0.0,0.0,0.0,0.0,0.0,0.0,0.0,0.0,0.0,0.0,0.0,0.0,0.0,0.0,0.0,0.0,0.0,0.0,0.0,0.0,0.0,0.0,0.0,0.0,0.0,0.0,0.0,0.0,0.0,2.487,2.4898,2.4959,2.4985,2.5004,2.4993,2.5038,2.5057,2.5051,2.5051,0.0,0.0,0.0,0.0,0.0,0.0,0.0,0.0,0.0,0.0,0.0,0.0,0.0,0.0,0.0,0.0,0.0,0.0,0.0,0.0,0.0,0.0,0.0,0.0,0.0,0.0,0.0,0.0,0.0,0.0,0.0,0.0,0.0,0.0,0.0,0.0,0.0,0.0,0.0,0.0,0.0,0.0,3.8584,3.9096,0.0,0.0,0.0,4.0912,4.1768,0.0,0.0,0.0,0.0,0.0,0.0,0.0,0.0,0.0,0.0,0.0,0.0,0.0,0.0,0.0,0.0,0.0,0.0,0.0,0.0,0.0,0.0,0.0,0.0,0.0,0.0,0.0,0.0,0.0,0.0,0.0,0.0,0.0,0.0,0.0,0.0,0.0,0.0,0.0,0.0,0.0,0.0,0.0,0.0,0.0,0.0,0.0,0.0,0.0,0.0,0.0,0.0,0.0,0.0,0.0,0.0,0.0,2.4875,2.4936,2.4964,2.4977,2.4972,2.4999,2.4999,2.5012,0.0,0.0,0.0,0.0,0.0,0.0,0.0,0.0,0.0,0.0,0.0,0.0,0.0,0.0,0.0,0.0,0.0,0.0,0.0,0.0,0.0,0.0,0.0,0.0,0.0,0.0,0.0,2.9719,0.0,0.0,0.0,0.0,0.0,0.0,0.0,0.0,0.0,0.0,0.0,0.0,0.0,0.0,3.8795,3.8963,3.9702,4.046,0.0,0.0,4.1806,4.2602,4.2735,4.2791,0.0,0.0,0.0,0.0,0.0,0.0,0.0,0.0,0.0,0.0,0.0,0.0,0.0,0.0,0.0,0.0,0.0,0.0,0.0,0.0,0.0,0.0,0.0,0.0,0.0,0.0,0.0,0.0,0.0,0.0,0.0,0.0,0.0,0.0,0.0,0.0,0.0,0.0,0.0,0.0,0.0,0.0,0.0,0.0,0.0,0.0,0.0,0.0,0.0,0.0,0.0,0.0,0.0,0.0,0.0,2.4806,2.4798,2.4856,2.4898,2.4898,2.4931,2.4991,2.4945,2.4898,0.0,0.0,0.0,0.0,0.0,0.0,0.0,0.0,0.0,0.0,0.0,0.0,0.0,0.0,0.0,0.0,0.0,0.0,0.0,0.0,0.0,0.0,0.0,0.0,0.0,0.0,0.0,0.0,0.0,0.0,0.0,0.0,0.0,0.0,0.0,0.0,0.0,0.0,0.0,0.0,0.0,3.8963,3.9721,4.0555,4.1143,0.0,0.0,4.2621,4.3474,4.3606,4.3872,4.4611,0.0,0.0,0.0,0.0,0.0,0.0,0.0,0.0,0.0,0.0,0.0,0.0,0.0,0.0,0.0,0.0,0.0,0.0,0.0,0.0,0.0,0.0,0.0,0.0,0.0,0.0,0.0,0.0,0.0,0.0,0.0,0.0,0.0,0.0,0.0,0.0,0.0,0.0,0.0,0.0,0.0,0.0,0.0,0.0,0.0,0.0,0.0,0.0,0.0,0.0,0.0,0.0,0.0,2.4757,2.4806,2.4817,2.4808,2.4842,2.4842,2.4856,2.4889,2.4837,2.4842,0.0,0.0,0.0,0.0,0.0,0.0,0.0,0.0,0.0,0.0,0.0,0.0,0.0,0.0,0.0,0.0,0.0,0.0,0.0,0.0,0.0,0.0,0.0,0.0,0.0,0.0,0.0,0.0,3.1336,3.2203,3.3089,0.0,0.0,0.0,0.0,0.0,0.0,0.0,0.0,0.0,0.0,3.974,4.0574,4.101,0.0,0.0,4.3019,4.3493,4.4308,4.4459,4.4535,4.4857,4.4895,0.0,0.0,0.0,0.0,0.0,0.0,0.0,0.0,0.0,0.0,0.0,0.0,0.0,0.0,0.0,0.0,0.0,0.0,0.0,0.0,0.0,0.0,0.0,0.0,0.0,0.0,0.0,0.0,0.0,0.0,0.0,0.0,0.0,0.0,0.0,0.0,0.0,0.0,0.0,0.0,0.0,0.0,0.0,0.0,0.0,0.0,0.0,0.0,0.0,0.0,0.0,0.0,2.4676,2.4745,2.4772,2.4768,2.4783,2.4779,2.4798,2.4813,2.4798,2.4817,0.0,0.0,0.0,0.0,0.0,0.0,0.0,0.0,0.0,0.0,0.0,0.0,0.0,0.0,0.0,0.0,0.0,0.0,0.0,0.0,0.0,0.0,0.0,0.0,0.0,0.0,0.0,0.0,3.2185,3.3034,3.3942,0.0,0.0,0.0,0.0,0.0,0.0,0.0,0.0,0.0,0.0,4.0214,4.1067,4.1408,4.2071,4.3493,4.391,4.4251,4.48,4.4895,4.4895,4.4895,0.0,0.0,0.0,0.0,0.0,0.0,0.0,0.0,0.0,0.0,0.0,0.0,0.0,0.0,0.0,0.0,0.0,0.0,0.0,0.0,0.0,0.0,0.0,0.0,0.0,0.0,0.0,0.0,0.0,0.0,2.0864,0.0,0.0,0.0,0.0,0.0,0.0,0.0,0.0,0.0,0.0,0.0,0.0,0.0,0.0,0.0,0.0,0.0,0.0,0.0,0.0,0.0,0.0,2.4615,2.4596,2.4666,2.4714,2.4707,2.4757,2.4821,2.4813,2.4821,2.4806,2.4806,0.0,0.0,0.0,0.0,0.0,0.0,0.0,0.0,0.0,0.0,0.0,0.0,0.0,0.0,0.0,0.0,0.0,0.0,0.0,0.0,0.0,0.0,0.0,0.0,0.0,0.0,3.2202,3.3015,3.3923,0.0,0.0,0.0,0.0,0.0,0.0,0.0,0.0,0.0,0.0,3.9399,4.0211,4.1124,4.1882,4.2716,4.3587,4.4364,4.4876,4.4895,4.4895,4.4895,0.0,0.0,0.0,0.0,0.0,0.0,0.0,0.0,0.0,0.0,0.0,0.0,0.0,0.0,0.0,0.0,0.0,0.0,0.0,0.0,0.0,0.0,0.0,0.0,0.0,0.0,0.0,1.9082,1.9255,0.0,0.0,0.0,0.0,0.0,0.0,0.0,0.0,0.0,0.0,0.0,2.4057,2.4075,0.0,0.0,0.0,0.0,0.0,0.0,0.0,0.0,0.0,0.0,0.0,0.0,2.4498,2.4547,2.4564,2.4596,2.4679,2.4732,2.4729,2.4719,2.4723,2.4726,2.4729,0.0,0.0,0.0,0.0,0.0,0.0,0.0,0.0,0.0,0.0,0.0,0.0,0.0,0.0,0.0,0.0,0.0,0.0,0.0,0.0,0.0,0.0,0.0,0.0,0.0,3.3214,0.0,0.0,0.0,0.0,0.0,0.0,0.0,0.0,0.0,0.0,0.0,3.9096,4.0214,4.0593,4.1275,4.2678,4.3095,4.3549,0.0,0.0,0.0,0.0,0.0,0.0,0.0,0.0,0.0,0.0,0.0,0.0,0.0,0.0,4.5593,4.5307,4.4986,4.4854,4.5069,0.0,0.0,0.0,0.0,0.0,0.0,0.0,0.0,0.0,0.0,0.0,0.0,0.0,0.0,0.0,0.0,2.0281,0.0,0.0,0.0,0.0,0.0,0.0,0.0,0.0,2.3976,2.3978,2.3978,2.3978,2.4016,0.0,2.4152,2.4247,0.0,0.0,0.0,0.0,0.0,0.0,0.0,0.0,2.4357,2.4392,2.4445,2.4532,2.4617,2.4652,2.4666,2.466,2.466,2.466,2.4666,2.4615,2.5234,0.0,0.0,0.0,0.0,0.0,0.0,0.0,0.0,0.0,0.0,0.0,0.0,0.0,0.0,0.0,0.0,0.0,0.0,0.0,0.0,0.0,0.0,0.0,3.4041,0.0,0.0,0.0,0.0,0.0,0.0,0.0,0.0,0.0,3.8698,3.9191,3.9968,4.1067,4.1446,4.2128,4.3512,0.0,0.0,0.0,0.0,0.0,0.0,0.0,4.5331,4.535,4.6051,4.6689,4.6868,4.7231,4.7569,4.7721,0.0,0.0,4.6316,4.592,4.5732,4.5927,4.5805,4.5798,4.6087,4.6558,4.692,0.0,0.0,0.0,0.0,0.0,0.0,0.0,0.0,1.9577,2.0004,0.0,2.0915,0.0,0.0,0.0,0.0,0.0,2.3834,0.0,0.0,2.3917,2.3976,2.3976,2.3958,2.3996,2.3996,2.4132,2.417,2.4208,2.4321,0.0,0.0,0.0,0.0,0.0,0.0,2.4192,2.421,2.4321,2.443,2.45,2.4568,2.4599,2.4599,2.4599,2.4599,2.4599,2.4599,2.4972,2.5794,2.6635,0.0,0.0,0.0,0.0,0.0,0.0,0.0,0.0,0.0,0.0,0.0,0.0,0.0,0.0,0.0,0.0,0.0,0.0,0.0,0.0,3.4639,0.0,0.0,0.0,0.0,0.0,0.0,0.0,0.0,0.0,0.0,3.885,4.0157,4.1237,4.1313,0.0,0.0,0.0,0.0,4.4023,4.4781,4.4895,4.4914,4.4952,4.5653,4.6184,4.6222,0.0,0.0,4.8324,4.839,4.8555,4.9132,4.9094,4.8494,4.6857,4.6249,4.6137,4.6697,4.6699,4.6848,4.7536,4.7772,4.7844,1.5562,0.0,0.0,0.0,0.0,1.9018,1.9236,1.9588,1.9679,1.9938,2.0257,2.0921,0.0,0.0,0.0,0.0,0.0,0.0,2.3589,2.3656,2.3638,2.3656,2.37,2.37,2.3743,2.3807,2.3871,2.3953,2.4054,2.4095,2.419,2.4321,0.0,0.0,0.0,0.0,2.4095,2.4114,2.4228,2.4284,2.4358,2.4464,2.4551,2.4603,2.4566,2.453,2.453,2.4532,2.4906,2.5706,2.6581,0.0,0.0,0.0,0.0,0.0,0.0,0.0,0.0,0.0,0.0,0.0,0.0,0.0,0.0,0.0,0.0,0.0,0.0,0.0,3.5465,3.554,3.5766,0.0,0.0,0.0,0.0,0.0,0.0,0.0,0.0,0.0,4.0413,4.081,4.159,0.0,0.0,4.3625,4.444,4.4554,4.4649,4.4876,0.0,0.0,0.0,4.6032,4.6392,4.6961,4.7757,4.8564,4.9268,4.9363,4.951,5.0121,5.0075,4.987,4.9768,4.8512,4.7638,4.7645,4.7956,4.8261,4.8532,4.8985,4.9401,1.1168,1.4495,1.6579,1.7639,1.8019,1.8754,1.9135,1.9344,1.9593,1.9942,2.0478,2.1083,2.1522,2.1754,2.2453,0.0,0.0,0.0,2.3271,2.3401,2.3383,2.3407,2.3494,2.3476,2.3499,2.3526,2.3634,2.3743,2.381,2.3834,2.3899,2.4037,0.0,0.0,2.4052,2.3971,2.3953,2.3992,2.4034,2.4075,2.4172,2.4303,2.4375,2.4447,2.4428,2.4409,2.4409,2.4446,2.4688,2.517,2.6005,2.6861,0.0,0.0,0.0,0.0,0.0,0.0,0.0,0.0,0.0,0.0,0.0,3.3869,0.0,0.0,0.0,0.0,3.4988,3.5512,3.6291,3.6385,0.0,0.0,0.0,0.0,0.0,0.0,0.0,4.007,4.086,4.1569,4.1963,4.2019,4.2427,4.3545,4.3966,4.4364,4.4838,0.0,4.4895,4.4895,4.5198,4.5596,4.6127,4.6752,4.7453,4.8249,4.8799,4.9265,4.9665,4.9721,4.9905,5.0384,5.043,5.0449,5.099,5.0018,4.9098,4.8958,4.9174,4.9347,4.9383,4.9764,5.009,0.5849,0.7847,1.2678,1.5191,1.6048,1.77,1.853,1.8773,1.9228,2.002,2.0943,2.1259,2.1538,2.1853,2.2175,0.0,2.2721,2.2782,2.291,2.3052,2.3102,2.3168,2.3241,2.3241,2.3241,2.3265,2.3389,2.344,2.3463,2.3518,2.3562,2.3562,2.3795,2.3873,2.3765,2.3783,2.3761,2.3783,2.3771,2.3837,2.3976,2.4115,2.421,2.4192,2.4266,2.4303,2.4284,2.4358,2.4375,2.4413,2.5208,2.6061,2.686,0.0,0.0,0.0,0.0,0.0,0.0,0.0,0.0,0.0,0.0,0.0,0.0,0.0,0.0,0.0,3.5534,0.0,3.7122,3.7197,0.0,0.0,0.0,3.8488,3.8507,3.9915,4.0891,4.0891,0.0,0.0,4.3288,0.0,4.3554,4.3772,4.4421,4.4895,4.4895,4.4895,4.4895,4.4895,4.5558,4.6108,4.6373,4.7681,4.8932,4.9614,4.9898,4.9805,4.9702,4.9663,4.9864,5.031,5.0309,5.0413,5.0837,5.0729,5.0652,5.0472,5.0337,5.018,5.018,5.0307,5.0434,-0.0449,0.219,0.6962,1.0948,1.4151,1.5545,1.6626,1.7518,1.8409,1.9117,1.9688,2.0135,2.0699,2.1213,2.1521,2.1744,2.1965,2.2108,2.232,2.2493,2.2493,2.2616,2.2756,2.2756,2.2782,2.2842,2.2927,2.3028,2.3126,2.3199,2.3182,2.3157,2.3271,2.343,2.3567,2.3522,2.3499,2.3499,2.3549,2.3664,2.3837,2.3978,2.4075,2.4114,2.419,2.4228,2.4229,2.4229,2.4266,2.434,2.5153,2.5968,2.6802,2.762,0.0,0.0,0.0,0.0,0.0,0.0,0.0,0.0,0.0,3.4602,3.4602,0.0,3.5692,0.0,3.6507,3.7338,3.8105,3.8135,0.0,0.0,3.9752,4.0196,4.0215,4.1098,4.1736,4.1717,4.2468,4.3096,4.3382,4.3928,4.4376,4.4531,4.4707,4.4846,4.4895,4.4895,4.4895,4.4914,4.5122,4.5653,4.698,4.8515,4.9652,4.986,4.9862,4.9807,4.974,4.9555,4.9696,5.0239,5.0224,5.0287,5.0798,5.1124,5.1292,5.1235,5.1103,5.1013,5.1013,5.1466,5.19,-0.5957,-0.3103,0.0992,0.4707,0.8158,1.1491,1.3783,1.5313,1.6561,1.7463,1.8159,1.9097,1.9803,2.0385,2.0651,2.0911,2.1212,2.143,2.1612,2.1816,2.1861,2.1982,2.2096,2.2124,2.2181,2.2226,2.2381,2.249,2.2554,2.2686,2.2721,2.2686,2.2799,2.2893,2.301,2.3168,2.3217,2.3199,2.3342,2.3458,2.3576,2.3768,2.3894,2.3935,2.4016,2.4113,2.4153,2.4172,2.421,2.4266,2.5078,2.593,2.6764,2.7599,2.8623,0.0,0.0,0.0,0.0,0.0,0.0,0.0,0.0,0.0,0.0,0.0,3.6734,3.7114,3.7608,3.825,3.8973,3.9322,3.9669,4.0134,4.0854,4.129,4.129,4.1975,4.2454,4.2473,4.3203,4.3755,4.3811,4.4214,4.457,4.4659,4.4685,4.4764,4.487,4.4895,4.4895,4.4895,4.5236,4.6051,4.7719,4.8715,4.9446,4.9768,4.9788,4.9721,4.9585,4.9476,4.9583,5.012,5.008,5.0101,5.0643,5.0871,5.1005,5.0929,5.1112,5.1411,5.1756,5.219,5.2498,-1.069,-0.7929,-0.4807,-0.2023,0.0799,0.6329,1.0076,1.2506,1.4081,1.5468,1.6715,1.7968,1.8815,1.9375,1.9662,1.9993,2.04,2.0632,2.0813,2.099,2.115,2.126,2.1354,2.1399,2.146,2.1491,2.1748,2.1882,2.1895,2.2108,2.2192,2.2192,2.2343,2.236,2.2321,2.2668,2.2902,2.2944,2.3144,2.3241,2.3241,2.3522,2.366,2.3667,2.3792,2.3935,2.4054,2.4132,2.4171,2.4228,2.5022,2.5891,2.6763,2.754,2.8767,0.0,3.1336,0.0,0.0,0.0,0.0,0.0,0.0,0.0,0.0,3.6911,3.781,3.8666,3.8764,3.9059,3.9792,4.0484,4.0929,4.0966,4.1646,4.2061,4.2052,4.2679,4.3154,4.3125,4.3807,4.4285,4.4248,4.4325,4.4411,4.4487,4.4524,4.4632,4.4796,4.4846,4.487,4.4889,4.5609,4.6556,4.7806,4.8283,4.8682,4.94,4.9495,4.9472,4.9427,4.9352,4.9482,4.9796,4.9695,4.9728,5.0222,5.018,5.0094,5.0007,5.0542,5.1303,5.2027,5.2371,5.2498,-1.4234,-1.1714,-0.9048,-0.6176,-0.3171,0.0053,0.4379,0.9299,1.1411,1.3567,1.575,1.6587,1.7329,1.7997,1.8387,1.8797,1.9236,1.96,1.9849,1.9993,2.0165,2.0351,2.0516,2.055,2.0649,2.0862,2.1039,2.115,2.129,2.1521,2.1628,2.1568,2.1811,2.1886,2.1827,0.0,0.0,0.0,2.2868,2.2995,2.2977,2.3223,2.3407,2.3458,2.3567,0.0,2.3837,2.3917,2.4034,2.4132,2.5,0.0,0.0,0.0,0.0,0.0,0.0,0.0,0.0,0.0,0.0,0.0,3.6363,3.6789,3.6873,3.7721,3.8599,3.941,3.9532,3.9891,4.0669,4.0828,4.113,4.1736,4.2462,4.2885,4.2771,4.3413,4.3886,4.3844,4.4004,4.414,4.414,4.4218,4.4344,4.4383,4.444,4.4496,4.4632,4.4693,4.4738,4.4775,4.5443,4.6086,4.6463,4.7087,4.7739,4.8409,4.8587,4.8713,4.9196,4.916,4.8993,4.9134,4.8827,4.86,4.8703,4.8995,4.9277,4.913,4.9782,5.0542,5.1357,5.2027,5.2498,-1.6705,0.0,-1.1864,-0.9156,0.0,-0.3619,-0.0054,0.4174,0.7789,1.1071,1.3949,1.4744,1.5588,1.6426,1.6905,1.741,1.7932,1.8416,1.8774,1.8925,1.917,1.9405,1.9528,1.9621,1.9814,2.0054,2.0277,2.0382,2.0534,2.0862,2.1007,2.0991,2.1276,2.1417,2.1433,2.1721,2.2061,2.2515,2.2632,2.2738,2.2799,2.2977,2.3168,2.3289,0.0,0.0,0.0,0.0,0.0,0.0,0.0,0.0,0.0,0.0,0.0,3.1014,3.1559,3.2321,3.3491,3.4022,3.4809,3.6149,3.7436,3.8246,3.8385,3.8832,3.9444,4.0259,4.0377,4.0717,4.1456,4.1832,4.2213,4.2583,4.3193,4.3562,4.349,4.3664,4.3841,4.3878,4.386,4.3892,4.3942,4.4023,4.4135,4.4188,4.4199,4.4306,4.444,4.4578,4.4659,4.4704,4.5014,4.5523,4.5938,4.6232,4.6788,4.7504,4.7961,4.8253,4.852,4.8751,4.8804,4.8642,4.8344,4.813,4.8065,4.827,4.8418,4.8387,4.8949,4.9582,5.0108,5.1067,5.19,-1.8615,-1.6522,-1.4059,-1.1526,-0.8929,-0.6154,-0.3322,-0.022,0.0,0.0,0.0,1.2646,1.3668,1.4688,1.5304,1.5929,1.6553,1.7164,1.7558,1.7814,1.8131,1.8327,1.8444,1.8636,1.8864,1.9169,1.9413,1.963,1.9722,2.0124,2.0361,2.0462,2.0714,2.0926,2.1167,2.145,2.1814,2.2237,2.2377,2.2515,2.2632,2.2764,2.2944,2.3102,2.3283,2.3489,2.3844,2.3909,2.4436,2.5424,2.6228,2.7043,2.7831,2.8688,2.9917,3.1501,3.1714,3.2484,3.4018,3.413,3.4897,3.6626,3.8212,3.9275,3.9626,3.965,4.0013,4.089,4.0971,4.1343,4.2208,4.2852,4.324,4.3362,4.3755,4.3955,4.3892,4.373,4.3615,4.3686,4.3615,4.3597,4.3701,4.38,4.3865,4.3923,4.3986,4.4097,4.4207,4.4383,4.4551,4.4605,4.47,4.4915,4.5442,4.5575,4.5839,4.6588,4.7192,4.7559,4.7754,4.812,4.8384,4.8344,4.813,4.7988,4.7902,4.7837,4.7699,4.7699,4.8224,4.8695,4.8822,4.9854,5.085,-1.9993,-1.8172,-1.5994,-1.3602,-1.1002,-0.8429,-0.4717,-0.011,0.4351,0.7425,0.9263,1.0396,1.1599,1.2743,1.3512,1.4323,1.5116,1.5748,1.6194,0.0,1.6912,1.7149,1.7313,1.7598,1.7868,1.8173,1.8472,1.8765,1.9043,1.9391,1.9624,1.9854,2.0085,2.0462,2.0909,2.1151,2.1435,2.1694,2.2077,2.2293,2.2366,2.2542,2.2729,2.2868,2.3045,2.3559,2.445,2.4527,2.5031,2.6046,2.689,2.7474,2.7734,2.8553,2.9779,3.1365,3.1597,3.2317,3.3836,3.3965,3.4674,3.6379,3.7479,3.8457,3.942,3.9514,3.9902,4.0729,4.0911,4.1531,4.2908,4.3183,4.3437,4.389,4.3974,4.391,4.3615,4.3513,4.3444,4.3322,4.3321,4.3338,4.3391,4.3529,4.3649,4.3682,4.3749,4.3883,4.3979,4.4195,4.4344,4.4344,4.4373,4.4429,4.4616,4.4531,4.4886,4.5567,4.5705,4.6192,4.7173,4.7351,4.7536,4.808,4.7937,4.7888,4.7842,4.7819,4.7717,4.7717,4.7898,4.7953,4.7989,4.8713,4.9474,-2.0949,-1.928,-1.7343,-1.5104,-1.2578,-0.8841,-0.523,-0.1763,0.1204,0.4142,0.686,0.8136,0.9438,1.0722,1.1635,1.2532,1.3402,1.416,1.4767,1.5241,1.5696,1.6003,1.6318,1.6557,1.6879,1.7271,1.7558,1.7935,1.8238,1.8549,1.8817,1.9124,1.9551,2.0015,2.053,2.1158,2.1582,2.1859,2.1936,2.2032,2.2163,2.2332,2.2685,2.3216,2.3449,2.4025,2.4997,2.5151,2.5683,2.67,2.7121,2.7592,2.8149,2.8609,2.9552,3.1137,3.1359,3.21,3.3661,3.4156,3.4907,3.6098,3.7022,3.7958,3.9017,3.9245,3.9919,4.1233,4.1428,4.2104,4.369,4.384,4.3874,4.4011,4.3892,4.3697,4.3444,4.3268,4.316,4.305,4.3013,4.305,4.3069,4.3232,4.3339,4.3356,4.3532,4.3652,4.3667,4.3781,4.3961,4.4067,4.4147,4.4147,4.4147,4.4147,4.4284,4.4606,4.4888,4.5275,4.595,4.6085,4.6576,4.7189,4.7248,4.7347,4.7656,4.7759,4.7717,4.7699,4.7699,4.7699,4.7772,4.7983,4.8555,-2.172,-2.02,-1.8455,-1.6103,-1.3211,-0.9103,-0.6012,-0.3805,-0.1934,0.0716,0.3896,0.5698,0.7317,0.8645,0.9688,1.0713,1.167,1.2561,1.3301,1.382,1.44,1.4869,1.5219,1.5522,1.5876,1.6299,1.6697,1.706,1.738,1.7666,1.8027,1.8447,1.8983,1.9626,2.0223,2.1069,2.171,2.2099,2.2086,2.217,2.2412,2.2593,2.3042,2.3692,2.3961,2.4538,2.5481,2.5665,2.6233,2.7219,2.7342,2.7707,2.843,2.8587,2.9326,3.0758,3.1101,3.1837,3.3328,3.4036,3.4715,3.5471,3.6357,3.7277,3.8175,3.8744,3.9798,4.1483,4.1819,4.2492,4.3903,4.4248,4.4147,4.3942,4.3697,4.3495,4.3232,4.3032,4.29,4.2862,4.2765,4.2765,4.2842,4.2974,4.3031,4.3123,4.3268,4.3375,4.3393,4.3393,4.3532,4.3749,4.3878,4.3942,4.3961,4.3961,4.3929,4.3865,4.4247,4.4591,4.4765,4.5076,4.5526,4.6194,4.6313,4.6413,4.6993,4.712,4.7065,4.7011,4.7138,4.7464,4.7681,4.7633,4.7836,-2.2324,-2.1032,-1.9346,-1.629,-1.2464,-0.9926,-0.7664,-0.5599,-0.3817,-0.2054,0.0,0.3032,0.5175,0.6533,0.7759,0.8926,1.0077,1.0998,1.1805,1.2395,1.3054,1.3637,1.4154,1.4468,1.4926,1.5389,1.5776,1.6083,1.6429,1.6782,1.7271,1.7867,1.8408,1.9185,2.0118,2.0745,2.1399,2.2245,2.2639,2.3066,2.3621,2.3833,2.4026,2.4233,2.4513,2.5052,2.5911,2.612,2.6673,2.7566,2.7816,2.7982,2.8136,2.8273,2.9008,3.0525,3.0725,3.1438,3.2857,3.3046,3.3476,3.4293,3.5181,3.6067,3.7039,3.7927,3.9357,4.1056,4.1622,4.2377,4.3825,4.4036,4.3923,4.3697,4.3529,4.3375,4.3032,4.2938,4.2824,4.2631,4.2609,4.2591,4.2649,4.2745,4.286,4.29,4.2975,4.3013,4.3123,4.3123,4.316,4.3304,4.3461,4.3649,4.3753,4.3837,4.3753,4.3649,4.3637,4.3885,4.4218,4.4381,4.4649,4.5279,4.5457,4.549,4.5599,4.5526,4.5635,4.5943,4.6287,4.6812,4.7404,4.7482,4.7558,-2.2705,-2.1532,-2.0097,-1.7183,-1.347,-1.1367,-0.9328,-0.7217,-0.5612,-0.3981,-0.233,-0.0055,0.2259,0.4529,0.5837,0.7138,0.8364,0.9393,1.0332,1.1157,1.1814,1.2453,1.3044,1.3426,1.3909,1.4422,1.4846,1.5209,1.5644,1.6114,1.6587,1.7089,1.7906,1.8769,1.9525,2.0727,2.1717,2.2365,2.32,2.3818,2.418,2.399,2.41,2.4564,2.4894,2.5441,2.6248,2.6576,2.6933,2.7365,2.7569,2.7689,2.7813,2.7853,2.8611,3.011,3.115,3.1962,3.2669,3.2606,3.2908,3.3755,3.4211,3.5059,3.6394,3.7099,3.8183,3.9904,4.0935,4.1934,4.2894,4.3518,4.373,4.3477,4.3321,4.3105,4.2862,4.2745,4.2588,4.245,4.2409,4.2391,4.245,4.2548,4.2645,4.2727,4.2709,4.2747,4.2822,4.2822,4.2842,4.2956,4.305,4.3196,4.3375,4.3428,4.3428,4.3375,4.3304,4.3415,4.3542,4.3521,4.3699,4.4458,4.4566,4.4802,4.5327,4.5291,4.5309,4.5345,4.5436,4.6033,4.683,4.6825,4.6841,-2.3,-2.1849,-2.0264,-1.771,-1.4654,-1.278,-1.0856,-0.8854,-0.7228,-0.5675,-0.4152,-0.2605,-0.0553,0.1938,0.3819,0.5358,0.6661,0.777,0.8776,0.9784,1.0559,1.1266,1.1963,1.2433,1.2919,1.3437,1.3862,1.434,1.4835,1.5377,1.5881,1.6429,1.7333,1.8254,1.9168,2.0634,2.1714,2.2424,2.3355,2.3979,2.4225,2.4014,2.42,2.4886,2.5273,2.5729,2.6367,2.6691,2.6875,2.6989,2.7166,2.731,2.7434,2.7656,2.847,3.0031,3.1428,3.2197,3.2284,3.2232,3.2424,3.2948,3.3371,3.4235,3.5527,3.6221,3.713,3.8474,3.9797,4.0939,4.2124,4.2815,4.3151,4.3123,4.3032,4.2862,4.2706,4.2566,4.2463,4.2328,4.2328,4.2287,4.2328,4.2387,4.2468,4.249,4.253,4.2548,4.2588,4.2588,4.2627,4.2688,4.2745,4.2842,4.305,4.3178,4.3142,4.3142,4.3105,4.3104,4.3067,4.2956,4.2918,4.3715,4.3733,4.3842,4.4168,4.4458,4.4802,4.491,4.5001,4.5236,4.5992,4.5954,4.6187,-2.3186,-2.2033,-1.9637,-1.7611,-1.5782,-1.3971,-1.2184,-1.0378,-0.8756,-0.7233,-0.5788,-0.421,-0.2777,-0.1279,0.1609,0.3666,0.498,0.6176,0.7256,0.8283,0.9235,1.0115,1.0864,1.146,1.2058,1.2618,1.2967,1.3494,1.4212,1.4477,1.506,1.601,1.6699,1.7759,1.9136,2.0107,2.113,2.2158,2.2786,2.329,2.3638,2.4028,2.4538,2.5173,2.5561,2.5709,2.5954,2.6243,2.6418,2.6453,2.6691,2.6908,2.7041,2.7756,2.8887,3.0386,3.1353,3.1819,3.1819,3.1819,3.1871,3.2012,3.2696,3.3554,3.4449,3.5357,3.6247,3.7167,3.8216,3.9588,4.1198,4.1741,4.2214,4.2662,4.2768,4.2634,4.2526,4.2445,4.2445,4.2328,4.2287,4.2287,4.2287,4.2287,4.2328,4.2328,4.2328,4.2369,4.2486,4.2503,4.2526,4.2588,4.2609,4.2688,4.2862,4.2956,4.2994,4.2956,4.2956,4.3012,4.2956,4.29,4.2955,4.2973,4.3061,4.3098,4.3045,4.3226,4.3588,4.3842,4.4095,4.4455,4.5098,4.5083,4.5408,-2.2952,-2.1556,-1.9917,-1.8317,-1.684,-1.5245,-1.3564,-1.1853,-1.0343,-0.8808,-0.7292,-0.5842,-0.4375,-0.2834,-0.1,0.122,0.344,0.47,0.5905,0.7052,0.8078,0.8967,0.9791,1.0423,1.104,1.1592,1.2058,1.2638,1.3306,1.4021,1.4644,1.5306,1.6413,1.7585,1.8598,1.9658,2.0633,2.1452,2.2002,2.248,2.2875,2.3231,2.3666,2.4256,2.4958,2.5378,2.5524,2.5881,2.6099,2.6099,2.6365,2.6521,2.6708,2.7893,2.9085,3.0125,3.1001,3.1466,3.1466,3.1576,3.1614,3.1631,3.1932,3.2507,3.3343,3.4202,3.5066,3.595,3.6724,3.7853,3.8996,4.0101,4.0993,4.1558,4.1676,4.1868,4.2121,4.2199,4.2174,4.2115,4.2139,4.2205,4.2187,4.2246,4.2287,4.2287,4.2287,4.2328,4.2346,4.2346,4.2387,4.2409,4.2409,4.2432,4.2472,4.2688,4.2765,4.2709,4.2727,4.2765,4.2727,4.2747,4.2745,4.2802,4.2747,4.2747,4.2858,4.2953,4.3152,4.315,4.3385,4.3707,4.4165,4.4209,4.4791,-2.2642,-2.1303,-2.0249,-1.9016,-1.7705,-1.6333,-1.4879,-1.3314,-1.1849,-1.0359,-0.8867,-0.7458,-0.595,-0.4375,-0.3051,-0.1166,0.1332,0.3044,0.4539,0.581,0.6843,0.7753,0.8652,0.9384,1.0072,1.0685,1.1418,1.2058,1.2646,1.3511,1.4135,1.4755,1.6057,1.71,1.7967,1.8979,1.9876,2.0497,2.1104,2.1589,2.2049,2.242,2.2799,2.3275,2.4032,2.4679,2.5021,2.5432,2.5659,2.5766,2.6167,2.668,2.7304,2.8373,2.9391,3.0096,3.0752,3.11,3.1117,3.1213,3.1308,3.1308,3.1402,3.1752,3.2525,3.3094,3.3894,3.4809,3.5459,3.6155,3.7032,3.8105,3.9354,4.0471,4.0849,4.1186,4.1853,4.2012,4.1987,4.1987,4.2055,4.2097,4.2097,4.2121,4.2163,4.2205,4.2222,4.2222,4.2246,4.2228,4.2228,4.2305,4.2328,4.2328,4.2369,4.249,4.2588,4.2588,4.2591,4.2609,4.257,4.257,4.257,4.2609,4.2609,4.2649,4.2688,4.2747,4.2765,4.2745,4.2853,4.312,4.327,4.3297,4.3972,-2.2307,-2.143,-2.0581,-1.9549,-1.8426,-1.722,-1.5972,-1.4677,-1.3212,-1.1809,-1.041,-0.8867,-0.7399,-0.6067,-0.459,-0.3104,-0.1333,0.1053,0.3053,0.4443,0.5538,0.6514,0.754,0.8343,0.919,0.9917,1.0956,1.1678,1.209,1.2828,1.3632,1.4576,1.5452,1.6449,1.7413,1.8167,1.8845,1.9579,2.0156,2.0646,2.1188,2.167,2.2109,2.2498,2.298,2.3653,2.4462,2.4902,2.5178,2.5422,2.6131,2.7364,2.86,2.9164,2.9698,3.0261,3.0593,3.0692,3.0692,3.0831,3.0895,3.0895,3.0935,3.1301,3.1857,3.2143,3.2749,3.392,3.4445,3.4871,3.5576,3.6139,3.737,3.9722,4.026,4.0732,4.1462,4.1884,4.2005,4.1962,4.2005,4.2005,4.2005,4.203,4.203,4.203,4.203,4.2072,4.2121,4.2121,4.2163,4.2246,4.2287,4.2246,4.2287,4.2328,4.2405,4.2445,4.249,4.2512,4.253,4.253,4.249,4.253,4.2548,4.2588,4.2609,4.2649,4.2649,4.2627,4.2645,4.2624,4.2705,4.2839,4.3084,-2.2439,-2.1735,-2.1007,-2.0193,-1.9273,-1.8129,-1.7027,-1.5898,-1.4517,-1.3117,-1.176,-1.0308,-0.8815,-0.7351,-0.6063,-0.4758,-0.3329,-0.1331,0.0722,0.2779,0.4158,0.5311,0.6347,0.7219,0.8283,0.9458,1.0344,1.097,1.1496,1.242,1.3332,1.4072,1.5027,1.5997,1.6832,1.7446,1.8093,1.8792,1.9423,1.9978,2.0484,2.0845,2.1251,2.1746,2.2063,2.2712,2.3728,2.4265,2.4838,2.5399,2.5851,2.6926,2.8382,2.8867,2.9293,2.9913,3.013,3.0215,3.0258,3.0368,3.0452,3.0426,3.0452,3.0593,3.0849,3.1176,3.1836,3.2838,3.3425,3.4084,3.4808,3.5241,3.6271,3.8043,3.8894,3.9696,4.0525,4.1138,4.1587,4.171,4.1797,4.1858,4.1884,4.1902,4.1962,4.1945,4.1962,4.1987,4.203,4.2012,4.2055,4.2163,4.2163,4.2205,4.2205,4.2264,4.2264,4.2364,4.2387,4.245,4.245,4.245,4.245,4.245,4.2508,4.2526,4.2508,4.2548,4.253,4.2548,4.2544,4.2486,4.2387,4.2524,4.281,-2.2439,-2.1823,-2.1197,-2.0548,-1.9823,-1.8841,-1.784,-1.6844,-1.5616,-1.4299,-1.2926,-1.1661,-1.0207,-0.877,-0.7511,-0.6225,-0.4871,-0.3437,-0.1554,0.0722,0.2613,0.3993,0.5261,0.6627,0.7812,0.8988,0.9769,1.0397,1.1038,1.2091,1.2981,1.3675,1.4599,1.5459,1.6171,1.6719,1.7313,1.7929,1.8525,1.9109,1.9567,1.9927,2.0396,2.0934,2.1529,2.2269,2.3104,2.3844,2.4656,2.5525,2.6193,2.7261,2.851,2.877,2.9095,2.9416,2.9649,2.9738,2.9738,2.9897,2.9984,2.9941,2.9984,2.9984,2.9995,3.0312,3.0817,3.1834,3.2414,3.3144,3.4121,3.4643,3.5257,3.6139,3.7387,3.8577,3.9656,4.0433,4.1021,4.1313,4.1498,4.1587,4.1648,4.171,4.1815,4.1815,4.1858,4.1902,4.1902,4.1927,4.197,4.2012,4.2055,4.2097,4.2181,4.2181,4.2181,4.2222,4.2264,4.2328,4.2328,4.2369,4.2328,4.2369,4.2369,4.2409,4.2409,4.2409,4.245,4.2445,4.2463,4.2405,4.2328,4.2328,4.2537,-2.233,-2.1853,-2.1244,-2.0681,-2.0065,-1.9251,-1.8458,-1.7531,-1.6421,-1.5274,-1.4079,-1.2792,-1.1522,-1.0222,-0.8933,-0.7617,-0.6284,-0.5027,-0.3602,-0.172,0.0444,0.25,0.4391,0.6195,0.7551,0.8461,0.9232,1.0053,1.088,1.1758,1.2612,1.3362,1.4178,1.4883,1.54,1.5968,1.6472,1.7,1.7556,1.8093,1.8513,1.9044,1.9619,2.0156,2.1171,2.1987,2.262,2.3722,2.4765,2.5704,2.6903,2.786,2.8561,2.8873,2.8982,2.9075,2.9167,2.9213,2.9243,2.9319,2.9425,2.9396,2.9409,2.9425,2.9412,2.9416,2.9894,3.1054,3.1469,3.2174,3.3313,3.3984,3.4316,3.4676,3.6105,3.7752,3.9427,3.9783,4.0273,4.0885,4.1139,4.1272,4.138,4.1398,4.1488,4.1577,4.1604,4.1666,4.1736,4.178,4.1841,4.1902,4.1927,4.203,4.2055,4.2115,4.2115,4.2115,4.2139,4.2222,4.2246,4.2287,4.2287,4.2287,4.231,4.231,4.231,4.2369,4.2369,4.2346,4.2346,4.2287,4.2287,4.2287,4.2341,-2.2409,-2.194,-2.1448,-2.0909,-2.0342,-1.9609,-1.8945,-1.8173,-1.7133,-1.6089,-1.4971,-1.3878,-1.2619,-1.1349,-1.0222,-0.8985,-0.7676,-0.6392,-0.5082,-0.3712,-0.1889,0.1054,0.3834,0.5651,0.6794,0.7681,0.8648,0.9632,1.049,1.1441,1.2271,1.3049,1.3682,1.424,1.4756,1.5216,1.5806,1.6332,1.6832,1.7379,1.7875,1.8321,1.8845,1.9485,2.0456,2.143,2.2485,2.4297,2.5464,2.6066,2.7142,2.7859,2.814,2.8365,2.8462,2.8573,2.8621,2.8636,2.8653,2.8716,2.8732,2.8716,2.8732,2.8732,2.8716,2.8763,2.92,3.0014,3.0663,3.1505,3.2408,3.3149,3.3646,3.4165,3.5462,3.6932,3.8159,3.9093,3.9662,3.9996,4.0521,4.0891,4.1053,4.1169,4.1261,4.138,4.1471,4.1471,4.1604,4.1648,4.1648,4.178,4.1841,4.1884,4.1945,4.1987,4.1987,4.1987,4.203,4.2055,4.2163,4.2246,4.2287,4.2287,4.2287,4.2287,4.2287,4.2328,4.2287,4.2287,4.2287,4.2287,4.2287,4.2287,4.2287,-2.2371,-2.1911,-2.1448,-2.0958,-2.041,-1.9803,-1.9236,-1.8539,-1.7693,-1.6714,-1.5708,-1.4767,-1.3653,-1.2444,-1.139,-1.0273,-0.8985,-0.7723,-0.6436,-0.4918,-0.2777,0.0166,0.3106,0.4824,0.5928,0.6879,0.8031,0.9071,0.9985,1.0902,1.1767,1.2464,1.3033,1.3519,1.3983,1.4451,1.4991,1.5517,1.6036,1.6549,1.7101,1.7556,1.8276,1.9064,2.0037,2.1237,2.2916,2.4458,2.5465,2.6121,2.6909,2.7423,2.7675,2.779,2.794,2.8054,2.8039,2.8024,2.8088,2.8107,2.8107,2.8088,2.8155,2.8171,2.8186,2.8299,2.8624,2.9316,3.0134,3.0969,3.1774,3.2619,3.3245,3.3639,3.4558,3.5745,3.693,3.759,3.8221,3.8772,3.9494,4.0103,4.0375,4.0599,4.0948,4.1186,4.1261,4.1335,4.1408,4.1408,4.1453,4.1542,4.1604,4.1666,4.171,4.1754,4.1797,4.1797,4.1902,4.1927,4.2037,4.2145,4.2246,4.2287,4.2287,4.2287,4.2287,4.2287,4.2287,4.2287,4.2287,4.2287,4.2287,4.2287,4.2287,-2.226,-2.1869,-2.1419,-2.0909,-2.0376,-1.9889,-1.9369,-1.8745,-1.8028,-1.7242,-1.6343,-1.5543,-1.4549,-1.3511,-1.2541,-1.1449,-1.0214,-0.9089,-0.7564,-0.5671,-0.3267,-0.05,0.1777,0.3666,0.5018,0.6124,0.741,0.8465,0.9401,1.0267,1.1138,1.1804,1.2236,1.2658,1.3139,1.3614,1.4103,1.4579,1.5108,1.5623,1.6197,1.674,1.7577,1.8635,1.9922,2.1382,2.3038,2.415,2.4811,2.5811,2.6312,2.6736,2.7078,2.7233,2.7386,2.7473,2.7539,2.759,2.7575,2.7575,2.7575,2.7625,2.769,2.7755,2.779,2.7905,2.8278,2.8997,2.9703,3.063,3.1505,3.2446,3.2873,3.3096,3.3466,3.4307,3.5317,3.5958,3.6469,3.7347,3.8135,3.8719,3.9217,3.9819,4.0429,4.0555,4.074,4.1059,4.1134,4.118,4.118,4.1226,4.129,4.1398,4.1443,4.1471,4.1515,4.156,4.171,4.1841,4.1952,4.2061,4.2205,4.2246,4.2287,4.2287,4.2287,4.2287,4.2287,4.2287,4.2287,4.2287,4.2287,4.2287,4.2287,-2.226,-2.1869,-2.1371,-2.0909,-2.0361,-1.998,-1.9442,-1.8874,-1.8333,-1.7652,-1.6934,-1.6151,-1.5344,-1.4525,-1.3501,-1.2531,-1.1449,-1.012,-0.8338,-0.5742,-0.4103,-0.2221,-0.0111,0.2001,0.4005,0.5356,0.6648,0.7752,0.8774,0.9624,1.0398,1.0843,1.1358,1.1919,1.229,1.265,1.3139,1.3692,1.4163,1.4697,1.5313,1.6138,1.7011,1.7995,1.9687,2.1248,2.2492,2.3267,2.38,2.4439,2.5245,2.5974,2.6404,2.6496,2.6669,2.6893,2.7026,2.7159,2.7144,2.7233,2.7284,2.7284,2.7335,2.7386,2.7488,2.764,2.8056,2.8776,2.9576,3.0517,3.1637,3.2139,3.2468,3.2633,3.2834,3.3203,3.381,3.4813,3.5612,3.6108,3.6754,3.7436,3.7866,3.8538,3.9172,3.9679,4.0182,4.0642,4.0789,4.0849,4.0901,4.0836,4.0965,4.1076,4.1169,4.1198,4.129,4.1335,4.1471,4.1622,4.1736,4.1892,4.2037,4.2163,4.2246,4.2246,4.2222,4.2264,4.2264,4.2305,4.2287,4.2287,4.2246,4.2287,4.2264,-2.232,-2.1853,-2.1309,-2.0843,-2.0376,-1.9929,-1.9493,-1.9011,-1.8489,-1.7922,-1.7352,-1.668,-1.5932,-1.5175,-1.4318,-1.3464,-1.2307,-1.0527,-0.8606,-0.6597,-0.5027,-0.3492,-0.1902,0.0226,0.23,0.4348,0.5804,0.6832,0.7783,0.873,0.9378,0.9907,1.0351,1.0793,1.1296,1.1615,1.2112,1.272,1.326,1.3865,1.4638,1.5494,1.6758,1.7973,1.9672,2.1058,2.1916,2.2421,2.2919,2.3471,2.4176,2.5034,2.5632,2.5851,2.6068,2.6365,2.6486,2.6674,2.6765,2.6855,2.6907,2.7026,2.7078,2.7144,2.7248,2.7386,2.7853,2.8569,2.9395,3.0377,3.1687,3.2053,3.215,3.2247,3.2398,3.2563,3.2858,3.3715,3.4497,3.4781,3.5421,3.6055,3.6637,3.7269,3.787,3.8398,3.9105,3.9544,3.9961,4.0075,4.04,4.0468,4.0583,4.0697,4.084,4.0918,4.1041,4.1105,4.1198,4.1307,4.1353,4.1604,4.1805,4.1952,4.2079,4.2139,4.2115,4.2157,4.2181,4.2205,4.2187,4.2187,4.2205,4.2205,4.2139,-2.2334,-2.1869,-2.1246,-2.081,-2.0376,-1.9925,-1.9581,-1.9265,-1.8669,-1.8161,-1.7707,-1.7089,-1.6411,-1.5744,-1.4971,-1.4165,-1.2754,-1.0931,-0.903,-0.7735,-0.6112,-0.4587,-0.3019,-0.1323,0.0589,0.3207,0.4655,0.5731,0.6722,0.7545,0.835,0.8947,0.9262,0.9709,1.0225,1.0604,1.1038,1.16,1.2274,1.3042,1.3936,1.4756,1.617,1.8127,1.9362,2.0406,2.106,2.1565,2.2075,2.2641,2.3065,2.3826,2.458,2.5189,2.5467,2.5893,2.5948,2.6165,2.6379,2.6472,2.6539,2.6727,2.6846,2.6951,2.7003,2.7218,2.7743,2.856,2.9456,3.0518,3.1577,3.1826,3.1883,3.1996,3.2094,3.215,3.2262,3.2757,3.325,3.3682,3.4222,3.4823,3.5356,3.5987,3.6555,3.717,3.787,3.8472,3.8891,3.9277,3.9598,3.9986,4.0121,4.0337,4.0485,4.0534,4.0662,4.0758,4.0871,4.0918,4.1029,4.1198,4.1453,4.1754,4.1884,4.1945,4.1987,4.203,4.2055,4.2079,4.2079,4.2097,4.2079,4.2079,4.2055,-2.2337,-2.1869,-2.1388,-2.0909,-2.046,-2.0096,-1.9705,-1.9325,-1.8898,-1.8489,-1.8055,-1.7516,-1.6976,-1.6398,-1.5611,-1.4365,-1.2841,-1.124,-0.9974,-0.8692,-0.7138,-0.5675,-0.4193,-0.2704,-0.0906,0.1044,0.2843,0.4403,0.5661,0.6584,0.7181,0.7777,0.8361,0.8807,0.9064,0.9512,1.0021,1.0541,1.1129,1.1926,1.2819,1.4049,1.5535,1.7667,1.8639,1.9486,2.0226,2.0816,2.1336,2.1839,2.2322,2.2811,2.3412,2.4105,2.4738,2.516,2.537,2.5646,2.5934,2.6096,2.6218,2.634,2.6447,2.6568,2.6727,2.6986,2.77,2.8891,3.0078,3.1155,3.1495,3.1597,3.1655,3.1784,3.1841,3.1883,3.1981,3.215,3.2468,3.285,3.326,3.3704,3.4254,3.4755,3.524,3.5889,3.6551,3.7265,3.7783,3.8267,3.87,3.917,3.9609,3.9867,4.0121,4.0121,4.0221,4.0254,4.0353,4.0517,4.0631,4.0823,4.1105,4.129,4.156,4.1754,4.1797,4.1858,4.1902,4.1866,4.1927,4.1987,4.1927,4.1884,4.1927,-2.2436,-2.1928,-2.1515,-2.107,-2.0592,-2.0231,-1.9878,-1.9508,-1.9011,-1.8669,-1.8293,-1.7801,-1.7297,-1.674,-1.6064,-1.4687,-1.313,-1.1913,-1.0754,-0.9474,-0.81,-0.6714,-0.5293,-0.3854,-0.2374,-0.0808,0.0831,0.2696,0.4478,0.5342,0.6067,0.6662,0.7181,0.7637,0.8102,0.849,0.8941,0.9466,1.0161,1.0954,1.1938,1.3492,1.5428,1.6693,1.7687,1.8432,1.9166,1.977,2.0355,2.0944,2.1388,2.1839,2.2396,2.2992,2.38,2.4452,2.4794,2.5189,2.5536,2.5701,2.5825,2.6056,2.6125,2.6286,2.6547,2.6942,2.781,2.9183,3.022,3.1117,3.1249,3.1307,3.1366,3.1366,3.1424,3.1482,3.1524,3.1582,3.1781,3.2089,3.2459,3.2835,3.3234,3.3704,3.4005,3.4603,3.5247,3.5942,3.6656,3.7167,3.7625,3.8274,3.8813,3.9276,3.954,3.9592,3.9661,3.9696,3.985,4.0003,4.0171,4.0303,4.0468,4.0614,4.0948,4.1318,4.1426,4.1443,4.1577,4.1666,4.1666,4.1666,4.1684,4.1684,4.1684,-2.2588,-2.1998,-2.1671,-2.1231,-2.0726,-2.035,-2.0021,-1.9654,-1.9161,-1.8822,-1.8577,-1.8082,-1.7544,-1.6951,-1.6095,-1.4937,-1.3409,-1.2365,-1.1316,-1.021,-0.8849,-0.7522,-0.6284,-0.497,-0.3588,-0.2288,-0.0964,0.0665,0.2945,0.4082,0.4812,0.5474,0.5935,0.6465,0.706,0.7451,0.7842,0.8429,0.9245,1.011,1.1536,1.3338,1.4966,1.5886,1.6636,1.7404,1.8162,1.8844,1.9507,2.0096,2.0549,2.0944,2.1451,2.1951,2.2665,2.3623,2.4105,2.4624,2.5021,2.5245,2.5314,2.5605,2.5784,2.5893,2.6269,2.693,2.8067,2.9421,3.022,3.0762,3.094,3.1014,3.1014,3.0999,3.1014,3.1014,3.1058,3.1117,3.1161,3.1437,3.1682,3.2064,3.2453,3.2812,3.3215,3.3498,3.4107,3.4633,3.5289,3.5948,3.6518,3.7268,3.7936,3.8509,3.8843,3.9007,3.9007,3.9061,3.9222,3.9382,3.954,3.9696,3.985,4.0003,4.032,4.0662,4.0823,4.1059,4.1198,4.129,4.129,4.129,4.1353,4.1307,4.1307,-2.2677,-2.2136,-2.1814,-2.1371,-2.0877,-2.0561,-2.0185,-1.9777,-1.945,-1.9116,-1.8731,-1.8293,-1.7814,-1.7089,-1.5964,-1.4812,-1.3732,-1.2764,-1.1832,-1.0787,-0.9488,-0.8224,-0.7079,-0.5736,-0.4536,-0.3364,-0.2031,-0.0196,0.1526,0.2736,0.3682,0.4281,0.5087,0.5624,0.5943,0.64,0.6863,0.7363,0.8133,0.9416,1.1056,1.2494,1.3571,1.4522,1.5446,1.6306,1.7207,1.7901,1.8643,1.9309,1.9704,2.0172,2.0688,2.1262,2.169,2.2372,2.3113,2.3969,2.4452,2.4624,2.4751,2.5048,2.5174,2.5258,2.5882,2.6833,2.7993,2.9011,2.9757,3.0283,3.0522,3.0642,3.0642,3.0642,3.0582,3.0582,3.0642,3.0522,3.0628,3.0628,3.0851,3.1321,3.1781,3.2079,3.2428,3.2633,3.2944,3.3482,3.4038,3.4652,3.5641,3.6517,3.7093,3.7721,3.8173,3.8343,3.8399,3.8472,3.8639,3.8805,3.8952,3.9061,3.9169,3.9382,3.9747,4.002,4.0204,4.05,4.0806,4.0901,4.0871,4.0918,4.0965,4.0918,4.0918,-2.2867,-2.2281,-2.1899,-2.1479,-2.1039,-2.063,-2.0258,-1.9925,-1.956,-1.9228,-1.8912,-1.845,-1.7801,-1.6921,-1.5888,-1.4949,-1.3978,-1.3112,-1.2187,-1.1209,-1.002,-0.8862,-0.7699,-0.6561,-0.542,-0.4273,-0.3188,-0.2061,-0.0262,0.1397,0.2618,0.3353,0.3956,0.4489,0.4885,0.5415,0.5815,0.6418,0.7368,0.8705,1.016,1.1329,1.2358,1.3288,1.4235,1.5171,1.6035,1.6881,1.7628,1.8297,1.8777,1.9386,1.9922,2.0366,2.0741,2.1325,2.1939,2.2798,2.3695,2.3884,2.4189,2.4421,2.466,2.5047,2.5891,2.6699,2.7751,2.9002,2.9344,2.9685,2.996,3.0036,3.0036,3.0036,3.0036,3.0036,3.0021,3.0021,3.0021,3.0036,3.0097,3.0493,3.0837,3.1131,3.148,3.1853,3.2135,3.2527,3.3048,3.3603,3.4691,3.5943,3.6463,3.6938,3.7404,3.7711,3.7754,3.7886,3.8116,3.823,3.8343,3.8455,3.8567,3.8733,3.9077,3.9329,3.9575,3.9952,4.0353,4.0419,4.0436,4.0419,4.0419,4.0419,4.0419,-2.3049,-2.248,-2.2044,-2.1631,-2.1214,-2.0714,-2.0361,-2.0065,-1.9654,-1.9339,-1.8988,-1.8436,-1.7585,-1.6752,-1.5976,-1.5119,-1.4212,-1.3399,-1.254,-1.1551,-1.0431,-0.934,-0.8281,-0.7246,-0.6115,-0.5024,-0.4069,-0.3052,-0.1815,-0.033,0.1208,0.235,0.295,0.3487,0.3954,0.4422,0.49,0.5656,0.6648,0.787,0.9089,1.0074,1.1107,1.2031,1.3011,1.397,1.476,1.5762,1.6594,1.7276,1.7901,1.8509,1.9121,1.9594,1.9977,2.0495,2.1071,2.169,2.2555,2.3053,2.3437,2.3734,2.408,2.4544,2.5614,2.6283,2.6999,2.8392,2.8721,2.898,2.9226,2.9352,2.9352,2.9352,2.9352,2.9352,2.9352,2.9338,2.9338,2.9352,2.9338,2.9401,2.9747,3.0101,3.0539,3.0984,3.1351,3.164,3.211,3.2688,3.3459,3.4706,3.5517,3.59,3.6315,3.6716,3.693,3.7175,3.7413,3.7637,3.7695,3.7828,3.8017,3.8246,3.8415,3.8623,3.8865,3.9365,3.9867,3.985,3.985,3.985,3.985,3.985,3.985,-2.3218,-2.2721,-2.2281,-2.1748,-2.1277,-2.0991,-2.0563,-2.01,-1.9797,-1.9435,-1.895,-1.8201,-1.7421,-1.671,-1.6008,-1.5266,-1.4326,-1.3552,-1.2735,-1.185,-1.0779,-0.9755,-0.8791,-0.7776,-0.6724,-0.5637,-0.4717,-0.3869,-0.3021,-0.184,-0.04,0.0806,0.1811,0.2484,0.3021,0.3489,0.4279,0.5024,0.5953,0.6808,0.7856,0.8871,0.9764,1.0748,1.1749,1.2785,1.36,1.4681,1.5613,1.6376,1.701,1.7638,1.8327,1.8798,1.9253,1.9715,2.0302,2.0805,2.1325,2.2137,2.2714,2.303,2.3334,2.3825,2.4748,2.5376,2.6225,2.7213,2.7717,2.822,2.8468,2.8651,2.8651,2.8651,2.8638,2.8651,2.8651,2.8638,2.8638,2.8651,2.8651,2.8702,2.8753,2.9107,2.967,3.019,3.0673,3.1029,3.1411,3.187,3.2317,3.3216,3.4258,3.4805,3.511,3.5493,3.583,3.6229,3.6459,3.6781,3.6966,3.7163,3.7433,3.761,3.7844,3.8001,3.8157,3.8662,3.9044,3.9206,3.9259,3.9276,3.9276,3.9276,3.9276,-2.3242,-2.2825,-2.2347,-2.1866,-2.1417,-2.1055,-2.0646,-2.022,-1.9869,-1.9325,-1.8697,-1.8055,-1.7447,-1.6778,-1.6107,-1.5311,-1.4408,-1.36,-1.2842,-1.1959,-1.0998,-1.002,-0.9138,-0.8256,-0.7296,-0.6253,-0.5389,-0.4603,-0.3812,-0.2974,-0.205,-0.08,0.0536,0.1411,0.2014,0.269,0.3612,0.4362,0.5029,0.5688,0.6633,0.7668,0.8567,0.9448,1.0542,1.1607,1.2586,1.3608,1.4537,1.5392,1.6114,1.6811,1.751,1.7978,1.8452,1.8921,1.9507,1.9846,2.0313,2.1262,2.2161,2.2482,2.2763,2.3169,2.3766,2.4368,2.5281,2.6168,2.6778,2.7249,2.7829,2.7934,2.7934,2.7921,2.7934,2.8,2.8,2.8,2.8,2.8066,2.8,2.7921,2.7973,2.8105,2.8739,2.9387,2.987,3.0372,3.0729,3.1011,3.1424,3.1854,3.2882,3.3481,3.3781,3.4299,3.4849,3.5138,3.5476,3.5691,3.5984,3.6616,3.6876,3.7074,3.7128,3.7164,3.7456,3.7937,3.8343,3.8606,3.8733,3.8694,3.8694,3.8694,3.8733,-2.3265,-2.285,-2.2402,-2.1936,-2.1493,-2.1087,-2.0679,-2.027,-1.9869,-1.9236,-1.8478,-1.8069,-1.7502,-1.6863,-1.6207,-1.54,-1.4536,-1.3684,-1.2929,-1.2107,-1.1259,-1.0336,-0.951,-0.8672,-0.7783,-0.6856,-0.614,-0.535,-0.4613,-0.3867,-0.3004,-0.1999,-0.094,0.0067,0.1209,0.2018,0.2852,0.3507,0.4015,0.4619,0.5519,0.652,0.7539,0.8406,0.9489,1.0496,1.1552,1.2512,1.3535,1.4394,1.5188,1.5974,1.6603,1.7157,1.7638,1.8172,1.8643,1.9054,1.9584,2.0506,2.1474,2.1737,2.2037,2.2466,2.2908,2.3416,2.4341,2.5407,2.5868,2.6358,2.7178,2.7335,2.7416,2.7469,2.7469,2.7482,2.7469,2.7469,2.7469,2.7403,2.7403,2.7403,2.7469,2.7656,2.8105,2.8739,2.9247,2.9623,2.9851,3.0183,3.0405,3.0892,3.1558,3.2032,3.2372,3.3081,3.3624,3.3806,3.4125,3.4448,3.4831,3.5459,3.5738,3.5629,3.5763,3.6175,3.644,3.6558,3.7317,3.8157,3.8246,3.8319,3.8262,3.8303,3.8303,-2.3265,-2.2876,-2.2375,-2.1907,-2.1462,-2.1055,-2.0663,-2.027,-1.9833,-1.9213,-1.8517,-1.8083,-1.7515,-1.6876,-1.6262,-1.549,-1.4617,-1.3789,-1.3045,-1.2314,-1.1418,-1.06,-0.9821,-0.9033,-0.8256,-0.7344,-0.6607,-0.5938,-0.5261,-0.4457,-0.3761,-0.3066,-0.2083,-0.0941,0.0403,0.1344,0.2085,0.2691,0.3103,0.3771,0.461,0.5587,0.6432,0.7392,0.8379,0.9451,1.0576,1.1484,1.2505,1.3455,1.4258,1.5054,1.5762,1.6324,1.6881,1.7373,1.7988,1.8317,1.8643,1.9901,2.0571,2.0967,2.1336,2.1647,2.193,2.2528,2.3454,2.453,2.5124,2.5904,2.6485,2.6875,2.6943,2.6943,2.6943,2.7011,2.6998,2.6998,2.7011,2.7011,2.7011,2.7011,2.7079,2.7281,2.7643,2.8091,2.8546,2.8867,2.9135,2.9415,2.9673,2.9973,3.052,3.0802,3.1257,3.1907,3.2416,3.2582,3.2874,3.3195,3.3487,3.3853,3.4074,3.4137,3.45,3.4971,3.4963,3.4961,3.6069,3.716,3.7764,3.7934,3.7918,3.7918,3.7976,-2.3212,-2.2773,-2.2337,-2.1866,-2.1401,-2.1055,-2.0679,-2.0235,-1.9617,-1.8988,-1.8503,-1.8083,-1.7556,-1.6876,-1.6262,-1.5534,-1.4652,-1.3826,-1.3084,-1.2421,-1.1569,-1.0753,-1.0035,-0.9361,-0.8626,-0.7848,-0.7148,-0.6454,-0.586,-0.5092,-0.4432,-0.3774,-0.2755,-0.1344,-0.0134,0.0806,0.1412,0.2018,0.2424,0.2975,0.3818,0.468,0.5519,0.6386,0.743,0.8477,0.9653,1.0559,1.1552,1.2579,1.339,1.4194,1.4982,1.5559,1.6123,1.6612,1.7157,1.756,1.7969,1.8844,1.9518,2.0042,2.0635,2.088,2.1065,2.1888,2.2769,2.3652,2.4426,2.5247,2.597,2.6302,2.6477,2.6465,2.6533,2.6589,2.6658,2.6658,2.6671,2.6671,2.6671,2.6726,2.6794,2.6875,2.7255,2.751,2.7908,2.8287,2.856,2.8803,2.9085,2.9212,2.954,2.975,3.0164,3.0799,3.1211,3.1375,3.1709,3.1994,3.2242,3.2445,3.2797,3.3138,3.3426,3.3759,3.3935,3.433,3.5272,3.6189,3.6769,3.7435,3.7642,3.77,3.77,-2.3157,-2.2738,-2.2226,-2.1764,-2.1355,-2.0974,-2.0527,-2.001,-1.9362,-1.8874,-1.8464,-1.8083,-1.7556,-1.6876,-1.6207,-1.5478,-1.4663,-1.3779,-1.3084,-1.2421,-1.1619,-1.0863,-1.0198,-0.9577,-0.8896,-0.8209,-0.7549,-0.6839,-0.6339,-0.5596,-0.4882,-0.4101,-0.3088,-0.2016,-0.0873,-0.0202,0.0672,0.1344,0.1883,0.2488,0.3254,0.3998,0.4792,0.5684,0.663,0.7707,0.8791,0.9777,1.0738,1.1774,1.2659,1.3462,1.4122,1.4705,1.5275,1.5833,1.6464,1.6881,1.7354,1.7774,1.8375,1.8854,1.9726,2.0183,2.0399,2.111,2.205,2.2881,2.3724,2.465,2.5448,2.5767,2.598,2.605,2.6188,2.6314,2.6314,2.6327,2.6327,2.6327,2.6396,2.6452,2.6615,2.6658,2.6794,2.7066,2.7268,2.7656,2.7973,2.83,2.8546,2.8675,2.8803,2.9104,2.9323,2.9596,2.9961,3.0193,3.0538,3.0899,3.1017,3.119,3.1671,3.2079,3.2164,3.2467,3.3093,3.3689,3.4407,3.5058,3.5696,3.6436,3.7231,3.7417,3.737,-2.3077,-2.2615,-2.2044,-2.1601,-2.1246,-2.0843,-2.0235,-1.9574,-1.9213,-1.8851,-1.8478,-1.8043,-1.7502,-1.6833,-1.6107,-1.5421,-1.4652,-1.3826,-1.3132,-1.2471,-1.1778,-1.1015,-1.03,-0.9673,-0.9054,-0.8421,-0.7818,-0.7214,-0.6711,-0.6027,-0.5227,-0.4369,-0.3487,-0.2619,-0.188,-0.1008,-0.0067,0.0739,0.1479,0.2083,0.2838,0.3569,0.4314,0.5105,0.6025,0.7057,0.8069,0.9006,1.0007,1.0944,1.1848,1.2659,1.3317,1.3833,1.4482,1.5133,1.5842,1.6263,1.6542,1.695,1.7235,1.7774,1.8721,1.9264,1.979,2.038,2.1363,2.2274,2.304,2.4095,2.4955,2.5286,2.5606,2.5746,2.5898,2.5898,2.591,2.598,2.598,2.6062,2.6119,2.6295,2.6534,2.6603,2.6452,2.6658,2.6863,2.7066,2.7456,2.7656,2.7973,2.8235,2.843,2.8651,2.878,2.8958,2.9154,2.9545,2.9589,2.9862,2.9876,3.0092,3.0554,3.0859,3.086,3.1264,3.218,3.2771,3.32,3.3917,3.469,3.5669,3.6491,3.6924,3.7046,-2.2952,-2.2579,-2.2032,-2.1587,-2.1135,-2.0376,-1.9827,-1.9413,-1.9049,-1.8683,-1.8268,-1.7814,-1.7323,-1.671,-1.6095,-1.5377,-1.4652,-1.3884,-1.319,-1.251,-1.1819,-1.1124,-1.0454,-0.9784,-0.9263,-0.8685,-0.8086,-0.758,-0.7021,-0.6362,-0.5516,-0.4668,-0.3956,-0.3288,-0.2552,-0.1814,-0.0739,0.0269,0.1008,0.1748,0.2421,0.3125,0.3849,0.4619,0.5387,0.6391,0.7314,0.8222,0.915,1.019,1.1025,1.1774,1.2365,1.2959,1.3542,1.4338,1.5062,1.5559,1.57,1.6123,1.6473,1.6682,1.7501,1.8172,1.8859,1.9681,2.0693,2.1594,2.2385,2.3397,2.4259,2.4767,2.5028,2.5253,2.5394,2.5548,2.5548,2.563,2.57,2.577,2.5828,2.6009,2.626,2.6313,2.6258,2.6327,2.6465,2.6658,2.693,2.7201,2.7523,2.7842,2.8052,2.8262,2.8379,2.856,2.8702,2.8871,2.9035,2.9162,2.9344,2.9561,2.9693,2.9913,3.028,3.0866,3.1511,3.2025,3.2455,3.2989,3.3741,3.4818,3.5677,3.6119,3.6644,-2.2825,-2.2409,-2.1899,-2.137,-2.0778,-2.0065,-1.9581,-1.925,-1.8936,-1.8581,-1.8149,-1.772,-1.7227,-1.6667,-1.6064,-1.5433,-1.4755,-1.4025,-1.3334,-1.2647,-1.1868,-1.1217,-1.0557,-0.994,-0.9361,-0.8844,-0.8334,-0.78,-0.7316,-0.6533,-0.5702,-0.5279,-0.4492,-0.3825,-0.3088,-0.2351,-0.1411,-0.0403,0.047,0.1344,0.2017,0.2688,0.34,0.4125,0.4849,0.5718,0.6641,0.7518,0.8426,0.9346,1.0207,1.0887,1.1558,1.2298,1.2893,1.3688,1.4346,1.4705,1.4848,1.5284,1.5638,1.5991,1.6403,1.695,1.7813,1.87,1.9885,2.0957,2.1767,2.2539,2.35,2.425,2.4467,2.4671,2.4897,2.5123,2.5194,2.5336,2.5407,2.5465,2.5596,2.5776,2.5917,2.5972,2.605,2.6119,2.6258,2.6408,2.6602,2.6863,2.7188,2.759,2.7736,2.7947,2.8052,2.8235,2.843,2.8638,2.8766,2.8894,2.9035,2.9162,2.9415,2.9727,3.0097,3.0568,3.1087,3.1394,3.1777,3.2352,3.2883,3.366,3.4465,3.5136,3.572,-2.266,-2.2153,-2.1658,-2.0991,-2.027,-1.9869,-1.9472,-1.9116,-1.8874,-1.8567,-1.8149,-1.7679,-1.7186,-1.6625,-1.602,-1.5445,-1.4812,-1.414,-1.342,-1.2774,-1.2067,-1.1377,-1.0659,-0.9984,-0.9413,-0.8949,-0.8459,-0.7991,-0.7411,-0.6768,-0.6224,-0.587,-0.509,-0.4356,-0.3689,-0.2887,-0.2082,-0.121,-0.0202,0.0806,0.168,0.2351,0.3023,0.378,0.4537,0.5358,0.6151,0.6964,0.7886,0.8618,0.9306,1.0062,1.0962,1.1706,1.2378,1.2893,1.355,1.384,1.4129,1.4505,1.4856,1.5213,1.563,1.6053,1.6769,1.7764,1.9012,2.0112,2.0944,2.1927,2.2904,2.3368,2.3655,2.3948,2.425,2.4394,2.455,2.4729,2.5004,2.5064,2.5052,2.523,2.5565,2.5636,2.5548,2.5758,2.598,2.6131,2.627,2.6521,2.6863,2.7255,2.7536,2.7669,2.7868,2.8039,2.8222,2.8352,2.856,2.8702,2.8844,2.8972,2.9226,2.9526,2.9837,3.0144,3.0568,3.0925,3.1292,3.173,3.2197,3.2588,3.3218,3.4006,3.4829,-2.2517,-2.2051,-2.1308,-2.0628,-2.0061,-1.9756,-1.9391,-1.9017,-1.8711,-1.8347,-1.7922,-1.7488,-1.7018,-1.6509,-1.5932,-1.54,-1.4858,-1.4233,-1.3505,-1.2832,-1.2166,-1.1427,-1.071,-0.9984,-0.9406,-0.9001,-0.8532,-0.8081,-0.7589,-0.7121,-0.6608,-0.6244,-0.5491,-0.4891,-0.4156,-0.3355,-0.2619,-0.1883,-0.1008,0.0202,0.1209,0.2217,0.3025,0.3567,0.4225,0.4885,0.5647,0.627,0.7134,0.7929,0.8604,0.9458,1.0519,1.1037,1.1484,1.2003,1.2599,1.2966,1.3331,1.371,1.4145,1.4425,1.4848,1.5196,1.5824,1.701,1.8054,1.9162,2.0215,2.1272,2.2136,2.2467,2.2841,2.3224,2.3593,2.3677,2.3824,2.4123,2.4507,2.4484,2.4533,2.4748,2.5107,2.5181,2.5183,2.5312,2.5606,2.5758,2.598,2.6188,2.6383,2.6782,2.7188,2.7403,2.7603,2.7789,2.796,2.8157,2.8365,2.8509,2.8651,2.8844,2.9035,2.9275,2.9574,2.9898,3.0266,3.0568,3.0925,3.1321,3.1697,3.2133,3.2359,3.2988,3.3836,-2.2354,-2.1866,-2.1023,-2.0376,-1.9904,-1.9647,-1.928,-1.8889,-1.8517,-1.8109,-1.7706,-1.7323,-1.6905,-1.6436,-1.5913,-1.5412,-1.4903,-1.4269,-1.3647,-1.2977,-1.2157,-1.1469,-1.0702,-0.9976,-0.9517,-0.9054,-0.8513,-0.8074,-0.7779,-0.7355,-0.6912,-0.6555,-0.5954,-0.5292,-0.4556,-0.3825,-0.309,-0.2421,-0.1613,-0.0605,0.0672,0.1612,0.2552,0.3092,0.3792,0.4439,0.5133,0.5673,0.6426,0.7295,0.8008,0.8856,0.969,1.0143,1.0588,1.1111,1.1632,1.2077,1.2452,1.29,1.3339,1.3695,1.4201,1.4625,1.4768,1.5903,1.7003,1.8037,1.9035,2.0062,2.1131,2.1688,2.2103,2.2553,2.2852,2.3075,2.3224,2.3553,2.3682,2.3694,2.3734,2.3892,2.4192,2.4338,2.4383,2.4826,2.5123,2.5312,2.5548,2.5758,2.6037,2.6314,2.6714,2.7066,2.7281,2.7469,2.7709,2.7908,2.8105,2.8235,2.8444,2.8651,2.8908,2.9085,2.9338,2.9665,2.9974,3.0266,3.0628,3.1043,3.1379,3.1697,3.1894,3.212,3.2839,-2.2113,-2.1554,-2.0778,-2.0154,-1.9717,-1.9487,-1.9116,-1.8707,-1.8333,-1.7909,-1.7434,-1.7199,-1.682,-1.6392,-1.5913,-1.5468,-1.4971,-1.428,-1.3695,-1.2967,-1.2157,-1.1469,-1.0702,-1.0035,-0.9465,-0.8995,-0.8493,-0.8293,-0.8069,-0.7589,-0.7144,-0.6858,-0.6284,-0.5624,-0.4894,-0.4225,-0.3489,-0.2755,-0.1949,-0.121,-0.0134,0.0941,0.1882,0.2686,0.3303,0.4003,0.4624,0.5258,0.5892,0.6712,0.7464,0.8327,0.8937,0.9392,0.9841,1.0288,1.0738,1.1186,1.1558,1.2083,1.2452,1.2893,1.3542,1.3985,1.4122,1.484,1.5931,1.6875,1.7843,1.8982,2.0013,2.0797,2.1293,2.1883,2.2101,2.2392,2.2628,2.2852,2.2948,2.297,2.3034,2.3161,2.3309,2.3446,2.3813,2.4189,2.455,2.4814,2.5087,2.5241,2.5511,2.5804,2.6151,2.6508,2.6875,2.7134,2.731,2.759,2.7789,2.8052,2.8249,2.8392,2.8587,2.8766,2.9022,2.9352,2.9665,2.996,3.0326,3.0702,3.1043,3.1379,3.1667,3.1894,3.2079,-2.1582,-2.078,-2.0342,-1.9904,-1.9472,-1.9205,-1.8798,-1.8383,-1.8042,-1.7585,-1.7131,-1.6765,-1.6479,-1.6188,-1.5736,-1.5277,-1.4743,-1.4186,-1.3505,-1.2822,-1.2107,-1.1418,-1.071,-0.9932,-0.9302,-0.8837,-0.8472,-0.838,-0.8194,-0.7812,-0.7537,-0.7302,-0.6613,-0.5954,-0.5229,-0.4558,-0.3823,-0.3088,-0.2353,-0.1614,-0.0739,0.0336,0.1479,0.2218,0.2825,0.3564,0.4206,0.4671,0.538,0.6193,0.7026,0.777,0.825,0.8632,0.9084,0.9463,0.9916,1.0288,1.0738,1.126,1.1632,1.1929,1.2586,1.3178,1.347,1.392,1.4816,1.5538,1.6581,1.8026,1.908,1.9764,2.0324,2.1001,2.1482,2.1721,2.1949,2.2176,2.2262,2.2348,2.2413,2.2553,2.2777,2.2927,2.3075,2.3519,2.374,2.4009,2.4527,2.4731,2.4933,2.5229,2.5523,2.6013,2.6427,2.6714,2.6905,2.7188,2.7536,2.7736,2.7934,2.8145,2.8276,2.8457,2.8638,2.8894,2.9261,2.9637,3.0021,3.0401,3.0702,3.0984,3.1379,3.1667,3.1781]}]]